<?xml version="1.0" encoding="UTF-8" standalone="no" ?>
<gpx xmlns="http://www.topografix.com/GPX/1/1" xmlns:xsi="http://www.w3.org/2001/XMLSchema-instance" xsi:schemaLocation="http://www.topografix.com/GPX/1/1 http://www.topografix.com/GPX/1/1/gpx.xsd" version="1.1" creator="VisuGPX - https://www.visugpx.com">
  <metadata>
    <name>2019-06-02 14:53:29</name>
    <desc><![CDATA[

]]></desc>
  </metadata>
  <trk>
    <name><![CDATA[2019-06-02 14:53:29]]></name>
    <trkseg>
      <trkpt lat="41.89243" lon="-8.62469">
        <ele>227.49</ele>
        <time>2019-06-02T06:30:14Z</time>
      </trkpt>
      <trkpt lat="41.89244" lon="-8.62469">
        <ele>227.01</ele>
        <time>2019-06-02T06:30:29Z</time>
      </trkpt>
      <trkpt lat="41.89245" lon="-8.62469">
        <ele>227.01</ele>
        <time>2019-06-02T06:30:31Z</time>
      </trkpt>
      <trkpt lat="41.89259" lon="-8.62465">
        <ele>225.57</ele>
        <time>2019-06-02T06:30:46Z</time>
      </trkpt>
      <trkpt lat="41.8926" lon="-8.62465">
        <ele>225.57</ele>
        <time>2019-06-02T06:30:47Z</time>
      </trkpt>
      <trkpt lat="41.89263" lon="-8.62462">
        <ele>225.57</ele>
        <time>2019-06-02T06:30:51Z</time>
      </trkpt>
      <trkpt lat="41.89273" lon="-8.6246">
        <ele>225.09</ele>
        <time>2019-06-02T06:31:07Z</time>
      </trkpt>
      <trkpt lat="41.89284" lon="-8.62457">
        <ele>224.12</ele>
        <time>2019-06-02T06:31:25Z</time>
      </trkpt>
      <trkpt lat="41.89294" lon="-8.62449">
        <ele>222.68</ele>
        <time>2019-06-02T06:31:40Z</time>
      </trkpt>
      <trkpt lat="41.89305" lon="-8.62441">
        <ele>221.72</ele>
        <time>2019-06-02T06:31:56Z</time>
      </trkpt>
      <trkpt lat="41.89319" lon="-8.62436">
        <ele>221.72</ele>
        <time>2019-06-02T06:32:11Z</time>
      </trkpt>
      <trkpt lat="41.89331" lon="-8.62433">
        <ele>221.24</ele>
        <time>2019-06-02T06:32:28Z</time>
      </trkpt>
      <trkpt lat="41.89346" lon="-8.62429">
        <ele>221.24</ele>
        <time>2019-06-02T06:32:42Z</time>
      </trkpt>
      <trkpt lat="41.89362" lon="-8.62426">
        <ele>220.76</ele>
        <time>2019-06-02T06:32:56Z</time>
      </trkpt>
      <trkpt lat="41.8938" lon="-8.62423">
        <ele>220.76</ele>
        <time>2019-06-02T06:33:12Z</time>
      </trkpt>
      <trkpt lat="41.89396" lon="-8.62421">
        <ele>220.76</ele>
        <time>2019-06-02T06:33:25Z</time>
      </trkpt>
      <trkpt lat="41.8941" lon="-8.62419">
        <ele>220.28</ele>
        <time>2019-06-02T06:33:39Z</time>
      </trkpt>
      <trkpt lat="41.89423" lon="-8.62419">
        <ele>220.28</ele>
        <time>2019-06-02T06:33:52Z</time>
      </trkpt>
      <trkpt lat="41.89438" lon="-8.62418">
        <ele>221.24</ele>
        <time>2019-06-02T06:34:04Z</time>
      </trkpt>
      <trkpt lat="41.89453" lon="-8.62414">
        <ele>221.72</ele>
        <time>2019-06-02T06:34:18Z</time>
      </trkpt>
      <trkpt lat="41.89467" lon="-8.62412">
        <ele>220.28</ele>
        <time>2019-06-02T06:34:33Z</time>
      </trkpt>
      <trkpt lat="41.89479" lon="-8.62411">
        <ele>218.84</ele>
        <time>2019-06-02T06:34:43Z</time>
      </trkpt>
      <trkpt lat="41.89494" lon="-8.62409">
        <ele>217.88</ele>
        <time>2019-06-02T06:34:56Z</time>
      </trkpt>
      <trkpt lat="41.89506" lon="-8.62408">
        <ele>217.88</ele>
        <time>2019-06-02T06:35:08Z</time>
      </trkpt>
      <trkpt lat="41.89512" lon="-8.62407">
        <ele>217.88</ele>
        <time>2019-06-02T06:35:12Z</time>
      </trkpt>
      <trkpt lat="41.89527" lon="-8.62413">
        <ele>216.91</ele>
        <time>2019-06-02T06:35:27Z</time>
      </trkpt>
      <trkpt lat="41.89541" lon="-8.62417">
        <ele>216.43</ele>
        <time>2019-06-02T06:35:39Z</time>
      </trkpt>
      <trkpt lat="41.89544" lon="-8.62418">
        <ele>216.43</ele>
        <time>2019-06-02T06:35:41Z</time>
      </trkpt>
      <trkpt lat="41.89567" lon="-8.62426">
        <ele>215.47</ele>
        <time>2019-06-02T06:35:58Z</time>
      </trkpt>
      <trkpt lat="41.89586" lon="-8.62434">
        <ele>214.03</ele>
        <time>2019-06-02T06:36:12Z</time>
      </trkpt>
      <trkpt lat="41.89596" lon="-8.62441">
        <ele>212.59</ele>
        <time>2019-06-02T06:36:25Z</time>
      </trkpt>
      <trkpt lat="41.89611" lon="-8.6245">
        <ele>210.67</ele>
        <time>2019-06-02T06:36:38Z</time>
      </trkpt>
      <trkpt lat="41.89623" lon="-8.62453">
        <ele>209.22</ele>
        <time>2019-06-02T06:36:51Z</time>
      </trkpt>
      <trkpt lat="41.89624" lon="-8.62454">
        <ele>209.22</ele>
        <time>2019-06-02T06:36:52Z</time>
      </trkpt>
      <trkpt lat="41.89638" lon="-8.62456">
        <ele>207.78</ele>
        <time>2019-06-02T06:37:06Z</time>
      </trkpt>
      <trkpt lat="41.89646" lon="-8.6246">
        <ele>206.34</ele>
        <time>2019-06-02T06:37:14Z</time>
      </trkpt>
      <trkpt lat="41.8966" lon="-8.62463">
        <ele>203.94</ele>
        <time>2019-06-02T06:37:26Z</time>
      </trkpt>
      <trkpt lat="41.89663" lon="-8.62463">
        <ele>203.46</ele>
        <time>2019-06-02T06:37:29Z</time>
      </trkpt>
      <trkpt lat="41.89667" lon="-8.62463">
        <ele>202.98</ele>
        <time>2019-06-02T06:37:33Z</time>
      </trkpt>
      <trkpt lat="41.89683" lon="-8.62463">
        <ele>201.53</ele>
        <time>2019-06-02T06:37:48Z</time>
      </trkpt>
      <trkpt lat="41.89704" lon="-8.62457">
        <ele>201.53</ele>
        <time>2019-06-02T06:38:02Z</time>
      </trkpt>
      <trkpt lat="41.8972" lon="-8.62451">
        <ele>202.01</ele>
        <time>2019-06-02T06:38:16Z</time>
      </trkpt>
      <trkpt lat="41.89737" lon="-8.62443">
        <ele>202.98</ele>
        <time>2019-06-02T06:38:29Z</time>
      </trkpt>
      <trkpt lat="41.89754" lon="-8.62434">
        <ele>202.98</ele>
        <time>2019-06-02T06:38:43Z</time>
      </trkpt>
      <trkpt lat="41.89771" lon="-8.62425">
        <ele>203.46</ele>
        <time>2019-06-02T06:38:56Z</time>
      </trkpt>
      <trkpt lat="41.89792" lon="-8.62419">
        <ele>201.53</ele>
        <time>2019-06-02T06:39:10Z</time>
      </trkpt>
      <trkpt lat="41.89806" lon="-8.62416">
        <ele>198.65</ele>
        <time>2019-06-02T06:39:22Z</time>
      </trkpt>
      <trkpt lat="41.89819" lon="-8.62412">
        <ele>196.73</ele>
        <time>2019-06-02T06:39:35Z</time>
      </trkpt>
      <trkpt lat="41.89827" lon="-8.62408">
        <ele>193.84</ele>
        <time>2019-06-02T06:39:47Z</time>
      </trkpt>
      <trkpt lat="41.89844" lon="-8.6241">
        <ele>191.44</ele>
        <time>2019-06-02T06:40:00Z</time>
      </trkpt>
      <trkpt lat="41.8985" lon="-8.62415">
        <ele>190.96</ele>
        <time>2019-06-02T06:40:11Z</time>
      </trkpt>
      <trkpt lat="41.89867" lon="-8.62415">
        <ele>188.56</ele>
        <time>2019-06-02T06:40:24Z</time>
      </trkpt>
      <trkpt lat="41.89882" lon="-8.62415">
        <ele>187.11</ele>
        <time>2019-06-02T06:40:36Z</time>
      </trkpt>
      <trkpt lat="41.89894" lon="-8.62415">
        <ele>186.63</ele>
        <time>2019-06-02T06:40:52Z</time>
      </trkpt>
      <trkpt lat="41.89911" lon="-8.62414">
        <ele>183.75</ele>
        <time>2019-06-02T06:41:06Z</time>
      </trkpt>
      <trkpt lat="41.8992" lon="-8.62416">
        <ele>182.79</ele>
        <time>2019-06-02T06:41:18Z</time>
      </trkpt>
      <trkpt lat="41.89937" lon="-8.62418">
        <ele>181.83</ele>
        <time>2019-06-02T06:41:31Z</time>
      </trkpt>
      <trkpt lat="41.89941" lon="-8.62419">
        <ele>181.35</ele>
        <time>2019-06-02T06:41:34Z</time>
      </trkpt>
      <trkpt lat="41.89955" lon="-8.62429">
        <ele>179.42</ele>
        <time>2019-06-02T06:41:47Z</time>
      </trkpt>
      <trkpt lat="41.89958" lon="-8.62439">
        <ele>178.94</ele>
        <time>2019-06-02T06:41:53Z</time>
      </trkpt>
      <trkpt lat="41.89955" lon="-8.62455">
        <ele>175.58</ele>
        <time>2019-06-02T06:42:08Z</time>
      </trkpt>
      <trkpt lat="41.89956" lon="-8.62456">
        <ele>176.54</ele>
        <time>2019-06-02T06:42:27Z</time>
      </trkpt>
      <trkpt lat="41.8996" lon="-8.62456">
        <ele>176.54</ele>
        <time>2019-06-02T06:43:02Z</time>
      </trkpt>
      <trkpt lat="41.89962" lon="-8.62456">
        <ele>176.06</ele>
        <time>2019-06-02T06:43:31Z</time>
      </trkpt>
      <trkpt lat="41.89961" lon="-8.62456">
        <ele>177.5</ele>
        <time>2019-06-02T06:43:56Z</time>
      </trkpt>
      <trkpt lat="41.8996" lon="-8.62456">
        <ele>177.98</ele>
        <time>2019-06-02T06:44:07Z</time>
      </trkpt>
      <trkpt lat="41.8996" lon="-8.62456">
        <ele>172.69</ele>
        <time>2019-06-02T06:44:16Z</time>
      </trkpt>
      <trkpt lat="41.8996" lon="-8.62457">
        <ele>172.69</ele>
        <time>2019-06-02T06:44:17Z</time>
      </trkpt>
      <trkpt lat="41.8996" lon="-8.62457">
        <ele>181.35</ele>
        <time>2019-06-02T06:44:18Z</time>
      </trkpt>
      <trkpt lat="41.8996" lon="-8.62457">
        <ele>180.87</ele>
        <time>2019-06-02T06:44:19Z</time>
      </trkpt>
      <trkpt lat="41.89959" lon="-8.62457">
        <ele>177.98</ele>
        <time>2019-06-02T06:44:21Z</time>
      </trkpt>
      <trkpt lat="41.89959" lon="-8.62459">
        <ele>177.5</ele>
        <time>2019-06-02T06:44:24Z</time>
      </trkpt>
      <trkpt lat="41.8998" lon="-8.6245">
        <ele>176.06</ele>
        <time>2019-06-02T06:44:39Z</time>
      </trkpt>
      <trkpt lat="41.89983" lon="-8.62448">
        <ele>176.54</ele>
        <time>2019-06-02T06:44:42Z</time>
      </trkpt>
      <trkpt lat="41.90005" lon="-8.62437">
        <ele>175.1</ele>
        <time>2019-06-02T06:44:59Z</time>
      </trkpt>
      <trkpt lat="41.90023" lon="-8.62423">
        <ele>174.62</ele>
        <time>2019-06-02T06:45:13Z</time>
      </trkpt>
      <trkpt lat="41.90043" lon="-8.62407">
        <ele>174.14</ele>
        <time>2019-06-02T06:45:29Z</time>
      </trkpt>
      <trkpt lat="41.9006" lon="-8.62385">
        <ele>172.69</ele>
        <time>2019-06-02T06:45:45Z</time>
      </trkpt>
      <trkpt lat="41.90062" lon="-8.62383">
        <ele>172.69</ele>
        <time>2019-06-02T06:45:47Z</time>
      </trkpt>
      <trkpt lat="41.90067" lon="-8.62376">
        <ele>172.69</ele>
        <time>2019-06-02T06:45:52Z</time>
      </trkpt>
      <trkpt lat="41.90076" lon="-8.62361">
        <ele>171.25</ele>
        <time>2019-06-02T06:46:02Z</time>
      </trkpt>
      <trkpt lat="41.90081" lon="-8.62354">
        <ele>171.25</ele>
        <time>2019-06-02T06:46:07Z</time>
      </trkpt>
      <trkpt lat="41.90095" lon="-8.62332">
        <ele>170.29</ele>
        <time>2019-06-02T06:46:22Z</time>
      </trkpt>
      <trkpt lat="41.9011" lon="-8.62313">
        <ele>168.85</ele>
        <time>2019-06-02T06:46:37Z</time>
      </trkpt>
      <trkpt lat="41.9013" lon="-8.62299">
        <ele>168.37</ele>
        <time>2019-06-02T06:46:53Z</time>
      </trkpt>
      <trkpt lat="41.90151" lon="-8.62291">
        <ele>166.93</ele>
        <time>2019-06-02T06:47:10Z</time>
      </trkpt>
      <trkpt lat="41.9017" lon="-8.6229">
        <ele>166.93</ele>
        <time>2019-06-02T06:47:25Z</time>
      </trkpt>
      <trkpt lat="41.9017" lon="-8.62291">
        <ele>166.45</ele>
        <time>2019-06-02T06:47:26Z</time>
      </trkpt>
      <trkpt lat="41.90161" lon="-8.62295">
        <ele>164.52</ele>
        <time>2019-06-02T06:47:34Z</time>
      </trkpt>
      <trkpt lat="41.90147" lon="-8.623">
        <ele>163.56</ele>
        <time>2019-06-02T06:47:45Z</time>
      </trkpt>
      <trkpt lat="41.90126" lon="-8.62311">
        <ele>164.52</ele>
        <time>2019-06-02T06:48:01Z</time>
      </trkpt>
      <trkpt lat="41.90107" lon="-8.62329">
        <ele>165</ele>
        <time>2019-06-02T06:48:18Z</time>
      </trkpt>
      <trkpt lat="41.90097" lon="-8.62345">
        <ele>164.04</ele>
        <time>2019-06-02T06:48:33Z</time>
      </trkpt>
      <trkpt lat="41.90096" lon="-8.62347">
        <ele>163.56</ele>
        <time>2019-06-02T06:48:34Z</time>
      </trkpt>
      <trkpt lat="41.90093" lon="-8.62371">
        <ele>162.12</ele>
        <time>2019-06-02T06:48:50Z</time>
      </trkpt>
      <trkpt lat="41.90088" lon="-8.62389">
        <ele>160.2</ele>
        <time>2019-06-02T06:49:03Z</time>
      </trkpt>
      <trkpt lat="41.90081" lon="-8.62416">
        <ele>158.27</ele>
        <time>2019-06-02T06:49:20Z</time>
      </trkpt>
      <trkpt lat="41.90077" lon="-8.62438">
        <ele>157.79</ele>
        <time>2019-06-02T06:49:33Z</time>
      </trkpt>
      <trkpt lat="41.90077" lon="-8.62444">
        <ele>157.31</ele>
        <time>2019-06-02T06:49:36Z</time>
      </trkpt>
      <trkpt lat="41.90085" lon="-8.62459">
        <ele>156.83</ele>
        <time>2019-06-02T06:49:49Z</time>
      </trkpt>
      <trkpt lat="41.90091" lon="-8.62464">
        <ele>154.91</ele>
        <time>2019-06-02T06:50:02Z</time>
      </trkpt>
      <trkpt lat="41.90099" lon="-8.62476">
        <ele>153.95</ele>
        <time>2019-06-02T06:50:15Z</time>
      </trkpt>
      <trkpt lat="41.90104" lon="-8.62481">
        <ele>153.95</ele>
        <time>2019-06-02T06:50:21Z</time>
      </trkpt>
      <trkpt lat="41.90124" lon="-8.62492">
        <ele>152.99</ele>
        <time>2019-06-02T06:50:36Z</time>
      </trkpt>
      <trkpt lat="41.90134" lon="-8.62498">
        <ele>152.99</ele>
        <time>2019-06-02T06:50:43Z</time>
      </trkpt>
      <trkpt lat="41.90141" lon="-8.62499">
        <ele>152.99</ele>
        <time>2019-06-02T06:50:47Z</time>
      </trkpt>
      <trkpt lat="41.9015" lon="-8.625">
        <ele>152.99</ele>
        <time>2019-06-02T06:50:53Z</time>
      </trkpt>
      <trkpt lat="41.90173" lon="-8.62495">
        <ele>151.06</ele>
        <time>2019-06-02T06:51:12Z</time>
      </trkpt>
      <trkpt lat="41.90192" lon="-8.62504">
        <ele>149.14</ele>
        <time>2019-06-02T06:51:28Z</time>
      </trkpt>
      <trkpt lat="41.90199" lon="-8.62506">
        <ele>148.66</ele>
        <time>2019-06-02T06:51:42Z</time>
      </trkpt>
      <trkpt lat="41.90215" lon="-8.62512">
        <ele>148.18</ele>
        <time>2019-06-02T06:51:57Z</time>
      </trkpt>
      <trkpt lat="41.90233" lon="-8.62513">
        <ele>147.7</ele>
        <time>2019-06-02T06:52:12Z</time>
      </trkpt>
      <trkpt lat="41.90254" lon="-8.62518">
        <ele>147.22</ele>
        <time>2019-06-02T06:52:28Z</time>
      </trkpt>
      <trkpt lat="41.90271" lon="-8.62523">
        <ele>147.7</ele>
        <time>2019-06-02T06:52:44Z</time>
      </trkpt>
      <trkpt lat="41.90288" lon="-8.62531">
        <ele>146.74</ele>
        <time>2019-06-02T06:52:59Z</time>
      </trkpt>
      <trkpt lat="41.90303" lon="-8.62539">
        <ele>146.74</ele>
        <time>2019-06-02T06:53:13Z</time>
      </trkpt>
      <trkpt lat="41.90324" lon="-8.62549">
        <ele>145.78</ele>
        <time>2019-06-02T06:53:29Z</time>
      </trkpt>
      <trkpt lat="41.90334" lon="-8.62553">
        <ele>144.82</ele>
        <time>2019-06-02T06:53:37Z</time>
      </trkpt>
      <trkpt lat="41.90351" lon="-8.62561">
        <ele>144.82</ele>
        <time>2019-06-02T06:53:53Z</time>
      </trkpt>
      <trkpt lat="41.9037" lon="-8.6257">
        <ele>144.82</ele>
        <time>2019-06-02T06:54:10Z</time>
      </trkpt>
      <trkpt lat="41.90382" lon="-8.62574">
        <ele>144.82</ele>
        <time>2019-06-02T06:54:26Z</time>
      </trkpt>
      <trkpt lat="41.90384" lon="-8.62577">
        <ele>144.34</ele>
        <time>2019-06-02T06:54:34Z</time>
      </trkpt>
      <trkpt lat="41.904" lon="-8.62598">
        <ele>143.85</ele>
        <time>2019-06-02T06:54:53Z</time>
      </trkpt>
      <trkpt lat="41.90411" lon="-8.62614">
        <ele>143.85</ele>
        <time>2019-06-02T06:55:05Z</time>
      </trkpt>
      <trkpt lat="41.90414" lon="-8.62631">
        <ele>145.78</ele>
        <time>2019-06-02T06:55:20Z</time>
      </trkpt>
      <trkpt lat="41.90416" lon="-8.62637">
        <ele>145.3</ele>
        <time>2019-06-02T06:55:33Z</time>
      </trkpt>
      <trkpt lat="41.90417" lon="-8.62642">
        <ele>145.3</ele>
        <time>2019-06-02T06:55:48Z</time>
      </trkpt>
      <trkpt lat="41.9042" lon="-8.62646">
        <ele>145.3</ele>
        <time>2019-06-02T06:56:07Z</time>
      </trkpt>
      <trkpt lat="41.90424" lon="-8.62657">
        <ele>145.78</ele>
        <time>2019-06-02T06:56:23Z</time>
      </trkpt>
      <trkpt lat="41.90435" lon="-8.6267">
        <ele>147.22</ele>
        <time>2019-06-02T06:56:37Z</time>
      </trkpt>
      <trkpt lat="41.90439" lon="-8.62669">
        <ele>147.22</ele>
        <time>2019-06-02T06:56:44Z</time>
      </trkpt>
      <trkpt lat="41.9045" lon="-8.62661">
        <ele>147.7</ele>
        <time>2019-06-02T06:56:57Z</time>
      </trkpt>
      <trkpt lat="41.90455" lon="-8.62658">
        <ele>147.7</ele>
        <time>2019-06-02T06:57:03Z</time>
      </trkpt>
      <trkpt lat="41.9048" lon="-8.62657">
        <ele>148.66</ele>
        <time>2019-06-02T06:57:21Z</time>
      </trkpt>
      <trkpt lat="41.90485" lon="-8.62658">
        <ele>148.66</ele>
        <time>2019-06-02T06:57:25Z</time>
      </trkpt>
      <trkpt lat="41.9049" lon="-8.62661">
        <ele>149.14</ele>
        <time>2019-06-02T06:57:29Z</time>
      </trkpt>
      <trkpt lat="41.90508" lon="-8.62664">
        <ele>148.66</ele>
        <time>2019-06-02T06:57:44Z</time>
      </trkpt>
      <trkpt lat="41.9052" lon="-8.62666">
        <ele>149.14</ele>
        <time>2019-06-02T06:57:53Z</time>
      </trkpt>
      <trkpt lat="41.90524" lon="-8.62667">
        <ele>149.14</ele>
        <time>2019-06-02T06:57:56Z</time>
      </trkpt>
      <trkpt lat="41.90542" lon="-8.62665">
        <ele>149.14</ele>
        <time>2019-06-02T06:58:10Z</time>
      </trkpt>
      <trkpt lat="41.90544" lon="-8.62665">
        <ele>149.14</ele>
        <time>2019-06-02T06:58:21Z</time>
      </trkpt>
      <trkpt lat="41.90546" lon="-8.62665">
        <ele>149.14</ele>
        <time>2019-06-02T06:58:42Z</time>
      </trkpt>
      <trkpt lat="41.90562" lon="-8.62664">
        <ele>149.62</ele>
        <time>2019-06-02T06:58:56Z</time>
      </trkpt>
      <trkpt lat="41.9058" lon="-8.62659">
        <ele>150.58</ele>
        <time>2019-06-02T06:59:11Z</time>
      </trkpt>
      <trkpt lat="41.90599" lon="-8.62657">
        <ele>151.54</ele>
        <time>2019-06-02T06:59:26Z</time>
      </trkpt>
      <trkpt lat="41.90603" lon="-8.62658">
        <ele>151.54</ele>
        <time>2019-06-02T06:59:30Z</time>
      </trkpt>
      <trkpt lat="41.9061" lon="-8.62659">
        <ele>152.03</ele>
        <time>2019-06-02T06:59:36Z</time>
      </trkpt>
      <trkpt lat="41.90621" lon="-8.62663">
        <ele>153.47</ele>
        <time>2019-06-02T06:59:47Z</time>
      </trkpt>
      <trkpt lat="41.90632" lon="-8.62675">
        <ele>153.95</ele>
        <time>2019-06-02T07:00:02Z</time>
      </trkpt>
      <trkpt lat="41.90632" lon="-8.62676">
        <ele>153.95</ele>
        <time>2019-06-02T07:00:20Z</time>
      </trkpt>
      <trkpt lat="41.90634" lon="-8.62676">
        <ele>153.95</ele>
        <time>2019-06-02T07:00:45Z</time>
      </trkpt>
      <trkpt lat="41.90651" lon="-8.6267">
        <ele>153.47</ele>
        <time>2019-06-02T07:01:01Z</time>
      </trkpt>
      <trkpt lat="41.90662" lon="-8.62666">
        <ele>152.99</ele>
        <time>2019-06-02T07:01:12Z</time>
      </trkpt>
      <trkpt lat="41.9068" lon="-8.62665">
        <ele>152.51</ele>
        <time>2019-06-02T07:01:25Z</time>
      </trkpt>
      <trkpt lat="41.90703" lon="-8.62662">
        <ele>152.51</ele>
        <time>2019-06-02T07:01:41Z</time>
      </trkpt>
      <trkpt lat="41.9071" lon="-8.62663">
        <ele>152.03</ele>
        <time>2019-06-02T07:01:53Z</time>
      </trkpt>
      <trkpt lat="41.90723" lon="-8.62668">
        <ele>151.54</ele>
        <time>2019-06-02T07:02:06Z</time>
      </trkpt>
      <trkpt lat="41.90741" lon="-8.62683">
        <ele>150.58</ele>
        <time>2019-06-02T07:02:21Z</time>
      </trkpt>
      <trkpt lat="41.90757" lon="-8.62694">
        <ele>149.62</ele>
        <time>2019-06-02T07:02:34Z</time>
      </trkpt>
      <trkpt lat="41.90763" lon="-8.62698">
        <ele>150.1</ele>
        <time>2019-06-02T07:02:39Z</time>
      </trkpt>
      <trkpt lat="41.90766" lon="-8.627">
        <ele>150.1</ele>
        <time>2019-06-02T07:02:42Z</time>
      </trkpt>
      <trkpt lat="41.90778" lon="-8.62704">
        <ele>149.62</ele>
        <time>2019-06-02T07:02:56Z</time>
      </trkpt>
      <trkpt lat="41.90785" lon="-8.62704">
        <ele>149.62</ele>
        <time>2019-06-02T07:03:09Z</time>
      </trkpt>
      <trkpt lat="41.90788" lon="-8.62706">
        <ele>150.1</ele>
        <time>2019-06-02T07:03:21Z</time>
      </trkpt>
      <trkpt lat="41.908" lon="-8.62706">
        <ele>150.1</ele>
        <time>2019-06-02T07:03:35Z</time>
      </trkpt>
      <trkpt lat="41.90807" lon="-8.62702">
        <ele>150.58</ele>
        <time>2019-06-02T07:03:48Z</time>
      </trkpt>
      <trkpt lat="41.90807" lon="-8.62703">
        <ele>149.62</ele>
        <time>2019-06-02T07:03:50Z</time>
      </trkpt>
      <trkpt lat="41.90823" lon="-8.62704">
        <ele>150.1</ele>
        <time>2019-06-02T07:04:05Z</time>
      </trkpt>
      <trkpt lat="41.90837" lon="-8.62692">
        <ele>151.06</ele>
        <time>2019-06-02T07:04:20Z</time>
      </trkpt>
      <trkpt lat="41.90838" lon="-8.62689">
        <ele>151.54</ele>
        <time>2019-06-02T07:04:37Z</time>
      </trkpt>
      <trkpt lat="41.90841" lon="-8.62683">
        <ele>152.03</ele>
        <time>2019-06-02T07:05:04Z</time>
      </trkpt>
      <trkpt lat="41.90852" lon="-8.62676">
        <ele>152.51</ele>
        <time>2019-06-02T07:05:15Z</time>
      </trkpt>
      <trkpt lat="41.90853" lon="-8.62674">
        <ele>152.99</ele>
        <time>2019-06-02T07:05:17Z</time>
      </trkpt>
      <trkpt lat="41.90867" lon="-8.62661">
        <ele>153.47</ele>
        <time>2019-06-02T07:05:30Z</time>
      </trkpt>
      <trkpt lat="41.9088" lon="-8.62649">
        <ele>154.43</ele>
        <time>2019-06-02T07:05:44Z</time>
      </trkpt>
      <trkpt lat="41.90894" lon="-8.62639">
        <ele>156.35</ele>
        <time>2019-06-02T07:05:58Z</time>
      </trkpt>
      <trkpt lat="41.90912" lon="-8.62632">
        <ele>156.35</ele>
        <time>2019-06-02T07:06:13Z</time>
      </trkpt>
      <trkpt lat="41.90927" lon="-8.62632">
        <ele>157.79</ele>
        <time>2019-06-02T07:06:25Z</time>
      </trkpt>
      <trkpt lat="41.90935" lon="-8.62632">
        <ele>157.79</ele>
        <time>2019-06-02T07:06:32Z</time>
      </trkpt>
      <trkpt lat="41.90946" lon="-8.62628">
        <ele>158.75</ele>
        <time>2019-06-02T07:06:43Z</time>
      </trkpt>
      <trkpt lat="41.90958" lon="-8.62618">
        <ele>160.2</ele>
        <time>2019-06-02T07:06:57Z</time>
      </trkpt>
      <trkpt lat="41.90972" lon="-8.62608">
        <ele>161.16</ele>
        <time>2019-06-02T07:07:13Z</time>
      </trkpt>
      <trkpt lat="41.90983" lon="-8.62603">
        <ele>161.64</ele>
        <time>2019-06-02T07:07:20Z</time>
      </trkpt>
      <trkpt lat="41.90987" lon="-8.62602">
        <ele>161.64</ele>
        <time>2019-06-02T07:07:22Z</time>
      </trkpt>
      <trkpt lat="41.90989" lon="-8.62602">
        <ele>161.64</ele>
        <time>2019-06-02T07:07:24Z</time>
      </trkpt>
      <trkpt lat="41.91008" lon="-8.626">
        <ele>162.12</ele>
        <time>2019-06-02T07:07:39Z</time>
      </trkpt>
      <trkpt lat="41.91024" lon="-8.62601">
        <ele>165</ele>
        <time>2019-06-02T07:07:56Z</time>
      </trkpt>
      <trkpt lat="41.9104" lon="-8.62606">
        <ele>165.96</ele>
        <time>2019-06-02T07:08:11Z</time>
      </trkpt>
      <trkpt lat="41.91051" lon="-8.62605">
        <ele>167.89</ele>
        <time>2019-06-02T07:08:24Z</time>
      </trkpt>
      <trkpt lat="41.91065" lon="-8.62604">
        <ele>170.29</ele>
        <time>2019-06-02T07:08:39Z</time>
      </trkpt>
      <trkpt lat="41.91074" lon="-8.62603">
        <ele>171.25</ele>
        <time>2019-06-02T07:08:52Z</time>
      </trkpt>
      <trkpt lat="41.91084" lon="-8.62605">
        <ele>173.66</ele>
        <time>2019-06-02T07:09:05Z</time>
      </trkpt>
      <trkpt lat="41.9109" lon="-8.62607">
        <ele>175.58</ele>
        <time>2019-06-02T07:09:17Z</time>
      </trkpt>
      <trkpt lat="41.91099" lon="-8.62609">
        <ele>177.02</ele>
        <time>2019-06-02T07:09:31Z</time>
      </trkpt>
      <trkpt lat="41.91107" lon="-8.62616">
        <ele>180.38</ele>
        <time>2019-06-02T07:09:43Z</time>
      </trkpt>
      <trkpt lat="41.91109" lon="-8.62619">
        <ele>180.38</ele>
        <time>2019-06-02T07:09:49Z</time>
      </trkpt>
      <trkpt lat="41.91112" lon="-8.6262">
        <ele>180.38</ele>
        <time>2019-06-02T07:09:52Z</time>
      </trkpt>
      <trkpt lat="41.91125" lon="-8.62624">
        <ele>180.87</ele>
        <time>2019-06-02T07:10:05Z</time>
      </trkpt>
      <trkpt lat="41.91136" lon="-8.62625">
        <ele>181.83</ele>
        <time>2019-06-02T07:10:12Z</time>
      </trkpt>
      <trkpt lat="41.91139" lon="-8.62626">
        <ele>181.35</ele>
        <time>2019-06-02T07:10:15Z</time>
      </trkpt>
      <trkpt lat="41.91144" lon="-8.62628">
        <ele>182.31</ele>
        <time>2019-06-02T07:10:19Z</time>
      </trkpt>
      <trkpt lat="41.91152" lon="-8.62632">
        <ele>181.83</ele>
        <time>2019-06-02T07:10:27Z</time>
      </trkpt>
      <trkpt lat="41.91167" lon="-8.62641">
        <ele>183.27</ele>
        <time>2019-06-02T07:10:40Z</time>
      </trkpt>
      <trkpt lat="41.91183" lon="-8.62652">
        <ele>183.75</ele>
        <time>2019-06-02T07:10:53Z</time>
      </trkpt>
      <trkpt lat="41.912" lon="-8.62662">
        <ele>184.23</ele>
        <time>2019-06-02T07:11:07Z</time>
      </trkpt>
      <trkpt lat="41.91216" lon="-8.62673">
        <ele>185.19</ele>
        <time>2019-06-02T07:11:21Z</time>
      </trkpt>
      <trkpt lat="41.91217" lon="-8.62675">
        <ele>184.71</ele>
        <time>2019-06-02T07:11:23Z</time>
      </trkpt>
      <trkpt lat="41.91229" lon="-8.62687">
        <ele>184.71</ele>
        <time>2019-06-02T07:11:35Z</time>
      </trkpt>
      <trkpt lat="41.91243" lon="-8.62701">
        <ele>185.67</ele>
        <time>2019-06-02T07:11:49Z</time>
      </trkpt>
      <trkpt lat="41.91256" lon="-8.62713">
        <ele>185.19</ele>
        <time>2019-06-02T07:12:02Z</time>
      </trkpt>
      <trkpt lat="41.9127" lon="-8.62728">
        <ele>186.15</ele>
        <time>2019-06-02T07:12:16Z</time>
      </trkpt>
      <trkpt lat="41.91287" lon="-8.62743">
        <ele>187.59</ele>
        <time>2019-06-02T07:12:33Z</time>
      </trkpt>
      <trkpt lat="41.91296" lon="-8.62747">
        <ele>187.59</ele>
        <time>2019-06-02T07:12:47Z</time>
      </trkpt>
      <trkpt lat="41.91304" lon="-8.6275">
        <ele>187.59</ele>
        <time>2019-06-02T07:13:04Z</time>
      </trkpt>
      <trkpt lat="41.91308" lon="-8.62748">
        <ele>187.59</ele>
        <time>2019-06-02T07:13:15Z</time>
      </trkpt>
      <trkpt lat="41.9131" lon="-8.62746">
        <ele>187.11</ele>
        <time>2019-06-02T07:13:19Z</time>
      </trkpt>
      <trkpt lat="41.91323" lon="-8.62746">
        <ele>185.67</ele>
        <time>2019-06-02T07:13:31Z</time>
      </trkpt>
      <trkpt lat="41.91331" lon="-8.62742">
        <ele>186.15</ele>
        <time>2019-06-02T07:13:40Z</time>
      </trkpt>
      <trkpt lat="41.91351" lon="-8.62741">
        <ele>185.19</ele>
        <time>2019-06-02T07:13:53Z</time>
      </trkpt>
      <trkpt lat="41.91364" lon="-8.62737">
        <ele>185.67</ele>
        <time>2019-06-02T07:14:04Z</time>
      </trkpt>
      <trkpt lat="41.91381" lon="-8.62737">
        <ele>185.19</ele>
        <time>2019-06-02T07:14:16Z</time>
      </trkpt>
      <trkpt lat="41.914" lon="-8.62736">
        <ele>185.67</ele>
        <time>2019-06-02T07:14:30Z</time>
      </trkpt>
      <trkpt lat="41.91416" lon="-8.62736">
        <ele>186.15</ele>
        <time>2019-06-02T07:14:42Z</time>
      </trkpt>
      <trkpt lat="41.91428" lon="-8.62732">
        <ele>186.63</ele>
        <time>2019-06-02T07:14:56Z</time>
      </trkpt>
      <trkpt lat="41.91433" lon="-8.62727">
        <ele>185.67</ele>
        <time>2019-06-02T07:15:08Z</time>
      </trkpt>
      <trkpt lat="41.9145" lon="-8.62728">
        <ele>185.19</ele>
        <time>2019-06-02T07:15:20Z</time>
      </trkpt>
      <trkpt lat="41.91466" lon="-8.62727">
        <ele>184.71</ele>
        <time>2019-06-02T07:15:31Z</time>
      </trkpt>
      <trkpt lat="41.91487" lon="-8.62725">
        <ele>183.27</ele>
        <time>2019-06-02T07:15:43Z</time>
      </trkpt>
      <trkpt lat="41.91497" lon="-8.62717">
        <ele>182.79</ele>
        <time>2019-06-02T07:15:51Z</time>
      </trkpt>
      <trkpt lat="41.91515" lon="-8.62722">
        <ele>183.27</ele>
        <time>2019-06-02T07:16:06Z</time>
      </trkpt>
      <trkpt lat="41.91533" lon="-8.62732">
        <ele>186.15</ele>
        <time>2019-06-02T07:16:20Z</time>
      </trkpt>
      <trkpt lat="41.91544" lon="-8.62736">
        <ele>187.59</ele>
        <time>2019-06-02T07:16:32Z</time>
      </trkpt>
      <trkpt lat="41.91556" lon="-8.62741">
        <ele>188.56</ele>
        <time>2019-06-02T07:16:45Z</time>
      </trkpt>
      <trkpt lat="41.91572" lon="-8.62746">
        <ele>190.48</ele>
        <time>2019-06-02T07:16:58Z</time>
      </trkpt>
      <trkpt lat="41.91583" lon="-8.62751">
        <ele>192.4</ele>
        <time>2019-06-02T07:17:09Z</time>
      </trkpt>
      <trkpt lat="41.91597" lon="-8.62753">
        <ele>192.88</ele>
        <time>2019-06-02T07:17:22Z</time>
      </trkpt>
      <trkpt lat="41.91617" lon="-8.62754">
        <ele>194.32</ele>
        <time>2019-06-02T07:17:37Z</time>
      </trkpt>
      <trkpt lat="41.91623" lon="-8.62754">
        <ele>193.84</ele>
        <time>2019-06-02T07:17:42Z</time>
      </trkpt>
      <trkpt lat="41.91636" lon="-8.62752">
        <ele>193.36</ele>
        <time>2019-06-02T07:17:55Z</time>
      </trkpt>
      <trkpt lat="41.9164" lon="-8.62753">
        <ele>193.36</ele>
        <time>2019-06-02T07:17:58Z</time>
      </trkpt>
      <trkpt lat="41.91661" lon="-8.62765">
        <ele>193.36</ele>
        <time>2019-06-02T07:18:12Z</time>
      </trkpt>
      <trkpt lat="41.91679" lon="-8.62776">
        <ele>193.84</ele>
        <time>2019-06-02T07:18:27Z</time>
      </trkpt>
      <trkpt lat="41.91688" lon="-8.62781">
        <ele>193.84</ele>
        <time>2019-06-02T07:18:37Z</time>
      </trkpt>
      <trkpt lat="41.91704" lon="-8.62784">
        <ele>193.84</ele>
        <time>2019-06-02T07:18:51Z</time>
      </trkpt>
      <trkpt lat="41.91714" lon="-8.62786">
        <ele>193.84</ele>
        <time>2019-06-02T07:19:00Z</time>
      </trkpt>
      <trkpt lat="41.91716" lon="-8.62786">
        <ele>194.32</ele>
        <time>2019-06-02T07:19:02Z</time>
      </trkpt>
      <trkpt lat="41.91731" lon="-8.62791">
        <ele>194.8</ele>
        <time>2019-06-02T07:19:14Z</time>
      </trkpt>
      <trkpt lat="41.9175" lon="-8.62796">
        <ele>195.28</ele>
        <time>2019-06-02T07:19:29Z</time>
      </trkpt>
      <trkpt lat="41.91752" lon="-8.62797">
        <ele>195.77</ele>
        <time>2019-06-02T07:19:31Z</time>
      </trkpt>
      <trkpt lat="41.9177" lon="-8.62806">
        <ele>197.21</ele>
        <time>2019-06-02T07:19:46Z</time>
      </trkpt>
      <trkpt lat="41.91773" lon="-8.62808">
        <ele>197.21</ele>
        <time>2019-06-02T07:19:49Z</time>
      </trkpt>
      <trkpt lat="41.91785" lon="-8.6281">
        <ele>197.69</ele>
        <time>2019-06-02T07:20:00Z</time>
      </trkpt>
      <trkpt lat="41.91808" lon="-8.62815">
        <ele>197.69</ele>
        <time>2019-06-02T07:20:16Z</time>
      </trkpt>
      <trkpt lat="41.91812" lon="-8.62816">
        <ele>197.69</ele>
        <time>2019-06-02T07:20:18Z</time>
      </trkpt>
      <trkpt lat="41.91827" lon="-8.62817">
        <ele>198.17</ele>
        <time>2019-06-02T07:20:32Z</time>
      </trkpt>
      <trkpt lat="41.91838" lon="-8.62819">
        <ele>198.65</ele>
        <time>2019-06-02T07:20:41Z</time>
      </trkpt>
      <trkpt lat="41.91846" lon="-8.6282">
        <ele>198.65</ele>
        <time>2019-06-02T07:20:48Z</time>
      </trkpt>
      <trkpt lat="41.9187" lon="-8.62823">
        <ele>198.17</ele>
        <time>2019-06-02T07:21:05Z</time>
      </trkpt>
      <trkpt lat="41.91888" lon="-8.62829">
        <ele>198.65</ele>
        <time>2019-06-02T07:21:19Z</time>
      </trkpt>
      <trkpt lat="41.91892" lon="-8.6283">
        <ele>198.65</ele>
        <time>2019-06-02T07:21:22Z</time>
      </trkpt>
      <trkpt lat="41.91894" lon="-8.62831">
        <ele>199.13</ele>
        <time>2019-06-02T07:21:24Z</time>
      </trkpt>
      <trkpt lat="41.91911" lon="-8.62841">
        <ele>199.61</ele>
        <time>2019-06-02T07:21:39Z</time>
      </trkpt>
      <trkpt lat="41.91927" lon="-8.62849">
        <ele>200.09</ele>
        <time>2019-06-02T07:21:54Z</time>
      </trkpt>
      <trkpt lat="41.91941" lon="-8.62859">
        <ele>200.09</ele>
        <time>2019-06-02T07:22:05Z</time>
      </trkpt>
      <trkpt lat="41.9196" lon="-8.62868">
        <ele>201.05</ele>
        <time>2019-06-02T07:22:22Z</time>
      </trkpt>
      <trkpt lat="41.91963" lon="-8.62868">
        <ele>201.53</ele>
        <time>2019-06-02T07:22:37Z</time>
      </trkpt>
      <trkpt lat="41.91965" lon="-8.62862">
        <ele>201.05</ele>
        <time>2019-06-02T07:22:53Z</time>
      </trkpt>
      <trkpt lat="41.9196" lon="-8.62864">
        <ele>201.53</ele>
        <time>2019-06-02T07:23:22Z</time>
      </trkpt>
      <trkpt lat="41.91958" lon="-8.62867">
        <ele>201.05</ele>
        <time>2019-06-02T07:23:36Z</time>
      </trkpt>
      <trkpt lat="41.91956" lon="-8.62872">
        <ele>201.53</ele>
        <time>2019-06-02T07:23:54Z</time>
      </trkpt>
      <trkpt lat="41.91962" lon="-8.62871">
        <ele>201.53</ele>
        <time>2019-06-02T07:24:30Z</time>
      </trkpt>
      <trkpt lat="41.91976" lon="-8.6287">
        <ele>200.57</ele>
        <time>2019-06-02T07:24:43Z</time>
      </trkpt>
      <trkpt lat="41.91993" lon="-8.62867">
        <ele>200.09</ele>
        <time>2019-06-02T07:24:56Z</time>
      </trkpt>
      <trkpt lat="41.92008" lon="-8.62861">
        <ele>199.13</ele>
        <time>2019-06-02T07:25:08Z</time>
      </trkpt>
      <trkpt lat="41.92032" lon="-8.62862">
        <ele>198.17</ele>
        <time>2019-06-02T07:25:25Z</time>
      </trkpt>
      <trkpt lat="41.92048" lon="-8.62865">
        <ele>198.17</ele>
        <time>2019-06-02T07:25:39Z</time>
      </trkpt>
      <trkpt lat="41.92053" lon="-8.62868">
        <ele>198.17</ele>
        <time>2019-06-02T07:25:48Z</time>
      </trkpt>
      <trkpt lat="41.92068" lon="-8.62873">
        <ele>198.65</ele>
        <time>2019-06-02T07:26:01Z</time>
      </trkpt>
      <trkpt lat="41.92081" lon="-8.62871">
        <ele>199.61</ele>
        <time>2019-06-02T07:26:14Z</time>
      </trkpt>
      <trkpt lat="41.92086" lon="-8.62868">
        <ele>199.61</ele>
        <time>2019-06-02T07:26:18Z</time>
      </trkpt>
      <trkpt lat="41.92095" lon="-8.62863">
        <ele>199.61</ele>
        <time>2019-06-02T07:26:24Z</time>
      </trkpt>
      <trkpt lat="41.9211" lon="-8.62856">
        <ele>201.53</ele>
        <time>2019-06-02T07:26:38Z</time>
      </trkpt>
      <trkpt lat="41.92123" lon="-8.6284">
        <ele>203.46</ele>
        <time>2019-06-02T07:26:53Z</time>
      </trkpt>
      <trkpt lat="41.92133" lon="-8.62827">
        <ele>203.94</ele>
        <time>2019-06-02T07:27:07Z</time>
      </trkpt>
      <trkpt lat="41.92144" lon="-8.62816">
        <ele>204.42</ele>
        <time>2019-06-02T07:27:21Z</time>
      </trkpt>
      <trkpt lat="41.92145" lon="-8.62815">
        <ele>204.42</ele>
        <time>2019-06-02T07:27:22Z</time>
      </trkpt>
      <trkpt lat="41.92162" lon="-8.62802">
        <ele>204.9</ele>
        <time>2019-06-02T07:27:37Z</time>
      </trkpt>
      <trkpt lat="41.9217" lon="-8.62799">
        <ele>205.38</ele>
        <time>2019-06-02T07:27:43Z</time>
      </trkpt>
      <trkpt lat="41.92187" lon="-8.62801">
        <ele>205.38</ele>
        <time>2019-06-02T07:27:56Z</time>
      </trkpt>
      <trkpt lat="41.92196" lon="-8.62802">
        <ele>205.86</ele>
        <time>2019-06-02T07:28:07Z</time>
      </trkpt>
      <trkpt lat="41.92204" lon="-8.62802">
        <ele>206.82</ele>
        <time>2019-06-02T07:28:14Z</time>
      </trkpt>
      <trkpt lat="41.92206" lon="-8.62802">
        <ele>207.3</ele>
        <time>2019-06-02T07:28:16Z</time>
      </trkpt>
      <trkpt lat="41.92211" lon="-8.62801">
        <ele>207.78</ele>
        <time>2019-06-02T07:28:21Z</time>
      </trkpt>
      <trkpt lat="41.92223" lon="-8.62801">
        <ele>209.7</ele>
        <time>2019-06-02T07:28:34Z</time>
      </trkpt>
      <trkpt lat="41.92224" lon="-8.628">
        <ele>209.7</ele>
        <time>2019-06-02T07:28:39Z</time>
      </trkpt>
      <trkpt lat="41.92226" lon="-8.62799">
        <ele>210.19</ele>
        <time>2019-06-02T07:28:41Z</time>
      </trkpt>
      <trkpt lat="41.92234" lon="-8.62797">
        <ele>210.19</ele>
        <time>2019-06-02T07:28:49Z</time>
      </trkpt>
      <trkpt lat="41.92251" lon="-8.62805">
        <ele>210.67</ele>
        <time>2019-06-02T07:29:04Z</time>
      </trkpt>
      <trkpt lat="41.92263" lon="-8.62813">
        <ele>211.15</ele>
        <time>2019-06-02T07:29:19Z</time>
      </trkpt>
      <trkpt lat="41.92274" lon="-8.62822">
        <ele>212.59</ele>
        <time>2019-06-02T07:29:32Z</time>
      </trkpt>
      <trkpt lat="41.92292" lon="-8.62827">
        <ele>214.03</ele>
        <time>2019-06-02T07:29:49Z</time>
      </trkpt>
      <trkpt lat="41.92305" lon="-8.62831">
        <ele>214.99</ele>
        <time>2019-06-02T07:30:03Z</time>
      </trkpt>
      <trkpt lat="41.92307" lon="-8.62831">
        <ele>215.47</ele>
        <time>2019-06-02T07:30:05Z</time>
      </trkpt>
      <trkpt lat="41.92325" lon="-8.6283">
        <ele>216.43</ele>
        <time>2019-06-02T07:30:19Z</time>
      </trkpt>
      <trkpt lat="41.92336" lon="-8.62829">
        <ele>217.4</ele>
        <time>2019-06-02T07:30:33Z</time>
      </trkpt>
      <trkpt lat="41.92342" lon="-8.6283">
        <ele>218.36</ele>
        <time>2019-06-02T07:30:43Z</time>
      </trkpt>
      <trkpt lat="41.92355" lon="-8.62829">
        <ele>220.28</ele>
        <time>2019-06-02T07:30:56Z</time>
      </trkpt>
      <trkpt lat="41.92371" lon="-8.62826">
        <ele>222.2</ele>
        <time>2019-06-02T07:31:11Z</time>
      </trkpt>
      <trkpt lat="41.92387" lon="-8.62817">
        <ele>223.16</ele>
        <time>2019-06-02T07:31:25Z</time>
      </trkpt>
      <trkpt lat="41.92391" lon="-8.62814">
        <ele>223.16</ele>
        <time>2019-06-02T07:31:29Z</time>
      </trkpt>
      <trkpt lat="41.92411" lon="-8.62818">
        <ele>223.16</ele>
        <time>2019-06-02T07:31:43Z</time>
      </trkpt>
      <trkpt lat="41.92433" lon="-8.62824">
        <ele>222.68</ele>
        <time>2019-06-02T07:32:00Z</time>
      </trkpt>
      <trkpt lat="41.92455" lon="-8.62832">
        <ele>223.16</ele>
        <time>2019-06-02T07:32:17Z</time>
      </trkpt>
      <trkpt lat="41.9246" lon="-8.62833">
        <ele>223.16</ele>
        <time>2019-06-02T07:32:21Z</time>
      </trkpt>
      <trkpt lat="41.92482" lon="-8.62843">
        <ele>223.16</ele>
        <time>2019-06-02T07:32:40Z</time>
      </trkpt>
      <trkpt lat="41.9249" lon="-8.62848">
        <ele>223.64</ele>
        <time>2019-06-02T07:32:51Z</time>
      </trkpt>
      <trkpt lat="41.92507" lon="-8.62856">
        <ele>224.12</ele>
        <time>2019-06-02T07:33:06Z</time>
      </trkpt>
      <trkpt lat="41.92514" lon="-8.62859">
        <ele>224.12</ele>
        <time>2019-06-02T07:33:13Z</time>
      </trkpt>
      <trkpt lat="41.92532" lon="-8.62867">
        <ele>226.05</ele>
        <time>2019-06-02T07:33:29Z</time>
      </trkpt>
      <trkpt lat="41.92547" lon="-8.62868">
        <ele>227.01</ele>
        <time>2019-06-02T07:33:43Z</time>
      </trkpt>
      <trkpt lat="41.9255" lon="-8.62848">
        <ele>228.45</ele>
        <time>2019-06-02T07:33:58Z</time>
      </trkpt>
      <trkpt lat="41.92554" lon="-8.62831">
        <ele>230.37</ele>
        <time>2019-06-02T07:34:11Z</time>
      </trkpt>
      <trkpt lat="41.92562" lon="-8.6281">
        <ele>231.33</ele>
        <time>2019-06-02T07:34:28Z</time>
      </trkpt>
      <trkpt lat="41.92573" lon="-8.62793">
        <ele>233.26</ele>
        <time>2019-06-02T07:34:43Z</time>
      </trkpt>
      <trkpt lat="41.92577" lon="-8.62785">
        <ele>233.26</ele>
        <time>2019-06-02T07:34:49Z</time>
      </trkpt>
      <trkpt lat="41.92581" lon="-8.6277">
        <ele>235.18</ele>
        <time>2019-06-02T07:35:00Z</time>
      </trkpt>
      <trkpt lat="41.92581" lon="-8.62753">
        <ele>236.14</ele>
        <time>2019-06-02T07:35:12Z</time>
      </trkpt>
      <trkpt lat="41.92578" lon="-8.62738">
        <ele>236.62</ele>
        <time>2019-06-02T07:35:22Z</time>
      </trkpt>
      <trkpt lat="41.92565" lon="-8.62718">
        <ele>238.06</ele>
        <time>2019-06-02T07:35:38Z</time>
      </trkpt>
      <trkpt lat="41.92562" lon="-8.62713">
        <ele>238.06</ele>
        <time>2019-06-02T07:35:42Z</time>
      </trkpt>
      <trkpt lat="41.92558" lon="-8.62698">
        <ele>238.06</ele>
        <time>2019-06-02T07:35:54Z</time>
      </trkpt>
      <trkpt lat="41.92562" lon="-8.62686">
        <ele>239.51</ele>
        <time>2019-06-02T07:36:03Z</time>
      </trkpt>
      <trkpt lat="41.92569" lon="-8.62673">
        <ele>241.43</ele>
        <time>2019-06-02T07:36:15Z</time>
      </trkpt>
      <trkpt lat="41.92579" lon="-8.62668">
        <ele>242.39</ele>
        <time>2019-06-02T07:36:26Z</time>
      </trkpt>
      <trkpt lat="41.92594" lon="-8.62665">
        <ele>243.83</ele>
        <time>2019-06-02T07:36:43Z</time>
      </trkpt>
      <trkpt lat="41.92601" lon="-8.62669">
        <ele>244.31</ele>
        <time>2019-06-02T07:36:51Z</time>
      </trkpt>
      <trkpt lat="41.92619" lon="-8.62672">
        <ele>245.27</ele>
        <time>2019-06-02T07:37:05Z</time>
      </trkpt>
      <trkpt lat="41.92635" lon="-8.62671">
        <ele>246.23</ele>
        <time>2019-06-02T07:37:17Z</time>
      </trkpt>
      <trkpt lat="41.9265" lon="-8.62668">
        <ele>246.72</ele>
        <time>2019-06-02T07:37:31Z</time>
      </trkpt>
      <trkpt lat="41.92656" lon="-8.62667">
        <ele>247.2</ele>
        <time>2019-06-02T07:37:36Z</time>
      </trkpt>
      <trkpt lat="41.92658" lon="-8.62667">
        <ele>247.2</ele>
        <time>2019-06-02T07:37:38Z</time>
      </trkpt>
      <trkpt lat="41.92672" lon="-8.62664">
        <ele>248.64</ele>
        <time>2019-06-02T07:37:52Z</time>
      </trkpt>
      <trkpt lat="41.92676" lon="-8.62667">
        <ele>248.16</ele>
        <time>2019-06-02T07:38:15Z</time>
      </trkpt>
      <trkpt lat="41.92683" lon="-8.62666">
        <ele>248.16</ele>
        <time>2019-06-02T07:38:23Z</time>
      </trkpt>
      <trkpt lat="41.92686" lon="-8.62668">
        <ele>249.12</ele>
        <time>2019-06-02T07:38:26Z</time>
      </trkpt>
      <trkpt lat="41.92694" lon="-8.62669">
        <ele>248.16</ele>
        <time>2019-06-02T07:38:40Z</time>
      </trkpt>
      <trkpt lat="41.92694" lon="-8.62672">
        <ele>249.12</ele>
        <time>2019-06-02T07:38:52Z</time>
      </trkpt>
      <trkpt lat="41.92712" lon="-8.62678">
        <ele>249.12</ele>
        <time>2019-06-02T07:39:09Z</time>
      </trkpt>
      <trkpt lat="41.92713" lon="-8.62679">
        <ele>249.6</ele>
        <time>2019-06-02T07:39:10Z</time>
      </trkpt>
      <trkpt lat="41.92718" lon="-8.62679">
        <ele>249.12</ele>
        <time>2019-06-02T07:39:14Z</time>
      </trkpt>
      <trkpt lat="41.92724" lon="-8.62678">
        <ele>250.08</ele>
        <time>2019-06-02T07:39:19Z</time>
      </trkpt>
      <trkpt lat="41.92742" lon="-8.6268">
        <ele>251.04</ele>
        <time>2019-06-02T07:39:34Z</time>
      </trkpt>
      <trkpt lat="41.92762" lon="-8.62682">
        <ele>251.04</ele>
        <time>2019-06-02T07:39:50Z</time>
      </trkpt>
      <trkpt lat="41.92786" lon="-8.62681">
        <ele>251.04</ele>
        <time>2019-06-02T07:40:08Z</time>
      </trkpt>
      <trkpt lat="41.92805" lon="-8.62683">
        <ele>251.52</ele>
        <time>2019-06-02T07:40:23Z</time>
      </trkpt>
      <trkpt lat="41.92822" lon="-8.62691">
        <ele>251.52</ele>
        <time>2019-06-02T07:40:37Z</time>
      </trkpt>
      <trkpt lat="41.92839" lon="-8.627">
        <ele>252.48</ele>
        <time>2019-06-02T07:40:51Z</time>
      </trkpt>
      <trkpt lat="41.92858" lon="-8.62711">
        <ele>252.48</ele>
        <time>2019-06-02T07:41:07Z</time>
      </trkpt>
      <trkpt lat="41.92879" lon="-8.62723">
        <ele>252.48</ele>
        <time>2019-06-02T07:41:24Z</time>
      </trkpt>
      <trkpt lat="41.92898" lon="-8.62731">
        <ele>252.96</ele>
        <time>2019-06-02T07:41:40Z</time>
      </trkpt>
      <trkpt lat="41.92917" lon="-8.62743">
        <ele>253.44</ele>
        <time>2019-06-02T07:41:55Z</time>
      </trkpt>
      <trkpt lat="41.92927" lon="-8.62753">
        <ele>253.93</ele>
        <time>2019-06-02T07:42:05Z</time>
      </trkpt>
      <trkpt lat="41.92944" lon="-8.62765">
        <ele>253.93</ele>
        <time>2019-06-02T07:42:21Z</time>
      </trkpt>
      <trkpt lat="41.92961" lon="-8.6277">
        <ele>255.37</ele>
        <time>2019-06-02T07:42:35Z</time>
      </trkpt>
      <trkpt lat="41.9298" lon="-8.62776">
        <ele>256.33</ele>
        <time>2019-06-02T07:42:51Z</time>
      </trkpt>
      <trkpt lat="41.92996" lon="-8.62788">
        <ele>257.77</ele>
        <time>2019-06-02T07:43:06Z</time>
      </trkpt>
      <trkpt lat="41.92997" lon="-8.62789">
        <ele>257.77</ele>
        <time>2019-06-02T07:43:07Z</time>
      </trkpt>
      <trkpt lat="41.9301" lon="-8.62797">
        <ele>258.25</ele>
        <time>2019-06-02T07:43:18Z</time>
      </trkpt>
      <trkpt lat="41.9303" lon="-8.62807">
        <ele>259.69</ele>
        <time>2019-06-02T07:43:34Z</time>
      </trkpt>
      <trkpt lat="41.93039" lon="-8.62811">
        <ele>260.65</ele>
        <time>2019-06-02T07:43:43Z</time>
      </trkpt>
      <trkpt lat="41.9304" lon="-8.62808">
        <ele>261.62</ele>
        <time>2019-06-02T07:43:48Z</time>
      </trkpt>
      <trkpt lat="41.93062" lon="-8.62815">
        <ele>263.54</ele>
        <time>2019-06-02T07:44:05Z</time>
      </trkpt>
      <trkpt lat="41.93082" lon="-8.62814">
        <ele>265.46</ele>
        <time>2019-06-02T07:44:19Z</time>
      </trkpt>
      <trkpt lat="41.93102" lon="-8.62812">
        <ele>267.86</ele>
        <time>2019-06-02T07:44:35Z</time>
      </trkpt>
      <trkpt lat="41.93115" lon="-8.6281">
        <ele>268.83</ele>
        <time>2019-06-02T07:44:45Z</time>
      </trkpt>
      <trkpt lat="41.9312" lon="-8.62809">
        <ele>268.83</ele>
        <time>2019-06-02T07:44:49Z</time>
      </trkpt>
      <trkpt lat="41.93134" lon="-8.62802">
        <ele>269.31</ele>
        <time>2019-06-02T07:45:04Z</time>
      </trkpt>
      <trkpt lat="41.93144" lon="-8.62801">
        <ele>270.27</ele>
        <time>2019-06-02T07:45:17Z</time>
      </trkpt>
      <trkpt lat="41.93145" lon="-8.62804">
        <ele>269.31</ele>
        <time>2019-06-02T07:45:33Z</time>
      </trkpt>
      <trkpt lat="41.93145" lon="-8.62803">
        <ele>269.31</ele>
        <time>2019-06-02T07:45:52Z</time>
      </trkpt>
      <trkpt lat="41.93149" lon="-8.62804">
        <ele>270.27</ele>
        <time>2019-06-02T07:46:09Z</time>
      </trkpt>
      <trkpt lat="41.9315" lon="-8.62803">
        <ele>270.27</ele>
        <time>2019-06-02T07:46:27Z</time>
      </trkpt>
      <trkpt lat="41.93148" lon="-8.62806">
        <ele>269.79</ele>
        <time>2019-06-02T07:47:00Z</time>
      </trkpt>
      <trkpt lat="41.93148" lon="-8.62806">
        <ele>270.27</ele>
        <time>2019-06-02T07:47:32Z</time>
      </trkpt>
      <trkpt lat="41.93149" lon="-8.62812">
        <ele>270.27</ele>
        <time>2019-06-02T07:47:46Z</time>
      </trkpt>
      <trkpt lat="41.93149" lon="-8.62812">
        <ele>270.27</ele>
        <time>2019-06-02T07:48:06Z</time>
      </trkpt>
      <trkpt lat="41.93156" lon="-8.62816">
        <ele>269.79</ele>
        <time>2019-06-02T07:48:22Z</time>
      </trkpt>
      <trkpt lat="41.93165" lon="-8.62821">
        <ele>270.27</ele>
        <time>2019-06-02T07:48:31Z</time>
      </trkpt>
      <trkpt lat="41.93169" lon="-8.62834">
        <ele>269.79</ele>
        <time>2019-06-02T07:48:42Z</time>
      </trkpt>
      <trkpt lat="41.93169" lon="-8.62846">
        <ele>270.27</ele>
        <time>2019-06-02T07:48:49Z</time>
      </trkpt>
      <trkpt lat="41.93175" lon="-8.62858">
        <ele>270.27</ele>
        <time>2019-06-02T07:49:04Z</time>
      </trkpt>
      <trkpt lat="41.93186" lon="-8.62859">
        <ele>271.23</ele>
        <time>2019-06-02T07:49:19Z</time>
      </trkpt>
      <trkpt lat="41.932" lon="-8.62867">
        <ele>273.63</ele>
        <time>2019-06-02T07:49:35Z</time>
      </trkpt>
      <trkpt lat="41.93201" lon="-8.6287">
        <ele>274.59</ele>
        <time>2019-06-02T07:49:49Z</time>
      </trkpt>
      <trkpt lat="41.93201" lon="-8.62882">
        <ele>274.11</ele>
        <time>2019-06-02T07:50:15Z</time>
      </trkpt>
      <trkpt lat="41.93199" lon="-8.62878">
        <ele>273.63</ele>
        <time>2019-06-02T07:50:38Z</time>
      </trkpt>
      <trkpt lat="41.932" lon="-8.62884">
        <ele>274.11</ele>
        <time>2019-06-02T07:51:02Z</time>
      </trkpt>
      <trkpt lat="41.93202" lon="-8.62891">
        <ele>273.63</ele>
        <time>2019-06-02T07:51:27Z</time>
      </trkpt>
      <trkpt lat="41.93201" lon="-8.62875">
        <ele>273.63</ele>
        <time>2019-06-02T07:51:51Z</time>
      </trkpt>
      <trkpt lat="41.93202" lon="-8.62866">
        <ele>274.11</ele>
        <time>2019-06-02T07:52:04Z</time>
      </trkpt>
      <trkpt lat="41.93201" lon="-8.62859">
        <ele>272.19</ele>
        <time>2019-06-02T07:52:14Z</time>
      </trkpt>
      <trkpt lat="41.93203" lon="-8.62839">
        <ele>271.23</ele>
        <time>2019-06-02T07:52:28Z</time>
      </trkpt>
      <trkpt lat="41.93204" lon="-8.62826">
        <ele>268.83</ele>
        <time>2019-06-02T07:52:41Z</time>
      </trkpt>
      <trkpt lat="41.9321" lon="-8.62824">
        <ele>268.83</ele>
        <time>2019-06-02T07:52:46Z</time>
      </trkpt>
      <trkpt lat="41.93217" lon="-8.62825">
        <ele>268.35</ele>
        <time>2019-06-02T07:52:58Z</time>
      </trkpt>
      <trkpt lat="41.93216" lon="-8.62822">
        <ele>268.83</ele>
        <time>2019-06-02T07:53:20Z</time>
      </trkpt>
      <trkpt lat="41.93218" lon="-8.62835">
        <ele>268.35</ele>
        <time>2019-06-02T07:53:33Z</time>
      </trkpt>
      <trkpt lat="41.93218" lon="-8.62841">
        <ele>269.79</ele>
        <time>2019-06-02T07:53:37Z</time>
      </trkpt>
      <trkpt lat="41.93217" lon="-8.62867">
        <ele>271.71</ele>
        <time>2019-06-02T07:53:55Z</time>
      </trkpt>
      <trkpt lat="41.93218" lon="-8.62876">
        <ele>271.71</ele>
        <time>2019-06-02T07:54:07Z</time>
      </trkpt>
      <trkpt lat="41.93225" lon="-8.62885">
        <ele>272.19</ele>
        <time>2019-06-02T07:54:17Z</time>
      </trkpt>
      <trkpt lat="41.93225" lon="-8.62891">
        <ele>272.19</ele>
        <time>2019-06-02T07:54:21Z</time>
      </trkpt>
      <trkpt lat="41.93229" lon="-8.62897">
        <ele>271.23</ele>
        <time>2019-06-02T07:54:26Z</time>
      </trkpt>
      <trkpt lat="41.93235" lon="-8.6291">
        <ele>270.27</ele>
        <time>2019-06-02T07:54:38Z</time>
      </trkpt>
      <trkpt lat="41.93237" lon="-8.62919">
        <ele>270.27</ele>
        <time>2019-06-02T07:54:43Z</time>
      </trkpt>
      <trkpt lat="41.93238" lon="-8.62921">
        <ele>270.27</ele>
        <time>2019-06-02T07:54:45Z</time>
      </trkpt>
      <trkpt lat="41.9325" lon="-8.62939">
        <ele>268.83</ele>
        <time>2019-06-02T07:55:01Z</time>
      </trkpt>
      <trkpt lat="41.93253" lon="-8.62945">
        <ele>268.35</ele>
        <time>2019-06-02T07:55:06Z</time>
      </trkpt>
      <trkpt lat="41.93257" lon="-8.62956">
        <ele>268.35</ele>
        <time>2019-06-02T07:55:13Z</time>
      </trkpt>
      <trkpt lat="41.93263" lon="-8.62978">
        <ele>267.38</ele>
        <time>2019-06-02T07:55:24Z</time>
      </trkpt>
      <trkpt lat="41.9328" lon="-8.62992">
        <ele>267.86</ele>
        <time>2019-06-02T07:55:40Z</time>
      </trkpt>
      <trkpt lat="41.93294" lon="-8.62997">
        <ele>267.38</ele>
        <time>2019-06-02T07:55:55Z</time>
      </trkpt>
      <trkpt lat="41.93296" lon="-8.62997">
        <ele>267.38</ele>
        <time>2019-06-02T07:56:06Z</time>
      </trkpt>
      <trkpt lat="41.93306" lon="-8.63003">
        <ele>266.9</ele>
        <time>2019-06-02T07:56:16Z</time>
      </trkpt>
      <trkpt lat="41.93313" lon="-8.63006">
        <ele>266.9</ele>
        <time>2019-06-02T07:56:21Z</time>
      </trkpt>
      <trkpt lat="41.93321" lon="-8.63007">
        <ele>266.9</ele>
        <time>2019-06-02T07:56:29Z</time>
      </trkpt>
      <trkpt lat="41.93343" lon="-8.63018">
        <ele>266.42</ele>
        <time>2019-06-02T07:56:45Z</time>
      </trkpt>
      <trkpt lat="41.93354" lon="-8.63029">
        <ele>266.42</ele>
        <time>2019-06-02T07:56:58Z</time>
      </trkpt>
      <trkpt lat="41.93354" lon="-8.63029">
        <ele>266.42</ele>
        <time>2019-06-02T07:57:16Z</time>
      </trkpt>
      <trkpt lat="41.93355" lon="-8.63029">
        <ele>266.9</ele>
        <time>2019-06-02T07:57:41Z</time>
      </trkpt>
      <trkpt lat="41.93353" lon="-8.63029">
        <ele>266.9</ele>
        <time>2019-06-02T07:57:56Z</time>
      </trkpt>
      <trkpt lat="41.93356" lon="-8.6303">
        <ele>266.9</ele>
        <time>2019-06-02T07:58:16Z</time>
      </trkpt>
      <trkpt lat="41.93352" lon="-8.63026">
        <ele>267.38</ele>
        <time>2019-06-02T07:58:35Z</time>
      </trkpt>
      <trkpt lat="41.9335" lon="-8.63024">
        <ele>266.9</ele>
        <time>2019-06-02T07:58:59Z</time>
      </trkpt>
      <trkpt lat="41.93348" lon="-8.63029">
        <ele>266.9</ele>
        <time>2019-06-02T07:59:31Z</time>
      </trkpt>
      <trkpt lat="41.93352" lon="-8.6303">
        <ele>266.42</ele>
        <time>2019-06-02T07:59:50Z</time>
      </trkpt>
      <trkpt lat="41.93355" lon="-8.63025">
        <ele>266.9</ele>
        <time>2019-06-02T08:00:21Z</time>
      </trkpt>
      <trkpt lat="41.93355" lon="-8.63023">
        <ele>266.42</ele>
        <time>2019-06-02T08:00:46Z</time>
      </trkpt>
      <trkpt lat="41.93354" lon="-8.63028">
        <ele>266.42</ele>
        <time>2019-06-02T08:01:07Z</time>
      </trkpt>
      <trkpt lat="41.93352" lon="-8.63028">
        <ele>266.9</ele>
        <time>2019-06-02T08:01:32Z</time>
      </trkpt>
      <trkpt lat="41.93354" lon="-8.63028">
        <ele>266.42</ele>
        <time>2019-06-02T08:01:51Z</time>
      </trkpt>
      <trkpt lat="41.93362" lon="-8.6303">
        <ele>266.42</ele>
        <time>2019-06-02T08:02:07Z</time>
      </trkpt>
      <trkpt lat="41.93371" lon="-8.63034">
        <ele>265.94</ele>
        <time>2019-06-02T08:02:16Z</time>
      </trkpt>
      <trkpt lat="41.93384" lon="-8.6304">
        <ele>264.98</ele>
        <time>2019-06-02T08:02:29Z</time>
      </trkpt>
      <trkpt lat="41.93392" lon="-8.63048">
        <ele>264.98</ele>
        <time>2019-06-02T08:02:37Z</time>
      </trkpt>
      <trkpt lat="41.93395" lon="-8.6305">
        <ele>264.98</ele>
        <time>2019-06-02T08:02:39Z</time>
      </trkpt>
      <trkpt lat="41.93409" lon="-8.63059">
        <ele>264.5</ele>
        <time>2019-06-02T08:02:53Z</time>
      </trkpt>
      <trkpt lat="41.9342" lon="-8.63062">
        <ele>263.06</ele>
        <time>2019-06-02T08:03:04Z</time>
      </trkpt>
      <trkpt lat="41.93427" lon="-8.63065">
        <ele>261.14</ele>
        <time>2019-06-02T08:03:11Z</time>
      </trkpt>
      <trkpt lat="41.9344" lon="-8.63071">
        <ele>258.73</ele>
        <time>2019-06-02T08:03:25Z</time>
      </trkpt>
      <trkpt lat="41.93453" lon="-8.63077">
        <ele>257.29</ele>
        <time>2019-06-02T08:03:38Z</time>
      </trkpt>
      <trkpt lat="41.93466" lon="-8.63081">
        <ele>254.89</ele>
        <time>2019-06-02T08:03:50Z</time>
      </trkpt>
      <trkpt lat="41.93476" lon="-8.63085">
        <ele>254.41</ele>
        <time>2019-06-02T08:03:57Z</time>
      </trkpt>
      <trkpt lat="41.93495" lon="-8.63096">
        <ele>251.52</ele>
        <time>2019-06-02T08:04:12Z</time>
      </trkpt>
      <trkpt lat="41.93506" lon="-8.63098">
        <ele>249.6</ele>
        <time>2019-06-02T08:04:21Z</time>
      </trkpt>
      <trkpt lat="41.93512" lon="-8.631">
        <ele>248.16</ele>
        <time>2019-06-02T08:04:26Z</time>
      </trkpt>
      <trkpt lat="41.93517" lon="-8.63102">
        <ele>248.16</ele>
        <time>2019-06-02T08:04:30Z</time>
      </trkpt>
      <trkpt lat="41.93523" lon="-8.63107">
        <ele>248.16</ele>
        <time>2019-06-02T08:04:46Z</time>
      </trkpt>
      <trkpt lat="41.93524" lon="-8.63108">
        <ele>248.16</ele>
        <time>2019-06-02T08:04:47Z</time>
      </trkpt>
      <trkpt lat="41.93526" lon="-8.63108">
        <ele>248.16</ele>
        <time>2019-06-02T08:04:49Z</time>
      </trkpt>
      <trkpt lat="41.93539" lon="-8.63117">
        <ele>246.72</ele>
        <time>2019-06-02T08:05:03Z</time>
      </trkpt>
      <trkpt lat="41.93542" lon="-8.63123">
        <ele>246.23</ele>
        <time>2019-06-02T08:05:08Z</time>
      </trkpt>
      <trkpt lat="41.93553" lon="-8.63124">
        <ele>243.83</ele>
        <time>2019-06-02T08:05:22Z</time>
      </trkpt>
      <trkpt lat="41.93557" lon="-8.63109">
        <ele>241.43</ele>
        <time>2019-06-02T08:05:36Z</time>
      </trkpt>
      <trkpt lat="41.93557" lon="-8.63107">
        <ele>241.43</ele>
        <time>2019-06-02T08:05:38Z</time>
      </trkpt>
      <trkpt lat="41.93554" lon="-8.63103">
        <ele>240.95</ele>
        <time>2019-06-02T08:05:42Z</time>
      </trkpt>
      <trkpt lat="41.93549" lon="-8.63082">
        <ele>239.99</ele>
        <time>2019-06-02T08:05:54Z</time>
      </trkpt>
      <trkpt lat="41.93542" lon="-8.63064">
        <ele>238.54</ele>
        <time>2019-06-02T08:06:08Z</time>
      </trkpt>
      <trkpt lat="41.9354" lon="-8.63048">
        <ele>238.06</ele>
        <time>2019-06-02T08:06:19Z</time>
      </trkpt>
      <trkpt lat="41.93552" lon="-8.63041">
        <ele>238.06</ele>
        <time>2019-06-02T08:06:30Z</time>
      </trkpt>
      <trkpt lat="41.9356" lon="-8.63039">
        <ele>238.54</ele>
        <time>2019-06-02T08:06:47Z</time>
      </trkpt>
      <trkpt lat="41.93567" lon="-8.63037">
        <ele>237.58</ele>
        <time>2019-06-02T08:07:01Z</time>
      </trkpt>
      <trkpt lat="41.93582" lon="-8.63032">
        <ele>235.66</ele>
        <time>2019-06-02T08:07:16Z</time>
      </trkpt>
      <trkpt lat="41.93587" lon="-8.63032">
        <ele>235.18</ele>
        <time>2019-06-02T08:07:21Z</time>
      </trkpt>
      <trkpt lat="41.93598" lon="-8.63035">
        <ele>233.74</ele>
        <time>2019-06-02T08:07:30Z</time>
      </trkpt>
      <trkpt lat="41.93611" lon="-8.63032">
        <ele>232.78</ele>
        <time>2019-06-02T08:07:41Z</time>
      </trkpt>
      <trkpt lat="41.93624" lon="-8.63028">
        <ele>230.85</ele>
        <time>2019-06-02T08:07:53Z</time>
      </trkpt>
      <trkpt lat="41.93634" lon="-8.63025">
        <ele>229.41</ele>
        <time>2019-06-02T08:08:04Z</time>
      </trkpt>
      <trkpt lat="41.93639" lon="-8.63021">
        <ele>228.45</ele>
        <time>2019-06-02T08:08:09Z</time>
      </trkpt>
      <trkpt lat="41.93646" lon="-8.63017">
        <ele>227.49</ele>
        <time>2019-06-02T08:08:14Z</time>
      </trkpt>
      <trkpt lat="41.93665" lon="-8.63013">
        <ele>224.61</ele>
        <time>2019-06-02T08:08:29Z</time>
      </trkpt>
      <trkpt lat="41.93675" lon="-8.63012">
        <ele>222.68</ele>
        <time>2019-06-02T08:08:40Z</time>
      </trkpt>
      <trkpt lat="41.93685" lon="-8.63011">
        <ele>220.28</ele>
        <time>2019-06-02T08:08:49Z</time>
      </trkpt>
      <trkpt lat="41.93702" lon="-8.6301">
        <ele>218.36</ele>
        <time>2019-06-02T08:09:02Z</time>
      </trkpt>
      <trkpt lat="41.93713" lon="-8.63006">
        <ele>217.88</ele>
        <time>2019-06-02T08:09:12Z</time>
      </trkpt>
      <trkpt lat="41.93723" lon="-8.62996">
        <ele>216.43</ele>
        <time>2019-06-02T08:09:23Z</time>
      </trkpt>
      <trkpt lat="41.93738" lon="-8.62988">
        <ele>216.43</ele>
        <time>2019-06-02T08:09:35Z</time>
      </trkpt>
      <trkpt lat="41.93741" lon="-8.62988">
        <ele>216.91</ele>
        <time>2019-06-02T08:09:52Z</time>
      </trkpt>
      <trkpt lat="41.93749" lon="-8.62988">
        <ele>216.43</ele>
        <time>2019-06-02T08:10:09Z</time>
      </trkpt>
      <trkpt lat="41.93761" lon="-8.62986">
        <ele>215.95</ele>
        <time>2019-06-02T08:10:21Z</time>
      </trkpt>
      <trkpt lat="41.93762" lon="-8.62986">
        <ele>216.43</ele>
        <time>2019-06-02T08:10:22Z</time>
      </trkpt>
      <trkpt lat="41.93778" lon="-8.62982">
        <ele>215.47</ele>
        <time>2019-06-02T08:10:37Z</time>
      </trkpt>
      <trkpt lat="41.93779" lon="-8.62982">
        <ele>214.99</ele>
        <time>2019-06-02T08:10:38Z</time>
      </trkpt>
      <trkpt lat="41.93782" lon="-8.6298">
        <ele>214.99</ele>
        <time>2019-06-02T08:10:41Z</time>
      </trkpt>
      <trkpt lat="41.93788" lon="-8.62976">
        <ele>214.51</ele>
        <time>2019-06-02T08:10:48Z</time>
      </trkpt>
      <trkpt lat="41.93805" lon="-8.62975">
        <ele>214.99</ele>
        <time>2019-06-02T08:11:02Z</time>
      </trkpt>
      <trkpt lat="41.93823" lon="-8.62983">
        <ele>214.51</ele>
        <time>2019-06-02T08:11:15Z</time>
      </trkpt>
      <trkpt lat="41.93834" lon="-8.63003">
        <ele>213.07</ele>
        <time>2019-06-02T08:11:30Z</time>
      </trkpt>
      <trkpt lat="41.93834" lon="-8.63004">
        <ele>213.55</ele>
        <time>2019-06-02T08:11:31Z</time>
      </trkpt>
      <trkpt lat="41.93844" lon="-8.63016">
        <ele>213.07</ele>
        <time>2019-06-02T08:11:44Z</time>
      </trkpt>
      <trkpt lat="41.93853" lon="-8.63025">
        <ele>212.11</ele>
        <time>2019-06-02T08:11:54Z</time>
      </trkpt>
      <trkpt lat="41.93869" lon="-8.63041">
        <ele>211.63</ele>
        <time>2019-06-02T08:12:06Z</time>
      </trkpt>
      <trkpt lat="41.93874" lon="-8.63043">
        <ele>211.63</ele>
        <time>2019-06-02T08:12:12Z</time>
      </trkpt>
      <trkpt lat="41.93877" lon="-8.63045">
        <ele>211.63</ele>
        <time>2019-06-02T08:12:15Z</time>
      </trkpt>
      <trkpt lat="41.93887" lon="-8.63047">
        <ele>211.15</ele>
        <time>2019-06-02T08:12:23Z</time>
      </trkpt>
      <trkpt lat="41.93903" lon="-8.63053">
        <ele>208.74</ele>
        <time>2019-06-02T08:12:36Z</time>
      </trkpt>
      <trkpt lat="41.93915" lon="-8.63058">
        <ele>207.78</ele>
        <time>2019-06-02T08:12:48Z</time>
      </trkpt>
      <trkpt lat="41.93927" lon="-8.63061">
        <ele>205.38</ele>
        <time>2019-06-02T08:13:00Z</time>
      </trkpt>
      <trkpt lat="41.9394" lon="-8.63063">
        <ele>202.98</ele>
        <time>2019-06-02T08:13:13Z</time>
      </trkpt>
      <trkpt lat="41.93948" lon="-8.63066">
        <ele>200.57</ele>
        <time>2019-06-02T08:13:25Z</time>
      </trkpt>
      <trkpt lat="41.93956" lon="-8.63067">
        <ele>200.09</ele>
        <time>2019-06-02T08:13:31Z</time>
      </trkpt>
      <trkpt lat="41.93972" lon="-8.6307">
        <ele>199.13</ele>
        <time>2019-06-02T08:13:42Z</time>
      </trkpt>
      <trkpt lat="41.93977" lon="-8.6307">
        <ele>198.17</ele>
        <time>2019-06-02T08:13:45Z</time>
      </trkpt>
      <trkpt lat="41.93983" lon="-8.63069">
        <ele>197.69</ele>
        <time>2019-06-02T08:13:48Z</time>
      </trkpt>
      <trkpt lat="41.93987" lon="-8.63067">
        <ele>198.17</ele>
        <time>2019-06-02T08:13:50Z</time>
      </trkpt>
      <trkpt lat="41.93999" lon="-8.63068">
        <ele>198.17</ele>
        <time>2019-06-02T08:13:57Z</time>
      </trkpt>
      <trkpt lat="41.94003" lon="-8.63069">
        <ele>197.69</ele>
        <time>2019-06-02T08:14:00Z</time>
      </trkpt>
      <trkpt lat="41.94008" lon="-8.63069">
        <ele>197.69</ele>
        <time>2019-06-02T08:14:03Z</time>
      </trkpt>
      <trkpt lat="41.94026" lon="-8.63073">
        <ele>196.25</ele>
        <time>2019-06-02T08:14:18Z</time>
      </trkpt>
      <trkpt lat="41.9403" lon="-8.63075">
        <ele>196.25</ele>
        <time>2019-06-02T08:14:40Z</time>
      </trkpt>
      <trkpt lat="41.94036" lon="-8.63075">
        <ele>195.77</ele>
        <time>2019-06-02T08:14:45Z</time>
      </trkpt>
      <trkpt lat="41.94039" lon="-8.63077">
        <ele>195.77</ele>
        <time>2019-06-02T08:14:49Z</time>
      </trkpt>
      <trkpt lat="41.94045" lon="-8.63077">
        <ele>195.77</ele>
        <time>2019-06-02T08:15:02Z</time>
      </trkpt>
      <trkpt lat="41.9405" lon="-8.63077">
        <ele>195.28</ele>
        <time>2019-06-02T08:15:16Z</time>
      </trkpt>
      <trkpt lat="41.94063" lon="-8.6308">
        <ele>192.4</ele>
        <time>2019-06-02T08:15:29Z</time>
      </trkpt>
      <trkpt lat="41.94075" lon="-8.63082">
        <ele>190</ele>
        <time>2019-06-02T08:15:40Z</time>
      </trkpt>
      <trkpt lat="41.94085" lon="-8.63084">
        <ele>187.59</ele>
        <time>2019-06-02T08:15:52Z</time>
      </trkpt>
      <trkpt lat="41.94095" lon="-8.63085">
        <ele>186.63</ele>
        <time>2019-06-02T08:16:09Z</time>
      </trkpt>
      <trkpt lat="41.941" lon="-8.63085">
        <ele>186.15</ele>
        <time>2019-06-02T08:16:13Z</time>
      </trkpt>
      <trkpt lat="41.94112" lon="-8.63087">
        <ele>186.15</ele>
        <time>2019-06-02T08:16:23Z</time>
      </trkpt>
      <trkpt lat="41.94133" lon="-8.63086">
        <ele>184.23</ele>
        <time>2019-06-02T08:16:39Z</time>
      </trkpt>
      <trkpt lat="41.94148" lon="-8.63086">
        <ele>183.27</ele>
        <time>2019-06-02T08:16:53Z</time>
      </trkpt>
      <trkpt lat="41.94159" lon="-8.63089">
        <ele>180.38</ele>
        <time>2019-06-02T08:17:04Z</time>
      </trkpt>
      <trkpt lat="41.94162" lon="-8.63089">
        <ele>179.42</ele>
        <time>2019-06-02T08:17:06Z</time>
      </trkpt>
      <trkpt lat="41.94177" lon="-8.63085">
        <ele>176.06</ele>
        <time>2019-06-02T08:17:20Z</time>
      </trkpt>
      <trkpt lat="41.9418" lon="-8.63084">
        <ele>176.06</ele>
        <time>2019-06-02T08:17:23Z</time>
      </trkpt>
      <trkpt lat="41.94197" lon="-8.63092">
        <ele>173.66</ele>
        <time>2019-06-02T08:17:42Z</time>
      </trkpt>
      <trkpt lat="41.94204" lon="-8.63093">
        <ele>173.66</ele>
        <time>2019-06-02T08:17:56Z</time>
      </trkpt>
      <trkpt lat="41.94212" lon="-8.63092">
        <ele>172.21</ele>
        <time>2019-06-02T08:18:04Z</time>
      </trkpt>
      <trkpt lat="41.94216" lon="-8.63091">
        <ele>171.25</ele>
        <time>2019-06-02T08:18:08Z</time>
      </trkpt>
      <trkpt lat="41.94223" lon="-8.63085">
        <ele>168.37</ele>
        <time>2019-06-02T08:18:21Z</time>
      </trkpt>
      <trkpt lat="41.94226" lon="-8.63083">
        <ele>166.93</ele>
        <time>2019-06-02T08:18:26Z</time>
      </trkpt>
      <trkpt lat="41.94233" lon="-8.63081">
        <ele>166.45</ele>
        <time>2019-06-02T08:18:33Z</time>
      </trkpt>
      <trkpt lat="41.94242" lon="-8.6308">
        <ele>165.48</ele>
        <time>2019-06-02T08:18:39Z</time>
      </trkpt>
      <trkpt lat="41.94261" lon="-8.63071">
        <ele>162.12</ele>
        <time>2019-06-02T08:18:54Z</time>
      </trkpt>
      <trkpt lat="41.94274" lon="-8.63072">
        <ele>161.64</ele>
        <time>2019-06-02T08:19:06Z</time>
      </trkpt>
      <trkpt lat="41.94301" lon="-8.6307">
        <ele>158.75</ele>
        <time>2019-06-02T08:19:23Z</time>
      </trkpt>
      <trkpt lat="41.94321" lon="-8.63068">
        <ele>156.35</ele>
        <time>2019-06-02T08:19:38Z</time>
      </trkpt>
      <trkpt lat="41.94335" lon="-8.63068">
        <ele>154.43</ele>
        <time>2019-06-02T08:19:50Z</time>
      </trkpt>
      <trkpt lat="41.94355" lon="-8.63064">
        <ele>151.54</ele>
        <time>2019-06-02T08:20:07Z</time>
      </trkpt>
      <trkpt lat="41.94359" lon="-8.63064">
        <ele>150.58</ele>
        <time>2019-06-02T08:20:10Z</time>
      </trkpt>
      <trkpt lat="41.94378" lon="-8.6306">
        <ele>147.7</ele>
        <time>2019-06-02T08:20:25Z</time>
      </trkpt>
      <trkpt lat="41.94392" lon="-8.63058">
        <ele>146.26</ele>
        <time>2019-06-02T08:20:37Z</time>
      </trkpt>
      <trkpt lat="41.94407" lon="-8.63055">
        <ele>144.34</ele>
        <time>2019-06-02T08:20:48Z</time>
      </trkpt>
      <trkpt lat="41.94415" lon="-8.63051">
        <ele>144.34</ele>
        <time>2019-06-02T08:20:56Z</time>
      </trkpt>
      <trkpt lat="41.9443" lon="-8.63044">
        <ele>145.78</ele>
        <time>2019-06-02T08:21:12Z</time>
      </trkpt>
      <trkpt lat="41.94446" lon="-8.63043">
        <ele>146.74</ele>
        <time>2019-06-02T08:21:26Z</time>
      </trkpt>
      <trkpt lat="41.94457" lon="-8.63036">
        <ele>148.18</ele>
        <time>2019-06-02T08:21:40Z</time>
      </trkpt>
      <trkpt lat="41.94461" lon="-8.6303">
        <ele>149.14</ele>
        <time>2019-06-02T08:21:47Z</time>
      </trkpt>
      <trkpt lat="41.94469" lon="-8.63016">
        <ele>150.1</ele>
        <time>2019-06-02T08:22:00Z</time>
      </trkpt>
      <trkpt lat="41.9448" lon="-8.63003">
        <ele>152.03</ele>
        <time>2019-06-02T08:22:15Z</time>
      </trkpt>
      <trkpt lat="41.94489" lon="-8.62992">
        <ele>153.47</ele>
        <time>2019-06-02T08:22:28Z</time>
      </trkpt>
      <trkpt lat="41.94498" lon="-8.62969">
        <ele>154.91</ele>
        <time>2019-06-02T08:22:44Z</time>
      </trkpt>
      <trkpt lat="41.94506" lon="-8.62956">
        <ele>157.79</ele>
        <time>2019-06-02T08:23:00Z</time>
      </trkpt>
      <trkpt lat="41.94507" lon="-8.62953">
        <ele>157.79</ele>
        <time>2019-06-02T08:23:03Z</time>
      </trkpt>
      <trkpt lat="41.94517" lon="-8.62948">
        <ele>159.24</ele>
        <time>2019-06-02T08:23:18Z</time>
      </trkpt>
      <trkpt lat="41.94524" lon="-8.6295">
        <ele>159.24</ele>
        <time>2019-06-02T08:23:25Z</time>
      </trkpt>
      <trkpt lat="41.94533" lon="-8.62952">
        <ele>158.27</ele>
        <time>2019-06-02T08:23:37Z</time>
      </trkpt>
      <trkpt lat="41.94542" lon="-8.62958">
        <ele>158.27</ele>
        <time>2019-06-02T08:23:50Z</time>
      </trkpt>
      <trkpt lat="41.94538" lon="-8.62955">
        <ele>158.27</ele>
        <time>2019-06-02T08:24:24Z</time>
      </trkpt>
      <trkpt lat="41.94548" lon="-8.6296">
        <ele>157.79</ele>
        <time>2019-06-02T08:24:36Z</time>
      </trkpt>
      <trkpt lat="41.94562" lon="-8.62968">
        <ele>157.31</ele>
        <time>2019-06-02T08:24:51Z</time>
      </trkpt>
      <trkpt lat="41.94571" lon="-8.62974">
        <ele>155.39</ele>
        <time>2019-06-02T08:25:04Z</time>
      </trkpt>
      <trkpt lat="41.94581" lon="-8.62977">
        <ele>153.95</ele>
        <time>2019-06-02T08:25:13Z</time>
      </trkpt>
      <trkpt lat="41.94595" lon="-8.62989">
        <ele>152.03</ele>
        <time>2019-06-02T08:25:25Z</time>
      </trkpt>
      <trkpt lat="41.94602" lon="-8.62995">
        <ele>150.58</ele>
        <time>2019-06-02T08:25:29Z</time>
      </trkpt>
      <trkpt lat="41.94619" lon="-8.63011">
        <ele>148.18</ele>
        <time>2019-06-02T08:25:42Z</time>
      </trkpt>
      <trkpt lat="41.94624" lon="-8.63031">
        <ele>145.78</ele>
        <time>2019-06-02T08:25:55Z</time>
      </trkpt>
      <trkpt lat="41.94626" lon="-8.63035">
        <ele>145.3</ele>
        <time>2019-06-02T08:25:59Z</time>
      </trkpt>
      <trkpt lat="41.94651" lon="-8.6305">
        <ele>142.89</ele>
        <time>2019-06-02T08:26:15Z</time>
      </trkpt>
      <trkpt lat="41.94655" lon="-8.63054">
        <ele>142.41</ele>
        <time>2019-06-02T08:26:20Z</time>
      </trkpt>
      <trkpt lat="41.94668" lon="-8.63058">
        <ele>139.53</ele>
        <time>2019-06-02T08:26:36Z</time>
      </trkpt>
      <trkpt lat="41.94679" lon="-8.63063">
        <ele>136.16</ele>
        <time>2019-06-02T08:26:47Z</time>
      </trkpt>
      <trkpt lat="41.94692" lon="-8.63068">
        <ele>134.24</ele>
        <time>2019-06-02T08:26:58Z</time>
      </trkpt>
      <trkpt lat="41.94693" lon="-8.63069">
        <ele>133.76</ele>
        <time>2019-06-02T08:26:59Z</time>
      </trkpt>
      <trkpt lat="41.94703" lon="-8.63077">
        <ele>131.84</ele>
        <time>2019-06-02T08:27:07Z</time>
      </trkpt>
      <trkpt lat="41.94709" lon="-8.6308">
        <ele>129.92</ele>
        <time>2019-06-02T08:27:13Z</time>
      </trkpt>
      <trkpt lat="41.94726" lon="-8.6308">
        <ele>127.51</ele>
        <time>2019-06-02T08:27:25Z</time>
      </trkpt>
      <trkpt lat="41.94733" lon="-8.63076">
        <ele>124.63</ele>
        <time>2019-06-02T08:27:32Z</time>
      </trkpt>
      <trkpt lat="41.94752" lon="-8.6307">
        <ele>121.26</ele>
        <time>2019-06-02T08:27:48Z</time>
      </trkpt>
      <trkpt lat="41.9476" lon="-8.63068">
        <ele>119.82</ele>
        <time>2019-06-02T08:27:56Z</time>
      </trkpt>
      <trkpt lat="41.94771" lon="-8.63066">
        <ele>117.9</ele>
        <time>2019-06-02T08:28:06Z</time>
      </trkpt>
      <trkpt lat="41.94783" lon="-8.63072">
        <ele>116.94</ele>
        <time>2019-06-02T08:28:20Z</time>
      </trkpt>
      <trkpt lat="41.94783" lon="-8.63076">
        <ele>117.42</ele>
        <time>2019-06-02T08:28:37Z</time>
      </trkpt>
      <trkpt lat="41.94784" lon="-8.63076">
        <ele>117.42</ele>
        <time>2019-06-02T08:29:06Z</time>
      </trkpt>
      <trkpt lat="41.94786" lon="-8.63079">
        <ele>116.46</ele>
        <time>2019-06-02T08:29:21Z</time>
      </trkpt>
      <trkpt lat="41.94788" lon="-8.6308">
        <ele>116.46</ele>
        <time>2019-06-02T08:29:23Z</time>
      </trkpt>
      <trkpt lat="41.94802" lon="-8.63095">
        <ele>114.05</ele>
        <time>2019-06-02T08:29:39Z</time>
      </trkpt>
      <trkpt lat="41.94814" lon="-8.63106">
        <ele>113.57</ele>
        <time>2019-06-02T08:29:51Z</time>
      </trkpt>
      <trkpt lat="41.94829" lon="-8.6312">
        <ele>112.13</ele>
        <time>2019-06-02T08:30:06Z</time>
      </trkpt>
      <trkpt lat="41.94846" lon="-8.63134">
        <ele>110.21</ele>
        <time>2019-06-02T08:30:20Z</time>
      </trkpt>
      <trkpt lat="41.94852" lon="-8.63138">
        <ele>110.21</ele>
        <time>2019-06-02T08:30:25Z</time>
      </trkpt>
      <trkpt lat="41.94858" lon="-8.63158">
        <ele>108.77</ele>
        <time>2019-06-02T08:30:39Z</time>
      </trkpt>
      <trkpt lat="41.9486" lon="-8.63161">
        <ele>108.77</ele>
        <time>2019-06-02T08:30:40Z</time>
      </trkpt>
      <trkpt lat="41.94874" lon="-8.63188">
        <ele>106.84</ele>
        <time>2019-06-02T08:30:56Z</time>
      </trkpt>
      <trkpt lat="41.94882" lon="-8.63208">
        <ele>106.84</ele>
        <time>2019-06-02T08:31:10Z</time>
      </trkpt>
      <trkpt lat="41.9489" lon="-8.63217">
        <ele>106.36</ele>
        <time>2019-06-02T08:31:18Z</time>
      </trkpt>
      <trkpt lat="41.94906" lon="-8.6323">
        <ele>105.4</ele>
        <time>2019-06-02T08:31:36Z</time>
      </trkpt>
      <trkpt lat="41.94911" lon="-8.6323">
        <ele>105.4</ele>
        <time>2019-06-02T08:31:48Z</time>
      </trkpt>
      <trkpt lat="41.94933" lon="-8.63233">
        <ele>104.44</ele>
        <time>2019-06-02T08:32:07Z</time>
      </trkpt>
      <trkpt lat="41.94956" lon="-8.63244">
        <ele>103</ele>
        <time>2019-06-02T08:32:26Z</time>
      </trkpt>
      <trkpt lat="41.94961" lon="-8.63247">
        <ele>103</ele>
        <time>2019-06-02T08:32:30Z</time>
      </trkpt>
      <trkpt lat="41.94982" lon="-8.63262">
        <ele>101.08</ele>
        <time>2019-06-02T08:32:47Z</time>
      </trkpt>
      <trkpt lat="41.94995" lon="-8.63273">
        <ele>99.63</ele>
        <time>2019-06-02T08:32:59Z</time>
      </trkpt>
      <trkpt lat="41.95009" lon="-8.63287">
        <ele>98.67</ele>
        <time>2019-06-02T08:33:14Z</time>
      </trkpt>
      <trkpt lat="41.95028" lon="-8.63302">
        <ele>96.27</ele>
        <time>2019-06-02T08:33:31Z</time>
      </trkpt>
      <trkpt lat="41.95042" lon="-8.63319">
        <ele>94.83</ele>
        <time>2019-06-02T08:33:46Z</time>
      </trkpt>
      <trkpt lat="41.95059" lon="-8.63334">
        <ele>92.9</ele>
        <time>2019-06-02T08:34:03Z</time>
      </trkpt>
      <trkpt lat="41.95076" lon="-8.63343">
        <ele>91.46</ele>
        <time>2019-06-02T08:34:16Z</time>
      </trkpt>
      <trkpt lat="41.95096" lon="-8.63353">
        <ele>90.5</ele>
        <time>2019-06-02T08:34:32Z</time>
      </trkpt>
      <trkpt lat="41.95108" lon="-8.63361">
        <ele>89.06</ele>
        <time>2019-06-02T08:34:45Z</time>
      </trkpt>
      <trkpt lat="41.95126" lon="-8.63368">
        <ele>87.62</ele>
        <time>2019-06-02T08:34:59Z</time>
      </trkpt>
      <trkpt lat="41.95146" lon="-8.63376">
        <ele>87.62</ele>
        <time>2019-06-02T08:35:14Z</time>
      </trkpt>
      <trkpt lat="41.95162" lon="-8.6338">
        <ele>85.21</ele>
        <time>2019-06-02T08:35:29Z</time>
      </trkpt>
      <trkpt lat="41.95165" lon="-8.63382">
        <ele>85.21</ele>
        <time>2019-06-02T08:35:32Z</time>
      </trkpt>
      <trkpt lat="41.95171" lon="-8.63386">
        <ele>84.25</ele>
        <time>2019-06-02T08:35:47Z</time>
      </trkpt>
      <trkpt lat="41.95181" lon="-8.63391">
        <ele>82.81</ele>
        <time>2019-06-02T08:36:10Z</time>
      </trkpt>
      <trkpt lat="41.952" lon="-8.63405">
        <ele>79.93</ele>
        <time>2019-06-02T08:36:26Z</time>
      </trkpt>
      <trkpt lat="41.95221" lon="-8.63416">
        <ele>77.52</ele>
        <time>2019-06-02T08:36:44Z</time>
      </trkpt>
      <trkpt lat="41.95242" lon="-8.63422">
        <ele>74.64</ele>
        <time>2019-06-02T08:37:01Z</time>
      </trkpt>
      <trkpt lat="41.95259" lon="-8.63428">
        <ele>72.72</ele>
        <time>2019-06-02T08:37:17Z</time>
      </trkpt>
      <trkpt lat="41.95265" lon="-8.63429">
        <ele>72.72</ele>
        <time>2019-06-02T08:37:21Z</time>
      </trkpt>
      <trkpt lat="41.95281" lon="-8.63443">
        <ele>71.27</ele>
        <time>2019-06-02T08:37:36Z</time>
      </trkpt>
      <trkpt lat="41.95293" lon="-8.63455">
        <ele>70.79</ele>
        <time>2019-06-02T08:37:48Z</time>
      </trkpt>
      <trkpt lat="41.95296" lon="-8.63454">
        <ele>70.31</ele>
        <time>2019-06-02T08:37:53Z</time>
      </trkpt>
      <trkpt lat="41.95315" lon="-8.63452">
        <ele>69.83</ele>
        <time>2019-06-02T08:38:09Z</time>
      </trkpt>
      <trkpt lat="41.95336" lon="-8.63447">
        <ele>68.39</ele>
        <time>2019-06-02T08:38:27Z</time>
      </trkpt>
      <trkpt lat="41.95355" lon="-8.63434">
        <ele>67.91</ele>
        <time>2019-06-02T08:38:41Z</time>
      </trkpt>
      <trkpt lat="41.95374" lon="-8.63424">
        <ele>67.43</ele>
        <time>2019-06-02T08:38:56Z</time>
      </trkpt>
      <trkpt lat="41.95393" lon="-8.63421">
        <ele>66.47</ele>
        <time>2019-06-02T08:39:12Z</time>
      </trkpt>
      <trkpt lat="41.95407" lon="-8.63415">
        <ele>66.95</ele>
        <time>2019-06-02T08:39:26Z</time>
      </trkpt>
      <trkpt lat="41.95415" lon="-8.63404">
        <ele>66.95</ele>
        <time>2019-06-02T08:39:38Z</time>
      </trkpt>
      <trkpt lat="41.95417" lon="-8.63407">
        <ele>66.47</ele>
        <time>2019-06-02T08:39:56Z</time>
      </trkpt>
      <trkpt lat="41.95418" lon="-8.63405">
        <ele>66.47</ele>
        <time>2019-06-02T08:40:19Z</time>
      </trkpt>
      <trkpt lat="41.95426" lon="-8.63396">
        <ele>66.47</ele>
        <time>2019-06-02T08:40:37Z</time>
      </trkpt>
      <trkpt lat="41.95441" lon="-8.63387">
        <ele>66.47</ele>
        <time>2019-06-02T08:40:51Z</time>
      </trkpt>
      <trkpt lat="41.95443" lon="-8.63386">
        <ele>66.47</ele>
        <time>2019-06-02T08:40:53Z</time>
      </trkpt>
      <trkpt lat="41.95448" lon="-8.63384">
        <ele>66.47</ele>
        <time>2019-06-02T08:40:58Z</time>
      </trkpt>
      <trkpt lat="41.95462" lon="-8.63372">
        <ele>66.95</ele>
        <time>2019-06-02T08:41:11Z</time>
      </trkpt>
      <trkpt lat="41.95464" lon="-8.63371">
        <ele>67.43</ele>
        <time>2019-06-02T08:41:13Z</time>
      </trkpt>
      <trkpt lat="41.95473" lon="-8.6336">
        <ele>67.91</ele>
        <time>2019-06-02T08:41:25Z</time>
      </trkpt>
      <trkpt lat="41.95486" lon="-8.63351">
        <ele>67.91</ele>
        <time>2019-06-02T08:41:39Z</time>
      </trkpt>
      <trkpt lat="41.95491" lon="-8.63349">
        <ele>68.87</ele>
        <time>2019-06-02T08:41:43Z</time>
      </trkpt>
      <trkpt lat="41.95504" lon="-8.63336">
        <ele>68.87</ele>
        <time>2019-06-02T08:41:57Z</time>
      </trkpt>
      <trkpt lat="41.95516" lon="-8.63326">
        <ele>69.35</ele>
        <time>2019-06-02T08:42:08Z</time>
      </trkpt>
      <trkpt lat="41.9553" lon="-8.63308">
        <ele>69.35</ele>
        <time>2019-06-02T08:42:24Z</time>
      </trkpt>
      <trkpt lat="41.95542" lon="-8.63295">
        <ele>69.83</ele>
        <time>2019-06-02T08:42:37Z</time>
      </trkpt>
      <trkpt lat="41.95561" lon="-8.63285">
        <ele>70.79</ele>
        <time>2019-06-02T08:42:53Z</time>
      </trkpt>
      <trkpt lat="41.95578" lon="-8.63284">
        <ele>72.24</ele>
        <time>2019-06-02T08:43:07Z</time>
      </trkpt>
      <trkpt lat="41.95597" lon="-8.63285">
        <ele>73.2</ele>
        <time>2019-06-02T08:43:24Z</time>
      </trkpt>
      <trkpt lat="41.95611" lon="-8.63284">
        <ele>74.16</ele>
        <time>2019-06-02T08:43:38Z</time>
      </trkpt>
      <trkpt lat="41.95623" lon="-8.63286">
        <ele>74.64</ele>
        <time>2019-06-02T08:43:49Z</time>
      </trkpt>
      <trkpt lat="41.95623" lon="-8.63287">
        <ele>74.64</ele>
        <time>2019-06-02T08:43:50Z</time>
      </trkpt>
      <trkpt lat="41.95635" lon="-8.63286">
        <ele>73.2</ele>
        <time>2019-06-02T08:44:05Z</time>
      </trkpt>
      <trkpt lat="41.95651" lon="-8.63287">
        <ele>72.24</ele>
        <time>2019-06-02T08:44:19Z</time>
      </trkpt>
      <trkpt lat="41.95666" lon="-8.63288">
        <ele>71.27</ele>
        <time>2019-06-02T08:44:28Z</time>
      </trkpt>
      <trkpt lat="41.95686" lon="-8.63287">
        <ele>70.31</ele>
        <time>2019-06-02T08:44:47Z</time>
      </trkpt>
      <trkpt lat="41.957" lon="-8.63283">
        <ele>68.87</ele>
        <time>2019-06-02T08:45:05Z</time>
      </trkpt>
      <trkpt lat="41.95721" lon="-8.63279">
        <ele>66.95</ele>
        <time>2019-06-02T08:45:21Z</time>
      </trkpt>
      <trkpt lat="41.9574" lon="-8.63274">
        <ele>65.99</ele>
        <time>2019-06-02T08:45:35Z</time>
      </trkpt>
      <trkpt lat="41.95759" lon="-8.63268">
        <ele>64.55</ele>
        <time>2019-06-02T08:45:50Z</time>
      </trkpt>
      <trkpt lat="41.95777" lon="-8.63265">
        <ele>64.07</ele>
        <time>2019-06-02T08:46:04Z</time>
      </trkpt>
      <trkpt lat="41.95798" lon="-8.6326">
        <ele>63.1</ele>
        <time>2019-06-02T08:46:20Z</time>
      </trkpt>
      <trkpt lat="41.95804" lon="-8.63259">
        <ele>63.1</ele>
        <time>2019-06-02T08:46:33Z</time>
      </trkpt>
      <trkpt lat="41.95819" lon="-8.63259">
        <ele>61.66</ele>
        <time>2019-06-02T08:46:45Z</time>
      </trkpt>
      <trkpt lat="41.9583" lon="-8.63261">
        <ele>62.14</ele>
        <time>2019-06-02T08:46:56Z</time>
      </trkpt>
      <trkpt lat="41.95841" lon="-8.6326">
        <ele>62.14</ele>
        <time>2019-06-02T08:47:09Z</time>
      </trkpt>
      <trkpt lat="41.95861" lon="-8.63263">
        <ele>62.14</ele>
        <time>2019-06-02T08:47:24Z</time>
      </trkpt>
      <trkpt lat="41.95878" lon="-8.63261">
        <ele>61.66</ele>
        <time>2019-06-02T08:47:38Z</time>
      </trkpt>
      <trkpt lat="41.95892" lon="-8.63256">
        <ele>61.66</ele>
        <time>2019-06-02T08:47:50Z</time>
      </trkpt>
      <trkpt lat="41.95913" lon="-8.6325">
        <ele>62.14</ele>
        <time>2019-06-02T08:48:05Z</time>
      </trkpt>
      <trkpt lat="41.95931" lon="-8.63245">
        <ele>61.66</ele>
        <time>2019-06-02T08:48:20Z</time>
      </trkpt>
      <trkpt lat="41.95946" lon="-8.63238">
        <ele>62.14</ele>
        <time>2019-06-02T08:48:35Z</time>
      </trkpt>
      <trkpt lat="41.95954" lon="-8.63236">
        <ele>62.14</ele>
        <time>2019-06-02T08:48:51Z</time>
      </trkpt>
      <trkpt lat="41.95972" lon="-8.63228">
        <ele>61.66</ele>
        <time>2019-06-02T08:49:06Z</time>
      </trkpt>
      <trkpt lat="41.95992" lon="-8.63221">
        <ele>62.62</ele>
        <time>2019-06-02T08:49:23Z</time>
      </trkpt>
      <trkpt lat="41.96005" lon="-8.63218">
        <ele>62.62</ele>
        <time>2019-06-02T08:49:35Z</time>
      </trkpt>
      <trkpt lat="41.96018" lon="-8.63215">
        <ele>63.1</ele>
        <time>2019-06-02T08:49:47Z</time>
      </trkpt>
      <trkpt lat="41.96032" lon="-8.6321">
        <ele>63.58</ele>
        <time>2019-06-02T08:50:01Z</time>
      </trkpt>
      <trkpt lat="41.96039" lon="-8.63209">
        <ele>63.1</ele>
        <time>2019-06-02T08:50:12Z</time>
      </trkpt>
      <trkpt lat="41.96051" lon="-8.63205">
        <ele>64.07</ele>
        <time>2019-06-02T08:50:25Z</time>
      </trkpt>
      <trkpt lat="41.96068" lon="-8.63204">
        <ele>65.03</ele>
        <time>2019-06-02T08:50:40Z</time>
      </trkpt>
      <trkpt lat="41.96088" lon="-8.63199">
        <ele>65.99</ele>
        <time>2019-06-02T08:50:57Z</time>
      </trkpt>
      <trkpt lat="41.96091" lon="-8.63199">
        <ele>66.47</ele>
        <time>2019-06-02T08:50:59Z</time>
      </trkpt>
      <trkpt lat="41.96095" lon="-8.63198">
        <ele>66.95</ele>
        <time>2019-06-02T08:51:02Z</time>
      </trkpt>
      <trkpt lat="41.96114" lon="-8.63192">
        <ele>67.43</ele>
        <time>2019-06-02T08:51:19Z</time>
      </trkpt>
      <trkpt lat="41.96136" lon="-8.6318">
        <ele>68.87</ele>
        <time>2019-06-02T08:51:37Z</time>
      </trkpt>
      <trkpt lat="41.96146" lon="-8.63179">
        <ele>69.35</ele>
        <time>2019-06-02T08:51:50Z</time>
      </trkpt>
      <trkpt lat="41.96152" lon="-8.63175">
        <ele>69.35</ele>
        <time>2019-06-02T08:51:56Z</time>
      </trkpt>
      <trkpt lat="41.96166" lon="-8.63167">
        <ele>70.79</ele>
        <time>2019-06-02T08:52:10Z</time>
      </trkpt>
      <trkpt lat="41.96183" lon="-8.63159">
        <ele>71.76</ele>
        <time>2019-06-02T08:52:24Z</time>
      </trkpt>
      <trkpt lat="41.96199" lon="-8.63156">
        <ele>72.72</ele>
        <time>2019-06-02T08:52:40Z</time>
      </trkpt>
      <trkpt lat="41.9621" lon="-8.63154">
        <ele>70.79</ele>
        <time>2019-06-02T08:52:55Z</time>
      </trkpt>
      <trkpt lat="41.96233" lon="-8.6315">
        <ele>71.27</ele>
        <time>2019-06-02T08:53:12Z</time>
      </trkpt>
      <trkpt lat="41.96235" lon="-8.63149">
        <ele>70.79</ele>
        <time>2019-06-02T08:53:13Z</time>
      </trkpt>
      <trkpt lat="41.96244" lon="-8.63143">
        <ele>70.79</ele>
        <time>2019-06-02T08:53:20Z</time>
      </trkpt>
      <trkpt lat="41.9626" lon="-8.63129">
        <ele>70.79</ele>
        <time>2019-06-02T08:53:34Z</time>
      </trkpt>
      <trkpt lat="41.96276" lon="-8.63111">
        <ele>70.31</ele>
        <time>2019-06-02T08:53:51Z</time>
      </trkpt>
      <trkpt lat="41.96278" lon="-8.63109">
        <ele>70.31</ele>
        <time>2019-06-02T08:53:54Z</time>
      </trkpt>
      <trkpt lat="41.96294" lon="-8.63099">
        <ele>71.27</ele>
        <time>2019-06-02T08:54:10Z</time>
      </trkpt>
      <trkpt lat="41.96312" lon="-8.63095">
        <ele>70.79</ele>
        <time>2019-06-02T08:54:24Z</time>
      </trkpt>
      <trkpt lat="41.96331" lon="-8.63093">
        <ele>70.31</ele>
        <time>2019-06-02T08:54:38Z</time>
      </trkpt>
      <trkpt lat="41.96338" lon="-8.63093">
        <ele>70.79</ele>
        <time>2019-06-02T08:54:45Z</time>
      </trkpt>
      <trkpt lat="41.96355" lon="-8.6309">
        <ele>70.79</ele>
        <time>2019-06-02T08:55:00Z</time>
      </trkpt>
      <trkpt lat="41.9637" lon="-8.63085">
        <ele>71.27</ele>
        <time>2019-06-02T08:55:12Z</time>
      </trkpt>
      <trkpt lat="41.96386" lon="-8.6308">
        <ele>70.79</ele>
        <time>2019-06-02T08:55:25Z</time>
      </trkpt>
      <trkpt lat="41.96404" lon="-8.63078">
        <ele>70.31</ele>
        <time>2019-06-02T08:55:39Z</time>
      </trkpt>
      <trkpt lat="41.96415" lon="-8.63078">
        <ele>69.83</ele>
        <time>2019-06-02T08:55:52Z</time>
      </trkpt>
      <trkpt lat="41.96437" lon="-8.63078">
        <ele>68.87</ele>
        <time>2019-06-02T08:56:06Z</time>
      </trkpt>
      <trkpt lat="41.9646" lon="-8.63075">
        <ele>68.87</ele>
        <time>2019-06-02T08:56:21Z</time>
      </trkpt>
      <trkpt lat="41.96465" lon="-8.63079">
        <ele>68.87</ele>
        <time>2019-06-02T08:56:36Z</time>
      </trkpt>
      <trkpt lat="41.96476" lon="-8.63085">
        <ele>68.39</ele>
        <time>2019-06-02T08:56:48Z</time>
      </trkpt>
      <trkpt lat="41.96494" lon="-8.63094">
        <ele>69.35</ele>
        <time>2019-06-02T08:57:03Z</time>
      </trkpt>
      <trkpt lat="41.96499" lon="-8.63098">
        <ele>69.35</ele>
        <time>2019-06-02T08:57:19Z</time>
      </trkpt>
      <trkpt lat="41.96497" lon="-8.63099">
        <ele>68.87</ele>
        <time>2019-06-02T08:57:39Z</time>
      </trkpt>
      <trkpt lat="41.96496" lon="-8.63103">
        <ele>67.91</ele>
        <time>2019-06-02T08:57:59Z</time>
      </trkpt>
      <trkpt lat="41.96494" lon="-8.63104">
        <ele>68.87</ele>
        <time>2019-06-02T08:58:30Z</time>
      </trkpt>
      <trkpt lat="41.96504" lon="-8.63098">
        <ele>68.87</ele>
        <time>2019-06-02T08:59:11Z</time>
      </trkpt>
      <trkpt lat="41.96504" lon="-8.63097">
        <ele>68.39</ele>
        <time>2019-06-02T08:59:42Z</time>
      </trkpt>
      <trkpt lat="41.96499" lon="-8.63096">
        <ele>68.87</ele>
        <time>2019-06-02T09:00:23Z</time>
      </trkpt>
      <trkpt lat="41.96498" lon="-8.63098">
        <ele>68.39</ele>
        <time>2019-06-02T09:00:58Z</time>
      </trkpt>
      <trkpt lat="41.96497" lon="-8.63097">
        <ele>69.35</ele>
        <time>2019-06-02T09:01:36Z</time>
      </trkpt>
      <trkpt lat="41.96499" lon="-8.63094">
        <ele>69.83</ele>
        <time>2019-06-02T09:02:21Z</time>
      </trkpt>
      <trkpt lat="41.96494" lon="-8.63096">
        <ele>69.83</ele>
        <time>2019-06-02T09:02:59Z</time>
      </trkpt>
      <trkpt lat="41.96494" lon="-8.63095">
        <ele>70.31</ele>
        <time>2019-06-02T09:03:24Z</time>
      </trkpt>
      <trkpt lat="41.96498" lon="-8.63096">
        <ele>70.79</ele>
        <time>2019-06-02T09:03:47Z</time>
      </trkpt>
      <trkpt lat="41.96495" lon="-8.63103">
        <ele>70.31</ele>
        <time>2019-06-02T09:04:10Z</time>
      </trkpt>
      <trkpt lat="41.96494" lon="-8.631">
        <ele>71.27</ele>
        <time>2019-06-02T09:04:43Z</time>
      </trkpt>
      <trkpt lat="41.96497" lon="-8.63105">
        <ele>70.79</ele>
        <time>2019-06-02T09:05:08Z</time>
      </trkpt>
      <trkpt lat="41.96502" lon="-8.63103">
        <ele>70.79</ele>
        <time>2019-06-02T09:05:46Z</time>
      </trkpt>
      <trkpt lat="41.96503" lon="-8.63103">
        <ele>71.27</ele>
        <time>2019-06-02T09:06:08Z</time>
      </trkpt>
      <trkpt lat="41.96501" lon="-8.63102">
        <ele>70.79</ele>
        <time>2019-06-02T09:06:36Z</time>
      </trkpt>
      <trkpt lat="41.96497" lon="-8.63102">
        <ele>71.27</ele>
        <time>2019-06-02T09:07:01Z</time>
      </trkpt>
      <trkpt lat="41.96499" lon="-8.63102">
        <ele>70.79</ele>
        <time>2019-06-02T09:07:41Z</time>
      </trkpt>
      <trkpt lat="41.96502" lon="-8.63103">
        <ele>70.79</ele>
        <time>2019-06-02T09:08:12Z</time>
      </trkpt>
      <trkpt lat="41.96501" lon="-8.63102">
        <ele>71.27</ele>
        <time>2019-06-02T09:08:41Z</time>
      </trkpt>
      <trkpt lat="41.965" lon="-8.63098">
        <ele>72.24</ele>
        <time>2019-06-02T09:08:55Z</time>
      </trkpt>
      <trkpt lat="41.96499" lon="-8.63098">
        <ele>71.76</ele>
        <time>2019-06-02T09:09:10Z</time>
      </trkpt>
      <trkpt lat="41.96498" lon="-8.631">
        <ele>72.72</ele>
        <time>2019-06-02T09:09:26Z</time>
      </trkpt>
      <trkpt lat="41.96499" lon="-8.631">
        <ele>71.76</ele>
        <time>2019-06-02T09:09:32Z</time>
      </trkpt>
      <trkpt lat="41.96508" lon="-8.63099">
        <ele>71.76</ele>
        <time>2019-06-02T09:09:40Z</time>
      </trkpt>
      <trkpt lat="41.96511" lon="-8.631">
        <ele>72.72</ele>
        <time>2019-06-02T09:09:44Z</time>
      </trkpt>
      <trkpt lat="41.96515" lon="-8.63101">
        <ele>72.72</ele>
        <time>2019-06-02T09:09:47Z</time>
      </trkpt>
      <trkpt lat="41.9652" lon="-8.63102">
        <ele>71.76</ele>
        <time>2019-06-02T09:09:51Z</time>
      </trkpt>
      <trkpt lat="41.9653" lon="-8.63103">
        <ele>72.24</ele>
        <time>2019-06-02T09:10:00Z</time>
      </trkpt>
      <trkpt lat="41.96543" lon="-8.63114">
        <ele>71.76</ele>
        <time>2019-06-02T09:10:13Z</time>
      </trkpt>
      <trkpt lat="41.9655" lon="-8.63127">
        <ele>70.31</ele>
        <time>2019-06-02T09:10:23Z</time>
      </trkpt>
      <trkpt lat="41.96551" lon="-8.63129">
        <ele>70.79</ele>
        <time>2019-06-02T09:10:25Z</time>
      </trkpt>
      <trkpt lat="41.96563" lon="-8.63145">
        <ele>69.83</ele>
        <time>2019-06-02T09:10:39Z</time>
      </trkpt>
      <trkpt lat="41.96579" lon="-8.63157">
        <ele>69.83</ele>
        <time>2019-06-02T09:10:53Z</time>
      </trkpt>
      <trkpt lat="41.96582" lon="-8.6316">
        <ele>69.83</ele>
        <time>2019-06-02T09:10:56Z</time>
      </trkpt>
      <trkpt lat="41.96584" lon="-8.63162">
        <ele>69.83</ele>
        <time>2019-06-02T09:10:58Z</time>
      </trkpt>
      <trkpt lat="41.96596" lon="-8.63169">
        <ele>68.87</ele>
        <time>2019-06-02T09:11:10Z</time>
      </trkpt>
      <trkpt lat="41.96609" lon="-8.6318">
        <ele>68.87</ele>
        <time>2019-06-02T09:11:24Z</time>
      </trkpt>
      <trkpt lat="41.96627" lon="-8.6319">
        <ele>68.39</ele>
        <time>2019-06-02T09:11:39Z</time>
      </trkpt>
      <trkpt lat="41.96647" lon="-8.63201">
        <ele>67.43</ele>
        <time>2019-06-02T09:11:56Z</time>
      </trkpt>
      <trkpt lat="41.96663" lon="-8.63214">
        <ele>67.43</ele>
        <time>2019-06-02T09:12:12Z</time>
      </trkpt>
      <trkpt lat="41.9668" lon="-8.63224">
        <ele>67.43</ele>
        <time>2019-06-02T09:12:26Z</time>
      </trkpt>
      <trkpt lat="41.96688" lon="-8.63231">
        <ele>67.43</ele>
        <time>2019-06-02T09:12:36Z</time>
      </trkpt>
      <trkpt lat="41.96703" lon="-8.63241">
        <ele>66.95</ele>
        <time>2019-06-02T09:12:50Z</time>
      </trkpt>
      <trkpt lat="41.96716" lon="-8.63248">
        <ele>66.47</ele>
        <time>2019-06-02T09:13:03Z</time>
      </trkpt>
      <trkpt lat="41.96732" lon="-8.63255">
        <ele>66.47</ele>
        <time>2019-06-02T09:13:17Z</time>
      </trkpt>
      <trkpt lat="41.96745" lon="-8.63257">
        <ele>66.47</ele>
        <time>2019-06-02T09:13:29Z</time>
      </trkpt>
      <trkpt lat="41.96769" lon="-8.63263">
        <ele>65.51</ele>
        <time>2019-06-02T09:13:45Z</time>
      </trkpt>
      <trkpt lat="41.96786" lon="-8.63266">
        <ele>65.99</ele>
        <time>2019-06-02T09:13:58Z</time>
      </trkpt>
      <trkpt lat="41.96802" lon="-8.63266">
        <ele>65.51</ele>
        <time>2019-06-02T09:14:11Z</time>
      </trkpt>
      <trkpt lat="41.96817" lon="-8.63262">
        <ele>65.51</ele>
        <time>2019-06-02T09:14:25Z</time>
      </trkpt>
      <trkpt lat="41.96839" lon="-8.63263">
        <ele>65.51</ele>
        <time>2019-06-02T09:14:41Z</time>
      </trkpt>
      <trkpt lat="41.96852" lon="-8.63266">
        <ele>65.51</ele>
        <time>2019-06-02T09:14:56Z</time>
      </trkpt>
      <trkpt lat="41.96866" lon="-8.63266">
        <ele>65.51</ele>
        <time>2019-06-02T09:15:08Z</time>
      </trkpt>
      <trkpt lat="41.96885" lon="-8.6327">
        <ele>65.03</ele>
        <time>2019-06-02T09:15:23Z</time>
      </trkpt>
      <trkpt lat="41.96905" lon="-8.63277">
        <ele>65.51</ele>
        <time>2019-06-02T09:15:39Z</time>
      </trkpt>
      <trkpt lat="41.9692" lon="-8.63287">
        <ele>65.03</ele>
        <time>2019-06-02T09:15:54Z</time>
      </trkpt>
      <trkpt lat="41.96935" lon="-8.63294">
        <ele>65.03</ele>
        <time>2019-06-02T09:16:08Z</time>
      </trkpt>
      <trkpt lat="41.96955" lon="-8.63299">
        <ele>65.03</ele>
        <time>2019-06-02T09:16:23Z</time>
      </trkpt>
      <trkpt lat="41.96969" lon="-8.63298">
        <ele>65.03</ele>
        <time>2019-06-02T09:16:36Z</time>
      </trkpt>
      <trkpt lat="41.96973" lon="-8.63298">
        <ele>65.03</ele>
        <time>2019-06-02T09:16:49Z</time>
      </trkpt>
      <trkpt lat="41.9699" lon="-8.63298">
        <ele>65.51</ele>
        <time>2019-06-02T09:17:04Z</time>
      </trkpt>
      <trkpt lat="41.97008" lon="-8.633">
        <ele>65.03</ele>
        <time>2019-06-02T09:17:19Z</time>
      </trkpt>
      <trkpt lat="41.97023" lon="-8.63299">
        <ele>65.03</ele>
        <time>2019-06-02T09:17:34Z</time>
      </trkpt>
      <trkpt lat="41.97041" lon="-8.633">
        <ele>65.03</ele>
        <time>2019-06-02T09:17:49Z</time>
      </trkpt>
      <trkpt lat="41.97047" lon="-8.63301">
        <ele>65.51</ele>
        <time>2019-06-02T09:17:54Z</time>
      </trkpt>
      <trkpt lat="41.97054" lon="-8.63302">
        <ele>65.51</ele>
        <time>2019-06-02T09:17:59Z</time>
      </trkpt>
      <trkpt lat="41.97068" lon="-8.633">
        <ele>65.99</ele>
        <time>2019-06-02T09:18:11Z</time>
      </trkpt>
      <trkpt lat="41.97091" lon="-8.63303">
        <ele>65.51</ele>
        <time>2019-06-02T09:18:28Z</time>
      </trkpt>
      <trkpt lat="41.97106" lon="-8.63303">
        <ele>65.99</ele>
        <time>2019-06-02T09:18:42Z</time>
      </trkpt>
      <trkpt lat="41.97126" lon="-8.63305">
        <ele>65.51</ele>
        <time>2019-06-02T09:18:56Z</time>
      </trkpt>
      <trkpt lat="41.97139" lon="-8.63306">
        <ele>64.55</ele>
        <time>2019-06-02T09:19:07Z</time>
      </trkpt>
      <trkpt lat="41.97156" lon="-8.63308">
        <ele>65.03</ele>
        <time>2019-06-02T09:19:23Z</time>
      </trkpt>
      <trkpt lat="41.9716" lon="-8.6331">
        <ele>65.03</ele>
        <time>2019-06-02T09:19:26Z</time>
      </trkpt>
      <trkpt lat="41.9718" lon="-8.63309">
        <ele>65.51</ele>
        <time>2019-06-02T09:19:41Z</time>
      </trkpt>
      <trkpt lat="41.972" lon="-8.63315">
        <ele>65.03</ele>
        <time>2019-06-02T09:19:55Z</time>
      </trkpt>
      <trkpt lat="41.97217" lon="-8.63319">
        <ele>65.03</ele>
        <time>2019-06-02T09:20:10Z</time>
      </trkpt>
      <trkpt lat="41.97232" lon="-8.63322">
        <ele>64.55</ele>
        <time>2019-06-02T09:20:23Z</time>
      </trkpt>
      <trkpt lat="41.97238" lon="-8.63324">
        <ele>65.03</ele>
        <time>2019-06-02T09:20:29Z</time>
      </trkpt>
      <trkpt lat="41.97254" lon="-8.63328">
        <ele>64.55</ele>
        <time>2019-06-02T09:20:43Z</time>
      </trkpt>
      <trkpt lat="41.97266" lon="-8.63332">
        <ele>64.55</ele>
        <time>2019-06-02T09:20:53Z</time>
      </trkpt>
      <trkpt lat="41.97278" lon="-8.63335">
        <ele>64.07</ele>
        <time>2019-06-02T09:21:07Z</time>
      </trkpt>
      <trkpt lat="41.9728" lon="-8.63339">
        <ele>64.07</ele>
        <time>2019-06-02T09:21:22Z</time>
      </trkpt>
      <trkpt lat="41.97294" lon="-8.6334">
        <ele>64.07</ele>
        <time>2019-06-02T09:21:37Z</time>
      </trkpt>
      <trkpt lat="41.97316" lon="-8.63343">
        <ele>63.58</ele>
        <time>2019-06-02T09:21:51Z</time>
      </trkpt>
      <trkpt lat="41.97339" lon="-8.63347">
        <ele>64.07</ele>
        <time>2019-06-02T09:22:08Z</time>
      </trkpt>
      <trkpt lat="41.97357" lon="-8.63352">
        <ele>63.1</ele>
        <time>2019-06-02T09:22:23Z</time>
      </trkpt>
      <trkpt lat="41.97373" lon="-8.63356">
        <ele>62.62</ele>
        <time>2019-06-02T09:22:37Z</time>
      </trkpt>
      <trkpt lat="41.97388" lon="-8.63359">
        <ele>62.62</ele>
        <time>2019-06-02T09:22:49Z</time>
      </trkpt>
      <trkpt lat="41.97394" lon="-8.6336">
        <ele>62.62</ele>
        <time>2019-06-02T09:22:54Z</time>
      </trkpt>
      <trkpt lat="41.97413" lon="-8.63366">
        <ele>62.14</ele>
        <time>2019-06-02T09:23:09Z</time>
      </trkpt>
      <trkpt lat="41.97426" lon="-8.63371">
        <ele>62.62</ele>
        <time>2019-06-02T09:23:22Z</time>
      </trkpt>
      <trkpt lat="41.97449" lon="-8.63373">
        <ele>62.62</ele>
        <time>2019-06-02T09:23:39Z</time>
      </trkpt>
      <trkpt lat="41.97461" lon="-8.63376">
        <ele>62.14</ele>
        <time>2019-06-02T09:23:50Z</time>
      </trkpt>
      <trkpt lat="41.97476" lon="-8.6338">
        <ele>62.14</ele>
        <time>2019-06-02T09:24:04Z</time>
      </trkpt>
      <trkpt lat="41.97478" lon="-8.6338">
        <ele>62.14</ele>
        <time>2019-06-02T09:24:07Z</time>
      </trkpt>
      <trkpt lat="41.97484" lon="-8.63382">
        <ele>62.14</ele>
        <time>2019-06-02T09:24:20Z</time>
      </trkpt>
      <trkpt lat="41.97501" lon="-8.63383">
        <ele>61.66</ele>
        <time>2019-06-02T09:24:34Z</time>
      </trkpt>
      <trkpt lat="41.97512" lon="-8.63385">
        <ele>61.66</ele>
        <time>2019-06-02T09:24:40Z</time>
      </trkpt>
      <trkpt lat="41.97518" lon="-8.63389">
        <ele>62.14</ele>
        <time>2019-06-02T09:24:54Z</time>
      </trkpt>
      <trkpt lat="41.9752" lon="-8.63388">
        <ele>61.66</ele>
        <time>2019-06-02T09:24:57Z</time>
      </trkpt>
      <trkpt lat="41.97522" lon="-8.63388">
        <ele>62.14</ele>
        <time>2019-06-02T09:24:59Z</time>
      </trkpt>
      <trkpt lat="41.97527" lon="-8.63389">
        <ele>61.66</ele>
        <time>2019-06-02T09:25:03Z</time>
      </trkpt>
      <trkpt lat="41.97544" lon="-8.63392">
        <ele>61.66</ele>
        <time>2019-06-02T09:25:19Z</time>
      </trkpt>
      <trkpt lat="41.97558" lon="-8.63394">
        <ele>60.7</ele>
        <time>2019-06-02T09:25:32Z</time>
      </trkpt>
      <trkpt lat="41.97579" lon="-8.63398">
        <ele>59.26</ele>
        <time>2019-06-02T09:25:49Z</time>
      </trkpt>
      <trkpt lat="41.97595" lon="-8.63402">
        <ele>59.26</ele>
        <time>2019-06-02T09:26:02Z</time>
      </trkpt>
      <trkpt lat="41.97606" lon="-8.63403">
        <ele>58.3</ele>
        <time>2019-06-02T09:26:10Z</time>
      </trkpt>
      <trkpt lat="41.9762" lon="-8.63406">
        <ele>57.34</ele>
        <time>2019-06-02T09:26:21Z</time>
      </trkpt>
      <trkpt lat="41.97623" lon="-8.63408">
        <ele>55.89</ele>
        <time>2019-06-02T09:26:24Z</time>
      </trkpt>
      <trkpt lat="41.97626" lon="-8.63409">
        <ele>55.89</ele>
        <time>2019-06-02T09:26:27Z</time>
      </trkpt>
      <trkpt lat="41.97628" lon="-8.6341">
        <ele>55.41</ele>
        <time>2019-06-02T09:26:29Z</time>
      </trkpt>
      <trkpt lat="41.97642" lon="-8.63412">
        <ele>53.97</ele>
        <time>2019-06-02T09:26:41Z</time>
      </trkpt>
      <trkpt lat="41.97652" lon="-8.63415">
        <ele>53.01</ele>
        <time>2019-06-02T09:26:55Z</time>
      </trkpt>
      <trkpt lat="41.97664" lon="-8.63418">
        <ele>51.57</ele>
        <time>2019-06-02T09:27:07Z</time>
      </trkpt>
      <trkpt lat="41.97684" lon="-8.63421">
        <ele>49.65</ele>
        <time>2019-06-02T09:27:22Z</time>
      </trkpt>
      <trkpt lat="41.977" lon="-8.63422">
        <ele>49.65</ele>
        <time>2019-06-02T09:27:35Z</time>
      </trkpt>
      <trkpt lat="41.97711" lon="-8.63422">
        <ele>49.16</ele>
        <time>2019-06-02T09:27:46Z</time>
      </trkpt>
      <trkpt lat="41.97725" lon="-8.63427">
        <ele>48.68</ele>
        <time>2019-06-02T09:27:59Z</time>
      </trkpt>
      <trkpt lat="41.97743" lon="-8.63421">
        <ele>49.16</ele>
        <time>2019-06-02T09:28:11Z</time>
      </trkpt>
      <trkpt lat="41.9776" lon="-8.6341">
        <ele>48.2</ele>
        <time>2019-06-02T09:28:24Z</time>
      </trkpt>
      <trkpt lat="41.97771" lon="-8.63401">
        <ele>47.72</ele>
        <time>2019-06-02T09:28:37Z</time>
      </trkpt>
      <trkpt lat="41.97776" lon="-8.63402">
        <ele>47.72</ele>
        <time>2019-06-02T09:28:42Z</time>
      </trkpt>
      <trkpt lat="41.97789" lon="-8.63408">
        <ele>46.28</ele>
        <time>2019-06-02T09:28:55Z</time>
      </trkpt>
      <trkpt lat="41.9779" lon="-8.63408">
        <ele>46.28</ele>
        <time>2019-06-02T09:28:56Z</time>
      </trkpt>
      <trkpt lat="41.97806" lon="-8.63415">
        <ele>44.84</ele>
        <time>2019-06-02T09:29:11Z</time>
      </trkpt>
      <trkpt lat="41.97812" lon="-8.63419">
        <ele>45.32</ele>
        <time>2019-06-02T09:29:17Z</time>
      </trkpt>
      <trkpt lat="41.97821" lon="-8.63424">
        <ele>45.32</ele>
        <time>2019-06-02T09:29:24Z</time>
      </trkpt>
      <trkpt lat="41.97839" lon="-8.63434">
        <ele>44.84</ele>
        <time>2019-06-02T09:29:41Z</time>
      </trkpt>
      <trkpt lat="41.97855" lon="-8.63442">
        <ele>43.88</ele>
        <time>2019-06-02T09:29:56Z</time>
      </trkpt>
      <trkpt lat="41.97866" lon="-8.63449">
        <ele>43.4</ele>
        <time>2019-06-02T09:30:09Z</time>
      </trkpt>
      <trkpt lat="41.97868" lon="-8.63453">
        <ele>42.92</ele>
        <time>2019-06-02T09:30:25Z</time>
      </trkpt>
      <trkpt lat="41.97874" lon="-8.63462">
        <ele>42.92</ele>
        <time>2019-06-02T09:30:53Z</time>
      </trkpt>
      <trkpt lat="41.97874" lon="-8.63463">
        <ele>41.95</ele>
        <time>2019-06-02T09:31:10Z</time>
      </trkpt>
      <trkpt lat="41.97874" lon="-8.63459">
        <ele>42.44</ele>
        <time>2019-06-02T09:31:28Z</time>
      </trkpt>
      <trkpt lat="41.97874" lon="-8.6346">
        <ele>42.44</ele>
        <time>2019-06-02T09:31:44Z</time>
      </trkpt>
      <trkpt lat="41.97873" lon="-8.63457">
        <ele>42.44</ele>
        <time>2019-06-02T09:32:03Z</time>
      </trkpt>
      <trkpt lat="41.97872" lon="-8.63458">
        <ele>42.44</ele>
        <time>2019-06-02T09:32:22Z</time>
      </trkpt>
      <trkpt lat="41.97877" lon="-8.63457">
        <ele>41.47</ele>
        <time>2019-06-02T09:32:38Z</time>
      </trkpt>
      <trkpt lat="41.97881" lon="-8.6346">
        <ele>40.99</ele>
        <time>2019-06-02T09:32:46Z</time>
      </trkpt>
      <trkpt lat="41.97886" lon="-8.63462">
        <ele>40.51</ele>
        <time>2019-06-02T09:32:52Z</time>
      </trkpt>
      <trkpt lat="41.97901" lon="-8.63464">
        <ele>39.55</ele>
        <time>2019-06-02T09:33:05Z</time>
      </trkpt>
      <trkpt lat="41.97915" lon="-8.63459">
        <ele>39.07</ele>
        <time>2019-06-02T09:33:17Z</time>
      </trkpt>
      <trkpt lat="41.97933" lon="-8.63452">
        <ele>37.63</ele>
        <time>2019-06-02T09:33:32Z</time>
      </trkpt>
      <trkpt lat="41.97956" lon="-8.63453">
        <ele>37.63</ele>
        <time>2019-06-02T09:33:45Z</time>
      </trkpt>
      <trkpt lat="41.97961" lon="-8.63454">
        <ele>36.19</ele>
        <time>2019-06-02T09:33:58Z</time>
      </trkpt>
      <trkpt lat="41.97982" lon="-8.63461">
        <ele>34.74</ele>
        <time>2019-06-02T09:34:13Z</time>
      </trkpt>
      <trkpt lat="41.97997" lon="-8.63462">
        <ele>33.78</ele>
        <time>2019-06-02T09:34:28Z</time>
      </trkpt>
      <trkpt lat="41.9801" lon="-8.63465">
        <ele>32.34</ele>
        <time>2019-06-02T09:34:42Z</time>
      </trkpt>
      <trkpt lat="41.9803" lon="-8.63469">
        <ele>31.86</ele>
        <time>2019-06-02T09:34:55Z</time>
      </trkpt>
      <trkpt lat="41.98046" lon="-8.63471">
        <ele>31.38</ele>
        <time>2019-06-02T09:35:10Z</time>
      </trkpt>
      <trkpt lat="41.98067" lon="-8.63473">
        <ele>29.46</ele>
        <time>2019-06-02T09:35:24Z</time>
      </trkpt>
      <trkpt lat="41.98081" lon="-8.63475">
        <ele>28.98</ele>
        <time>2019-06-02T09:35:38Z</time>
      </trkpt>
      <trkpt lat="41.98096" lon="-8.63477">
        <ele>28.02</ele>
        <time>2019-06-02T09:35:50Z</time>
      </trkpt>
      <trkpt lat="41.98099" lon="-8.63477">
        <ele>27.53</ele>
        <time>2019-06-02T09:35:55Z</time>
      </trkpt>
      <trkpt lat="41.98118" lon="-8.6348">
        <ele>26.57</ele>
        <time>2019-06-02T09:36:08Z</time>
      </trkpt>
      <trkpt lat="41.9813" lon="-8.63481">
        <ele>25.61</ele>
        <time>2019-06-02T09:36:20Z</time>
      </trkpt>
      <trkpt lat="41.98147" lon="-8.63481">
        <ele>24.65</ele>
        <time>2019-06-02T09:36:34Z</time>
      </trkpt>
      <trkpt lat="41.98148" lon="-8.63481">
        <ele>25.13</ele>
        <time>2019-06-02T09:36:35Z</time>
      </trkpt>
      <trkpt lat="41.98168" lon="-8.63487">
        <ele>24.17</ele>
        <time>2019-06-02T09:36:49Z</time>
      </trkpt>
      <trkpt lat="41.98176" lon="-8.63486">
        <ele>23.21</ele>
        <time>2019-06-02T09:36:54Z</time>
      </trkpt>
      <trkpt lat="41.98182" lon="-8.63483">
        <ele>23.21</ele>
        <time>2019-06-02T09:36:58Z</time>
      </trkpt>
      <trkpt lat="41.98204" lon="-8.63472">
        <ele>23.69</ele>
        <time>2019-06-02T09:37:15Z</time>
      </trkpt>
      <trkpt lat="41.98207" lon="-8.63472">
        <ele>23.69</ele>
        <time>2019-06-02T09:37:23Z</time>
      </trkpt>
      <trkpt lat="41.98211" lon="-8.63468">
        <ele>23.21</ele>
        <time>2019-06-02T09:37:28Z</time>
      </trkpt>
      <trkpt lat="41.98226" lon="-8.63453">
        <ele>23.21</ele>
        <time>2019-06-02T09:37:43Z</time>
      </trkpt>
      <trkpt lat="41.98231" lon="-8.63448">
        <ele>23.21</ele>
        <time>2019-06-02T09:37:49Z</time>
      </trkpt>
      <trkpt lat="41.9824" lon="-8.63439">
        <ele>22.25</ele>
        <time>2019-06-02T09:37:59Z</time>
      </trkpt>
      <trkpt lat="41.98251" lon="-8.63421">
        <ele>22.73</ele>
        <time>2019-06-02T09:38:14Z</time>
      </trkpt>
      <trkpt lat="41.98265" lon="-8.63409">
        <ele>22.25</ele>
        <time>2019-06-02T09:38:27Z</time>
      </trkpt>
      <trkpt lat="41.98283" lon="-8.63395">
        <ele>21.77</ele>
        <time>2019-06-02T09:38:43Z</time>
      </trkpt>
      <trkpt lat="41.98297" lon="-8.63389">
        <ele>20.32</ele>
        <time>2019-06-02T09:38:57Z</time>
      </trkpt>
      <trkpt lat="41.98321" lon="-8.63378">
        <ele>17.44</ele>
        <time>2019-06-02T09:39:14Z</time>
      </trkpt>
      <trkpt lat="41.98336" lon="-8.63367">
        <ele>16.96</ele>
        <time>2019-06-02T09:39:29Z</time>
      </trkpt>
      <trkpt lat="41.98349" lon="-8.63359">
        <ele>16.48</ele>
        <time>2019-06-02T09:39:39Z</time>
      </trkpt>
      <trkpt lat="41.98351" lon="-8.63357">
        <ele>16</ele>
        <time>2019-06-02T09:39:41Z</time>
      </trkpt>
      <trkpt lat="41.98364" lon="-8.63346">
        <ele>15.52</ele>
        <time>2019-06-02T09:39:56Z</time>
      </trkpt>
      <trkpt lat="41.98377" lon="-8.63333">
        <ele>15.52</ele>
        <time>2019-06-02T09:40:11Z</time>
      </trkpt>
      <trkpt lat="41.9839" lon="-8.63327">
        <ele>15.52</ele>
        <time>2019-06-02T09:40:26Z</time>
      </trkpt>
      <trkpt lat="41.98391" lon="-8.63327">
        <ele>16</ele>
        <time>2019-06-02T09:40:27Z</time>
      </trkpt>
      <trkpt lat="41.98399" lon="-8.63324">
        <ele>16</ele>
        <time>2019-06-02T09:40:40Z</time>
      </trkpt>
      <trkpt lat="41.984" lon="-8.63324">
        <ele>16</ele>
        <time>2019-06-02T09:40:41Z</time>
      </trkpt>
      <trkpt lat="41.98408" lon="-8.63321">
        <ele>16</ele>
        <time>2019-06-02T09:40:48Z</time>
      </trkpt>
      <trkpt lat="41.98419" lon="-8.63321">
        <ele>16.48</ele>
        <time>2019-06-02T09:41:00Z</time>
      </trkpt>
      <trkpt lat="41.98433" lon="-8.63329">
        <ele>17.92</ele>
        <time>2019-06-02T09:41:16Z</time>
      </trkpt>
      <trkpt lat="41.98445" lon="-8.63343">
        <ele>19.36</ele>
        <time>2019-06-02T09:41:31Z</time>
      </trkpt>
      <trkpt lat="41.98448" lon="-8.63347">
        <ele>18.88</ele>
        <time>2019-06-02T09:41:35Z</time>
      </trkpt>
      <trkpt lat="41.98461" lon="-8.63361">
        <ele>19.36</ele>
        <time>2019-06-02T09:41:51Z</time>
      </trkpt>
      <trkpt lat="41.98475" lon="-8.63374">
        <ele>19.84</ele>
        <time>2019-06-02T09:42:06Z</time>
      </trkpt>
      <trkpt lat="41.98483" lon="-8.6338">
        <ele>20.32</ele>
        <time>2019-06-02T09:42:15Z</time>
      </trkpt>
      <trkpt lat="41.98486" lon="-8.63382">
        <ele>19.84</ele>
        <time>2019-06-02T09:42:17Z</time>
      </trkpt>
      <trkpt lat="41.98503" lon="-8.63393">
        <ele>20.32</ele>
        <time>2019-06-02T09:42:33Z</time>
      </trkpt>
      <trkpt lat="41.98518" lon="-8.63404">
        <ele>20.81</ele>
        <time>2019-06-02T09:42:47Z</time>
      </trkpt>
      <trkpt lat="41.98533" lon="-8.63416">
        <ele>21.77</ele>
        <time>2019-06-02T09:43:02Z</time>
      </trkpt>
      <trkpt lat="41.98552" lon="-8.63427">
        <ele>22.73</ele>
        <time>2019-06-02T09:43:19Z</time>
      </trkpt>
      <trkpt lat="41.98563" lon="-8.63436">
        <ele>23.21</ele>
        <time>2019-06-02T09:43:31Z</time>
      </trkpt>
      <trkpt lat="41.98569" lon="-8.63439">
        <ele>23.21</ele>
        <time>2019-06-02T09:43:43Z</time>
      </trkpt>
      <trkpt lat="41.98581" lon="-8.63447">
        <ele>24.17</ele>
        <time>2019-06-02T09:43:56Z</time>
      </trkpt>
      <trkpt lat="41.98583" lon="-8.6345">
        <ele>24.17</ele>
        <time>2019-06-02T09:43:59Z</time>
      </trkpt>
      <trkpt lat="41.98593" lon="-8.63451">
        <ele>24.65</ele>
        <time>2019-06-02T09:44:14Z</time>
      </trkpt>
      <trkpt lat="41.98598" lon="-8.63455">
        <ele>25.61</ele>
        <time>2019-06-02T09:44:36Z</time>
      </trkpt>
      <trkpt lat="41.98603" lon="-8.63457">
        <ele>26.09</ele>
        <time>2019-06-02T09:44:43Z</time>
      </trkpt>
      <trkpt lat="41.98614" lon="-8.63466">
        <ele>27.05</ele>
        <time>2019-06-02T09:44:55Z</time>
      </trkpt>
      <trkpt lat="41.98628" lon="-8.63484">
        <ele>28.98</ele>
        <time>2019-06-02T09:45:12Z</time>
      </trkpt>
      <trkpt lat="41.98636" lon="-8.63497">
        <ele>30.42</ele>
        <time>2019-06-02T09:45:26Z</time>
      </trkpt>
      <trkpt lat="41.98645" lon="-8.63508">
        <ele>31.86</ele>
        <time>2019-06-02T09:45:42Z</time>
      </trkpt>
      <trkpt lat="41.98663" lon="-8.63519">
        <ele>33.3</ele>
        <time>2019-06-02T09:45:58Z</time>
      </trkpt>
      <trkpt lat="41.98668" lon="-8.63521">
        <ele>33.3</ele>
        <time>2019-06-02T09:46:03Z</time>
      </trkpt>
      <trkpt lat="41.98677" lon="-8.63526">
        <ele>32.82</ele>
        <time>2019-06-02T09:46:12Z</time>
      </trkpt>
      <trkpt lat="41.98695" lon="-8.63537">
        <ele>34.26</ele>
        <time>2019-06-02T09:46:28Z</time>
      </trkpt>
      <trkpt lat="41.98715" lon="-8.63542">
        <ele>34.74</ele>
        <time>2019-06-02T09:46:43Z</time>
      </trkpt>
      <trkpt lat="41.98723" lon="-8.63543">
        <ele>35.23</ele>
        <time>2019-06-02T09:46:50Z</time>
      </trkpt>
      <trkpt lat="41.98731" lon="-8.63541">
        <ele>35.23</ele>
        <time>2019-06-02T09:47:06Z</time>
      </trkpt>
      <trkpt lat="41.98729" lon="-8.63545">
        <ele>34.74</ele>
        <time>2019-06-02T09:47:23Z</time>
      </trkpt>
      <trkpt lat="41.98735" lon="-8.63543">
        <ele>34.26</ele>
        <time>2019-06-02T09:47:38Z</time>
      </trkpt>
      <trkpt lat="41.98737" lon="-8.63544">
        <ele>34.74</ele>
        <time>2019-06-02T09:47:40Z</time>
      </trkpt>
      <trkpt lat="41.98748" lon="-8.63542">
        <ele>34.74</ele>
        <time>2019-06-02T09:47:51Z</time>
      </trkpt>
      <trkpt lat="41.9875" lon="-8.63542">
        <ele>34.74</ele>
        <time>2019-06-02T09:47:53Z</time>
      </trkpt>
      <trkpt lat="41.98767" lon="-8.6354">
        <ele>34.26</ele>
        <time>2019-06-02T09:48:09Z</time>
      </trkpt>
      <trkpt lat="41.98786" lon="-8.63535">
        <ele>34.74</ele>
        <time>2019-06-02T09:48:23Z</time>
      </trkpt>
      <trkpt lat="41.98803" lon="-8.63529">
        <ele>34.74</ele>
        <time>2019-06-02T09:48:39Z</time>
      </trkpt>
      <trkpt lat="41.98825" lon="-8.63525">
        <ele>34.74</ele>
        <time>2019-06-02T09:48:54Z</time>
      </trkpt>
      <trkpt lat="41.9884" lon="-8.63521">
        <ele>34.26</ele>
        <time>2019-06-02T09:49:05Z</time>
      </trkpt>
      <trkpt lat="41.98852" lon="-8.63517">
        <ele>33.78</ele>
        <time>2019-06-02T09:49:16Z</time>
      </trkpt>
      <trkpt lat="41.98864" lon="-8.63508">
        <ele>33.78</ele>
        <time>2019-06-02T09:49:28Z</time>
      </trkpt>
      <trkpt lat="41.98883" lon="-8.63505">
        <ele>33.3</ele>
        <time>2019-06-02T09:49:41Z</time>
      </trkpt>
      <trkpt lat="41.98891" lon="-8.63505">
        <ele>33.3</ele>
        <time>2019-06-02T09:49:52Z</time>
      </trkpt>
      <trkpt lat="41.98907" lon="-8.63499">
        <ele>33.3</ele>
        <time>2019-06-02T09:50:06Z</time>
      </trkpt>
      <trkpt lat="41.98915" lon="-8.63496">
        <ele>32.82</ele>
        <time>2019-06-02T09:50:16Z</time>
      </trkpt>
      <trkpt lat="41.98936" lon="-8.63496">
        <ele>33.3</ele>
        <time>2019-06-02T09:50:31Z</time>
      </trkpt>
      <trkpt lat="41.98958" lon="-8.63498">
        <ele>34.26</ele>
        <time>2019-06-02T09:50:48Z</time>
      </trkpt>
      <trkpt lat="41.98977" lon="-8.63501">
        <ele>34.26</ele>
        <time>2019-06-02T09:51:03Z</time>
      </trkpt>
      <trkpt lat="41.98996" lon="-8.63505">
        <ele>33.78</ele>
        <time>2019-06-02T09:51:18Z</time>
      </trkpt>
      <trkpt lat="41.99013" lon="-8.63509">
        <ele>33.78</ele>
        <time>2019-06-02T09:51:32Z</time>
      </trkpt>
      <trkpt lat="41.99028" lon="-8.63509">
        <ele>34.26</ele>
        <time>2019-06-02T09:51:47Z</time>
      </trkpt>
      <trkpt lat="41.99045" lon="-8.63514">
        <ele>32.82</ele>
        <time>2019-06-02T09:52:02Z</time>
      </trkpt>
      <trkpt lat="41.99066" lon="-8.63519">
        <ele>31.86</ele>
        <time>2019-06-02T09:52:17Z</time>
      </trkpt>
      <trkpt lat="41.99087" lon="-8.63527">
        <ele>29.94</ele>
        <time>2019-06-02T09:52:32Z</time>
      </trkpt>
      <trkpt lat="41.99105" lon="-8.63533">
        <ele>28.98</ele>
        <time>2019-06-02T09:52:45Z</time>
      </trkpt>
      <trkpt lat="41.99127" lon="-8.6354">
        <ele>28.02</ele>
        <time>2019-06-02T09:53:01Z</time>
      </trkpt>
      <trkpt lat="41.99145" lon="-8.63545">
        <ele>27.05</ele>
        <time>2019-06-02T09:53:15Z</time>
      </trkpt>
      <trkpt lat="41.9916" lon="-8.63549">
        <ele>27.05</ele>
        <time>2019-06-02T09:53:28Z</time>
      </trkpt>
      <trkpt lat="41.99164" lon="-8.63549">
        <ele>27.05</ele>
        <time>2019-06-02T09:53:31Z</time>
      </trkpt>
      <trkpt lat="41.99167" lon="-8.63549">
        <ele>26.57</ele>
        <time>2019-06-02T09:53:34Z</time>
      </trkpt>
      <trkpt lat="41.99175" lon="-8.63548">
        <ele>24.65</ele>
        <time>2019-06-02T09:53:48Z</time>
      </trkpt>
      <trkpt lat="41.99177" lon="-8.63548">
        <ele>23.69</ele>
        <time>2019-06-02T09:53:51Z</time>
      </trkpt>
      <trkpt lat="41.99184" lon="-8.63547">
        <ele>22.73</ele>
        <time>2019-06-02T09:53:59Z</time>
      </trkpt>
      <trkpt lat="41.99199" lon="-8.63547">
        <ele>20.32</ele>
        <time>2019-06-02T09:54:14Z</time>
      </trkpt>
      <trkpt lat="41.99212" lon="-8.63549">
        <ele>18.4</ele>
        <time>2019-06-02T09:54:27Z</time>
      </trkpt>
      <trkpt lat="41.9923" lon="-8.63551">
        <ele>16.96</ele>
        <time>2019-06-02T09:54:40Z</time>
      </trkpt>
      <trkpt lat="41.99255" lon="-8.63553">
        <ele>15.52</ele>
        <time>2019-06-02T09:54:54Z</time>
      </trkpt>
      <trkpt lat="41.99274" lon="-8.63553">
        <ele>14.56</ele>
        <time>2019-06-02T09:55:08Z</time>
      </trkpt>
      <trkpt lat="41.99292" lon="-8.63552">
        <ele>14.08</ele>
        <time>2019-06-02T09:55:22Z</time>
      </trkpt>
      <trkpt lat="41.99305" lon="-8.63551">
        <ele>14.56</ele>
        <time>2019-06-02T09:55:34Z</time>
      </trkpt>
      <trkpt lat="41.99323" lon="-8.63547">
        <ele>14.08</ele>
        <time>2019-06-02T09:55:48Z</time>
      </trkpt>
      <trkpt lat="41.99334" lon="-8.63548">
        <ele>14.08</ele>
        <time>2019-06-02T09:56:00Z</time>
      </trkpt>
      <trkpt lat="41.99352" lon="-8.63552">
        <ele>15.04</ele>
        <time>2019-06-02T09:56:15Z</time>
      </trkpt>
      <trkpt lat="41.99378" lon="-8.63557">
        <ele>15.04</ele>
        <time>2019-06-02T09:56:31Z</time>
      </trkpt>
      <trkpt lat="41.99398" lon="-8.6356">
        <ele>16</ele>
        <time>2019-06-02T09:56:46Z</time>
      </trkpt>
      <trkpt lat="41.99406" lon="-8.63563">
        <ele>16.96</ele>
        <time>2019-06-02T09:57:02Z</time>
      </trkpt>
      <trkpt lat="41.99415" lon="-8.63563">
        <ele>17.44</ele>
        <time>2019-06-02T09:57:18Z</time>
      </trkpt>
      <trkpt lat="41.99433" lon="-8.63568">
        <ele>18.4</ele>
        <time>2019-06-02T09:57:34Z</time>
      </trkpt>
      <trkpt lat="41.99442" lon="-8.6357">
        <ele>19.36</ele>
        <time>2019-06-02T09:57:44Z</time>
      </trkpt>
      <trkpt lat="41.99448" lon="-8.63571">
        <ele>19.84</ele>
        <time>2019-06-02T09:57:49Z</time>
      </trkpt>
      <trkpt lat="41.99463" lon="-8.63573">
        <ele>21.29</ele>
        <time>2019-06-02T09:58:03Z</time>
      </trkpt>
      <trkpt lat="41.99476" lon="-8.6358">
        <ele>21.77</ele>
        <time>2019-06-02T09:58:18Z</time>
      </trkpt>
      <trkpt lat="41.99488" lon="-8.63585">
        <ele>24.17</ele>
        <time>2019-06-02T09:58:32Z</time>
      </trkpt>
      <trkpt lat="41.99505" lon="-8.6359">
        <ele>25.61</ele>
        <time>2019-06-02T09:58:48Z</time>
      </trkpt>
      <trkpt lat="41.99523" lon="-8.63588">
        <ele>27.05</ele>
        <time>2019-06-02T09:59:03Z</time>
      </trkpt>
      <trkpt lat="41.99538" lon="-8.63582">
        <ele>28.02</ele>
        <time>2019-06-02T09:59:17Z</time>
      </trkpt>
      <trkpt lat="41.99539" lon="-8.63585">
        <ele>27.05</ele>
        <time>2019-06-02T09:59:48Z</time>
      </trkpt>
      <trkpt lat="41.99549" lon="-8.6358">
        <ele>27.53</ele>
        <time>2019-06-02T10:00:03Z</time>
      </trkpt>
      <trkpt lat="41.99566" lon="-8.63576">
        <ele>27.53</ele>
        <time>2019-06-02T10:00:17Z</time>
      </trkpt>
      <trkpt lat="41.99571" lon="-8.63575">
        <ele>27.05</ele>
        <time>2019-06-02T10:00:22Z</time>
      </trkpt>
      <trkpt lat="41.99577" lon="-8.63574">
        <ele>27.53</ele>
        <time>2019-06-02T10:00:27Z</time>
      </trkpt>
      <trkpt lat="41.99595" lon="-8.63575">
        <ele>27.05</ele>
        <time>2019-06-02T10:00:41Z</time>
      </trkpt>
      <trkpt lat="41.99611" lon="-8.63576">
        <ele>27.53</ele>
        <time>2019-06-02T10:00:54Z</time>
      </trkpt>
      <trkpt lat="41.99625" lon="-8.63577">
        <ele>27.53</ele>
        <time>2019-06-02T10:01:05Z</time>
      </trkpt>
      <trkpt lat="41.99641" lon="-8.63574">
        <ele>28.02</ele>
        <time>2019-06-02T10:01:18Z</time>
      </trkpt>
      <trkpt lat="41.9966" lon="-8.63569">
        <ele>26.57</ele>
        <time>2019-06-02T10:01:33Z</time>
      </trkpt>
      <trkpt lat="41.99674" lon="-8.63569">
        <ele>27.05</ele>
        <time>2019-06-02T10:01:45Z</time>
      </trkpt>
      <trkpt lat="41.99689" lon="-8.63566">
        <ele>27.53</ele>
        <time>2019-06-02T10:01:59Z</time>
      </trkpt>
      <trkpt lat="41.99695" lon="-8.63564">
        <ele>27.05</ele>
        <time>2019-06-02T10:02:05Z</time>
      </trkpt>
      <trkpt lat="41.99706" lon="-8.63564">
        <ele>27.05</ele>
        <time>2019-06-02T10:02:14Z</time>
      </trkpt>
      <trkpt lat="41.99709" lon="-8.63564">
        <ele>27.53</ele>
        <time>2019-06-02T10:02:16Z</time>
      </trkpt>
      <trkpt lat="41.99728" lon="-8.63566">
        <ele>26.57</ele>
        <time>2019-06-02T10:02:30Z</time>
      </trkpt>
      <trkpt lat="41.99747" lon="-8.63569">
        <ele>26.57</ele>
        <time>2019-06-02T10:02:43Z</time>
      </trkpt>
      <trkpt lat="41.99763" lon="-8.63573">
        <ele>25.61</ele>
        <time>2019-06-02T10:02:56Z</time>
      </trkpt>
      <trkpt lat="41.99779" lon="-8.63573">
        <ele>25.61</ele>
        <time>2019-06-02T10:03:11Z</time>
      </trkpt>
      <trkpt lat="41.9979" lon="-8.63574">
        <ele>25.13</ele>
        <time>2019-06-02T10:03:21Z</time>
      </trkpt>
      <trkpt lat="41.99791" lon="-8.63574">
        <ele>26.09</ele>
        <time>2019-06-02T10:03:22Z</time>
      </trkpt>
      <trkpt lat="41.99809" lon="-8.63576">
        <ele>26.09</ele>
        <time>2019-06-02T10:03:36Z</time>
      </trkpt>
      <trkpt lat="41.99825" lon="-8.63578">
        <ele>25.61</ele>
        <time>2019-06-02T10:03:49Z</time>
      </trkpt>
      <trkpt lat="41.9984" lon="-8.63582">
        <ele>25.61</ele>
        <time>2019-06-02T10:04:02Z</time>
      </trkpt>
      <trkpt lat="41.9986" lon="-8.63589">
        <ele>25.13</ele>
        <time>2019-06-02T10:04:15Z</time>
      </trkpt>
      <trkpt lat="41.99875" lon="-8.63592">
        <ele>25.61</ele>
        <time>2019-06-02T10:04:27Z</time>
      </trkpt>
      <trkpt lat="41.99885" lon="-8.63595">
        <ele>25.61</ele>
        <time>2019-06-02T10:04:36Z</time>
      </trkpt>
      <trkpt lat="41.99903" lon="-8.63602">
        <ele>25.13</ele>
        <time>2019-06-02T10:04:50Z</time>
      </trkpt>
      <trkpt lat="41.99903" lon="-8.63602">
        <ele>25.13</ele>
        <time>2019-06-02T10:04:51Z</time>
      </trkpt>
      <trkpt lat="41.9992" lon="-8.63606">
        <ele>24.65</ele>
        <time>2019-06-02T10:05:05Z</time>
      </trkpt>
      <trkpt lat="41.99933" lon="-8.6361">
        <ele>24.65</ele>
        <time>2019-06-02T10:05:16Z</time>
      </trkpt>
      <trkpt lat="41.99949" lon="-8.63615">
        <ele>24.17</ele>
        <time>2019-06-02T10:05:27Z</time>
      </trkpt>
      <trkpt lat="41.99952" lon="-8.63616">
        <ele>24.17</ele>
        <time>2019-06-02T10:05:29Z</time>
      </trkpt>
      <trkpt lat="41.99968" lon="-8.63622">
        <ele>25.13</ele>
        <time>2019-06-02T10:05:43Z</time>
      </trkpt>
      <trkpt lat="41.99973" lon="-8.63627">
        <ele>24.17</ele>
        <time>2019-06-02T10:05:57Z</time>
      </trkpt>
      <trkpt lat="41.99979" lon="-8.63632">
        <ele>24.65</ele>
        <time>2019-06-02T10:06:13Z</time>
      </trkpt>
      <trkpt lat="41.9999" lon="-8.63635">
        <ele>24.17</ele>
        <time>2019-06-02T10:06:31Z</time>
      </trkpt>
      <trkpt lat="41.99991" lon="-8.63633">
        <ele>24.17</ele>
        <time>2019-06-02T10:06:48Z</time>
      </trkpt>
      <trkpt lat="42.00001" lon="-8.63635">
        <ele>24.65</ele>
        <time>2019-06-02T10:07:01Z</time>
      </trkpt>
      <trkpt lat="42.00002" lon="-8.63635">
        <ele>24.17</ele>
        <time>2019-06-02T10:07:03Z</time>
      </trkpt>
      <trkpt lat="42.00004" lon="-8.63635">
        <ele>24.17</ele>
        <time>2019-06-02T10:07:05Z</time>
      </trkpt>
      <trkpt lat="42.00008" lon="-8.63635">
        <ele>24.17</ele>
        <time>2019-06-02T10:07:08Z</time>
      </trkpt>
      <trkpt lat="42.00022" lon="-8.63642">
        <ele>24.17</ele>
        <time>2019-06-02T10:07:20Z</time>
      </trkpt>
      <trkpt lat="42.00037" lon="-8.63645">
        <ele>24.17</ele>
        <time>2019-06-02T10:07:33Z</time>
      </trkpt>
      <trkpt lat="42.00041" lon="-8.63646">
        <ele>23.69</ele>
        <time>2019-06-02T10:07:36Z</time>
      </trkpt>
      <trkpt lat="42.00043" lon="-8.63647">
        <ele>24.65</ele>
        <time>2019-06-02T10:07:38Z</time>
      </trkpt>
      <trkpt lat="42.00047" lon="-8.63648">
        <ele>24.17</ele>
        <time>2019-06-02T10:07:41Z</time>
      </trkpt>
      <trkpt lat="42.00053" lon="-8.63649">
        <ele>24.17</ele>
        <time>2019-06-02T10:07:45Z</time>
      </trkpt>
      <trkpt lat="42.00067" lon="-8.63654">
        <ele>23.69</ele>
        <time>2019-06-02T10:07:57Z</time>
      </trkpt>
      <trkpt lat="42.00085" lon="-8.63658">
        <ele>23.69</ele>
        <time>2019-06-02T10:08:12Z</time>
      </trkpt>
      <trkpt lat="42.00104" lon="-8.63663">
        <ele>23.69</ele>
        <time>2019-06-02T10:08:27Z</time>
      </trkpt>
      <trkpt lat="42.00122" lon="-8.63667">
        <ele>23.69</ele>
        <time>2019-06-02T10:08:42Z</time>
      </trkpt>
      <trkpt lat="42.0014" lon="-8.63676">
        <ele>23.69</ele>
        <time>2019-06-02T10:08:57Z</time>
      </trkpt>
      <trkpt lat="42.00157" lon="-8.63682">
        <ele>23.69</ele>
        <time>2019-06-02T10:09:13Z</time>
      </trkpt>
      <trkpt lat="42.00183" lon="-8.63688">
        <ele>23.21</ele>
        <time>2019-06-02T10:09:33Z</time>
      </trkpt>
      <trkpt lat="42.00199" lon="-8.63695">
        <ele>23.69</ele>
        <time>2019-06-02T10:09:47Z</time>
      </trkpt>
      <trkpt lat="42.00216" lon="-8.63702">
        <ele>23.69</ele>
        <time>2019-06-02T10:10:01Z</time>
      </trkpt>
      <trkpt lat="42.00228" lon="-8.63719">
        <ele>24.17</ele>
        <time>2019-06-02T10:10:16Z</time>
      </trkpt>
      <trkpt lat="42.00235" lon="-8.63742">
        <ele>23.69</ele>
        <time>2019-06-02T10:10:31Z</time>
      </trkpt>
      <trkpt lat="42.00239" lon="-8.6375">
        <ele>23.69</ele>
        <time>2019-06-02T10:10:37Z</time>
      </trkpt>
      <trkpt lat="42.00247" lon="-8.63753">
        <ele>23.69</ele>
        <time>2019-06-02T10:10:44Z</time>
      </trkpt>
      <trkpt lat="42.00255" lon="-8.6375">
        <ele>24.17</ele>
        <time>2019-06-02T10:10:56Z</time>
      </trkpt>
      <trkpt lat="42.00275" lon="-8.63747">
        <ele>24.17</ele>
        <time>2019-06-02T10:11:12Z</time>
      </trkpt>
      <trkpt lat="42.00284" lon="-8.63746">
        <ele>24.17</ele>
        <time>2019-06-02T10:11:20Z</time>
      </trkpt>
      <trkpt lat="42.00286" lon="-8.63746">
        <ele>24.17</ele>
        <time>2019-06-02T10:11:22Z</time>
      </trkpt>
      <trkpt lat="42.00302" lon="-8.63743">
        <ele>24.17</ele>
        <time>2019-06-02T10:11:38Z</time>
      </trkpt>
      <trkpt lat="42.00313" lon="-8.6374">
        <ele>24.17</ele>
        <time>2019-06-02T10:11:47Z</time>
      </trkpt>
      <trkpt lat="42.00317" lon="-8.63741">
        <ele>24.17</ele>
        <time>2019-06-02T10:11:52Z</time>
      </trkpt>
      <trkpt lat="42.00333" lon="-8.63755">
        <ele>24.17</ele>
        <time>2019-06-02T10:12:08Z</time>
      </trkpt>
      <trkpt lat="42.0034" lon="-8.63755">
        <ele>24.65</ele>
        <time>2019-06-02T10:12:14Z</time>
      </trkpt>
      <trkpt lat="42.00355" lon="-8.63765">
        <ele>24.17</ele>
        <time>2019-06-02T10:12:27Z</time>
      </trkpt>
      <trkpt lat="42.00364" lon="-8.63767">
        <ele>24.65</ele>
        <time>2019-06-02T10:12:34Z</time>
      </trkpt>
      <trkpt lat="42.00376" lon="-8.63769">
        <ele>24.17</ele>
        <time>2019-06-02T10:12:49Z</time>
      </trkpt>
      <trkpt lat="42.00383" lon="-8.63769">
        <ele>24.17</ele>
        <time>2019-06-02T10:12:54Z</time>
      </trkpt>
      <trkpt lat="42.00388" lon="-8.6377">
        <ele>24.65</ele>
        <time>2019-06-02T10:12:59Z</time>
      </trkpt>
      <trkpt lat="42.00392" lon="-8.63769">
        <ele>24.65</ele>
        <time>2019-06-02T10:13:02Z</time>
      </trkpt>
      <trkpt lat="42.00413" lon="-8.6377">
        <ele>24.65</ele>
        <time>2019-06-02T10:13:19Z</time>
      </trkpt>
      <trkpt lat="42.00428" lon="-8.63771">
        <ele>24.65</ele>
        <time>2019-06-02T10:13:32Z</time>
      </trkpt>
      <trkpt lat="42.00435" lon="-8.6377">
        <ele>25.13</ele>
        <time>2019-06-02T10:13:37Z</time>
      </trkpt>
      <trkpt lat="42.00456" lon="-8.63768">
        <ele>24.17</ele>
        <time>2019-06-02T10:13:54Z</time>
      </trkpt>
      <trkpt lat="42.00471" lon="-8.63766">
        <ele>24.17</ele>
        <time>2019-06-02T10:14:08Z</time>
      </trkpt>
      <trkpt lat="42.00493" lon="-8.63765">
        <ele>24.65</ele>
        <time>2019-06-02T10:14:25Z</time>
      </trkpt>
      <trkpt lat="42.00514" lon="-8.63764">
        <ele>24.17</ele>
        <time>2019-06-02T10:14:41Z</time>
      </trkpt>
      <trkpt lat="42.00535" lon="-8.63763">
        <ele>23.69</ele>
        <time>2019-06-02T10:14:59Z</time>
      </trkpt>
      <trkpt lat="42.00555" lon="-8.63762">
        <ele>24.17</ele>
        <time>2019-06-02T10:15:15Z</time>
      </trkpt>
      <trkpt lat="42.00564" lon="-8.6376">
        <ele>23.21</ele>
        <time>2019-06-02T10:15:22Z</time>
      </trkpt>
      <trkpt lat="42.00584" lon="-8.63756">
        <ele>22.73</ele>
        <time>2019-06-02T10:15:38Z</time>
      </trkpt>
      <trkpt lat="42.00603" lon="-8.63759">
        <ele>23.69</ele>
        <time>2019-06-02T10:15:54Z</time>
      </trkpt>
      <trkpt lat="42.00619" lon="-8.6376">
        <ele>23.21</ele>
        <time>2019-06-02T10:16:08Z</time>
      </trkpt>
      <trkpt lat="42.00636" lon="-8.63758">
        <ele>23.69</ele>
        <time>2019-06-02T10:16:23Z</time>
      </trkpt>
      <trkpt lat="42.00652" lon="-8.63759">
        <ele>23.69</ele>
        <time>2019-06-02T10:16:37Z</time>
      </trkpt>
      <trkpt lat="42.00668" lon="-8.63761">
        <ele>24.65</ele>
        <time>2019-06-02T10:16:52Z</time>
      </trkpt>
      <trkpt lat="42.00677" lon="-8.63761">
        <ele>24.17</ele>
        <time>2019-06-02T10:17:02Z</time>
      </trkpt>
      <trkpt lat="42.00695" lon="-8.63759">
        <ele>24.17</ele>
        <time>2019-06-02T10:17:17Z</time>
      </trkpt>
      <trkpt lat="42.00705" lon="-8.6376">
        <ele>24.65</ele>
        <time>2019-06-02T10:17:29Z</time>
      </trkpt>
      <trkpt lat="42.00708" lon="-8.6376">
        <ele>24.65</ele>
        <time>2019-06-02T10:17:32Z</time>
      </trkpt>
      <trkpt lat="42.00711" lon="-8.6376">
        <ele>24.17</ele>
        <time>2019-06-02T10:17:35Z</time>
      </trkpt>
      <trkpt lat="42.00715" lon="-8.6376">
        <ele>24.65</ele>
        <time>2019-06-02T10:17:39Z</time>
      </trkpt>
      <trkpt lat="42.00718" lon="-8.63759">
        <ele>24.17</ele>
        <time>2019-06-02T10:17:42Z</time>
      </trkpt>
      <trkpt lat="42.00725" lon="-8.63759">
        <ele>25.13</ele>
        <time>2019-06-02T10:17:47Z</time>
      </trkpt>
      <trkpt lat="42.00737" lon="-8.63758">
        <ele>24.65</ele>
        <time>2019-06-02T10:18:02Z</time>
      </trkpt>
      <trkpt lat="42.00738" lon="-8.63754">
        <ele>24.17</ele>
        <time>2019-06-02T10:18:25Z</time>
      </trkpt>
      <trkpt lat="42.00752" lon="-8.63755">
        <ele>25.13</ele>
        <time>2019-06-02T10:18:41Z</time>
      </trkpt>
      <trkpt lat="42.00769" lon="-8.63755">
        <ele>25.13</ele>
        <time>2019-06-02T10:18:56Z</time>
      </trkpt>
      <trkpt lat="42.00785" lon="-8.63754">
        <ele>25.61</ele>
        <time>2019-06-02T10:19:11Z</time>
      </trkpt>
      <trkpt lat="42.00801" lon="-8.63753">
        <ele>25.61</ele>
        <time>2019-06-02T10:19:25Z</time>
      </trkpt>
      <trkpt lat="42.00816" lon="-8.63752">
        <ele>26.09</ele>
        <time>2019-06-02T10:19:39Z</time>
      </trkpt>
      <trkpt lat="42.00835" lon="-8.63751">
        <ele>26.57</ele>
        <time>2019-06-02T10:19:54Z</time>
      </trkpt>
      <trkpt lat="42.00854" lon="-8.63752">
        <ele>26.09</ele>
        <time>2019-06-02T10:20:09Z</time>
      </trkpt>
      <trkpt lat="42.00861" lon="-8.63752">
        <ele>26.57</ele>
        <time>2019-06-02T10:20:25Z</time>
      </trkpt>
      <trkpt lat="42.00866" lon="-8.63751">
        <ele>26.09</ele>
        <time>2019-06-02T10:20:47Z</time>
      </trkpt>
      <trkpt lat="42.00871" lon="-8.6375">
        <ele>26.09</ele>
        <time>2019-06-02T10:20:52Z</time>
      </trkpt>
      <trkpt lat="42.00875" lon="-8.63747">
        <ele>26.09</ele>
        <time>2019-06-02T10:20:56Z</time>
      </trkpt>
      <trkpt lat="42.00891" lon="-8.63752">
        <ele>26.57</ele>
        <time>2019-06-02T10:21:09Z</time>
      </trkpt>
      <trkpt lat="42.00891" lon="-8.63757">
        <ele>26.09</ele>
        <time>2019-06-02T10:21:17Z</time>
      </trkpt>
      <trkpt lat="42.00899" lon="-8.63778">
        <ele>25.61</ele>
        <time>2019-06-02T10:21:31Z</time>
      </trkpt>
      <trkpt lat="42.00907" lon="-8.63798">
        <ele>25.13</ele>
        <time>2019-06-02T10:21:44Z</time>
      </trkpt>
      <trkpt lat="42.00917" lon="-8.6382">
        <ele>24.65</ele>
        <time>2019-06-02T10:22:00Z</time>
      </trkpt>
      <trkpt lat="42.0092" lon="-8.63827">
        <ele>24.65</ele>
        <time>2019-06-02T10:22:04Z</time>
      </trkpt>
      <trkpt lat="42.00924" lon="-8.63837">
        <ele>24.65</ele>
        <time>2019-06-02T10:22:15Z</time>
      </trkpt>
      <trkpt lat="42.00933" lon="-8.63856">
        <ele>24.17</ele>
        <time>2019-06-02T10:22:29Z</time>
      </trkpt>
      <trkpt lat="42.00937" lon="-8.63864">
        <ele>24.17</ele>
        <time>2019-06-02T10:22:35Z</time>
      </trkpt>
      <trkpt lat="42.00945" lon="-8.63892">
        <ele>23.69</ele>
        <time>2019-06-02T10:22:53Z</time>
      </trkpt>
      <trkpt lat="42.00946" lon="-8.63893">
        <ele>24.17</ele>
        <time>2019-06-02T10:22:54Z</time>
      </trkpt>
      <trkpt lat="42.00949" lon="-8.63907">
        <ele>23.69</ele>
        <time>2019-06-02T10:23:03Z</time>
      </trkpt>
      <trkpt lat="42.00954" lon="-8.63929">
        <ele>23.69</ele>
        <time>2019-06-02T10:23:17Z</time>
      </trkpt>
      <trkpt lat="42.00958" lon="-8.63945">
        <ele>23.21</ele>
        <time>2019-06-02T10:23:27Z</time>
      </trkpt>
      <trkpt lat="42.00958" lon="-8.63968">
        <ele>23.21</ele>
        <time>2019-06-02T10:23:43Z</time>
      </trkpt>
      <trkpt lat="42.00956" lon="-8.63991">
        <ele>22.73</ele>
        <time>2019-06-02T10:23:57Z</time>
      </trkpt>
      <trkpt lat="42.00956" lon="-8.64009">
        <ele>22.25</ele>
        <time>2019-06-02T10:24:13Z</time>
      </trkpt>
      <trkpt lat="42.00954" lon="-8.64024">
        <ele>21.77</ele>
        <time>2019-06-02T10:24:23Z</time>
      </trkpt>
      <trkpt lat="42.00954" lon="-8.64031">
        <ele>22.25</ele>
        <time>2019-06-02T10:24:27Z</time>
      </trkpt>
      <trkpt lat="42.00947" lon="-8.64059">
        <ele>21.29</ele>
        <time>2019-06-02T10:24:45Z</time>
      </trkpt>
      <trkpt lat="42.00943" lon="-8.64079">
        <ele>21.29</ele>
        <time>2019-06-02T10:24:58Z</time>
      </trkpt>
      <trkpt lat="42.00939" lon="-8.64097">
        <ele>20.81</ele>
        <time>2019-06-02T10:25:12Z</time>
      </trkpt>
      <trkpt lat="42.00938" lon="-8.64104">
        <ele>20.81</ele>
        <time>2019-06-02T10:25:17Z</time>
      </trkpt>
      <trkpt lat="42.00938" lon="-8.64109">
        <ele>20.32</ele>
        <time>2019-06-02T10:25:20Z</time>
      </trkpt>
      <trkpt lat="42.00938" lon="-8.6412">
        <ele>21.29</ele>
        <time>2019-06-02T10:25:27Z</time>
      </trkpt>
      <trkpt lat="42.00942" lon="-8.64145">
        <ele>20.32</ele>
        <time>2019-06-02T10:25:43Z</time>
      </trkpt>
      <trkpt lat="42.00947" lon="-8.64163">
        <ele>20.32</ele>
        <time>2019-06-02T10:25:55Z</time>
      </trkpt>
      <trkpt lat="42.00948" lon="-8.64167">
        <ele>19.84</ele>
        <time>2019-06-02T10:26:01Z</time>
      </trkpt>
      <trkpt lat="42.00951" lon="-8.64175">
        <ele>19.84</ele>
        <time>2019-06-02T10:26:06Z</time>
      </trkpt>
      <trkpt lat="42.00958" lon="-8.64199">
        <ele>19.84</ele>
        <time>2019-06-02T10:26:21Z</time>
      </trkpt>
      <trkpt lat="42.00962" lon="-8.6421">
        <ele>19.36</ele>
        <time>2019-06-02T10:26:29Z</time>
      </trkpt>
      <trkpt lat="42.00962" lon="-8.64213">
        <ele>19.36</ele>
        <time>2019-06-02T10:26:31Z</time>
      </trkpt>
      <trkpt lat="42.00965" lon="-8.64244">
        <ele>19.36</ele>
        <time>2019-06-02T10:26:50Z</time>
      </trkpt>
      <trkpt lat="42.00965" lon="-8.64247">
        <ele>19.36</ele>
        <time>2019-06-02T10:26:52Z</time>
      </trkpt>
      <trkpt lat="42.00968" lon="-8.64265">
        <ele>19.36</ele>
        <time>2019-06-02T10:27:05Z</time>
      </trkpt>
      <trkpt lat="42.0097" lon="-8.6427">
        <ele>18.88</ele>
        <time>2019-06-02T10:27:10Z</time>
      </trkpt>
      <trkpt lat="42.00984" lon="-8.64287">
        <ele>17.44</ele>
        <time>2019-06-02T10:27:25Z</time>
      </trkpt>
      <trkpt lat="42.00999" lon="-8.64301">
        <ele>15.52</ele>
        <time>2019-06-02T10:27:40Z</time>
      </trkpt>
      <trkpt lat="42.01006" lon="-8.64307">
        <ele>14.56</ele>
        <time>2019-06-02T10:27:51Z</time>
      </trkpt>
      <trkpt lat="42.01011" lon="-8.64306">
        <ele>15.04</ele>
        <time>2019-06-02T10:28:07Z</time>
      </trkpt>
      <trkpt lat="42.01011" lon="-8.64305">
        <ele>14.08</ele>
        <time>2019-06-02T10:28:22Z</time>
      </trkpt>
      <trkpt lat="42.01012" lon="-8.64306">
        <ele>14.08</ele>
        <time>2019-06-02T10:28:45Z</time>
      </trkpt>
      <trkpt lat="42.01011" lon="-8.64307">
        <ele>13.6</ele>
        <time>2019-06-02T10:29:20Z</time>
      </trkpt>
      <trkpt lat="42.01012" lon="-8.64306">
        <ele>14.08</ele>
        <time>2019-06-02T10:29:49Z</time>
      </trkpt>
      <trkpt lat="42.01012" lon="-8.64305">
        <ele>14.56</ele>
        <time>2019-06-02T10:30:20Z</time>
      </trkpt>
      <trkpt lat="42.0101" lon="-8.64305">
        <ele>14.56</ele>
        <time>2019-06-02T10:30:47Z</time>
      </trkpt>
      <trkpt lat="42.01011" lon="-8.64304">
        <ele>14.08</ele>
        <time>2019-06-02T10:31:12Z</time>
      </trkpt>
      <trkpt lat="42.01011" lon="-8.64304">
        <ele>14.56</ele>
        <time>2019-06-02T10:31:35Z</time>
      </trkpt>
      <trkpt lat="42.01011" lon="-8.64305">
        <ele>16</ele>
        <time>2019-06-02T10:32:05Z</time>
      </trkpt>
      <trkpt lat="42.01011" lon="-8.64305">
        <ele>16</ele>
        <time>2019-06-02T10:32:17Z</time>
      </trkpt>
      <trkpt lat="42.01014" lon="-8.64304">
        <ele>15.52</ele>
        <time>2019-06-02T10:32:26Z</time>
      </trkpt>
      <trkpt lat="42.01034" lon="-8.64295">
        <ele>13.6</ele>
        <time>2019-06-02T10:32:43Z</time>
      </trkpt>
      <trkpt lat="42.01046" lon="-8.64288">
        <ele>13.12</ele>
        <time>2019-06-02T10:32:54Z</time>
      </trkpt>
      <trkpt lat="42.0105" lon="-8.64285">
        <ele>13.12</ele>
        <time>2019-06-02T10:32:58Z</time>
      </trkpt>
      <trkpt lat="42.01063" lon="-8.64278">
        <ele>12.63</ele>
        <time>2019-06-02T10:33:09Z</time>
      </trkpt>
      <trkpt lat="42.01066" lon="-8.64277">
        <ele>12.63</ele>
        <time>2019-06-02T10:33:12Z</time>
      </trkpt>
      <trkpt lat="42.01068" lon="-8.64275">
        <ele>12.63</ele>
        <time>2019-06-02T10:33:14Z</time>
      </trkpt>
      <trkpt lat="42.01087" lon="-8.64265">
        <ele>13.6</ele>
        <time>2019-06-02T10:33:31Z</time>
      </trkpt>
      <trkpt lat="42.01103" lon="-8.64256">
        <ele>12.63</ele>
        <time>2019-06-02T10:33:45Z</time>
      </trkpt>
      <trkpt lat="42.0112" lon="-8.64252">
        <ele>13.12</ele>
        <time>2019-06-02T10:34:00Z</time>
      </trkpt>
      <trkpt lat="42.01121" lon="-8.64253">
        <ele>13.12</ele>
        <time>2019-06-02T10:34:01Z</time>
      </trkpt>
      <trkpt lat="42.01136" lon="-8.64262">
        <ele>13.6</ele>
        <time>2019-06-02T10:34:14Z</time>
      </trkpt>
      <trkpt lat="42.01144" lon="-8.64271">
        <ele>13.12</ele>
        <time>2019-06-02T10:34:23Z</time>
      </trkpt>
      <trkpt lat="42.01154" lon="-8.64287">
        <ele>13.12</ele>
        <time>2019-06-02T10:34:36Z</time>
      </trkpt>
      <trkpt lat="42.01166" lon="-8.64303">
        <ele>13.12</ele>
        <time>2019-06-02T10:34:50Z</time>
      </trkpt>
      <trkpt lat="42.01182" lon="-8.64314">
        <ele>13.6</ele>
        <time>2019-06-02T10:35:04Z</time>
      </trkpt>
      <trkpt lat="42.01196" lon="-8.64325">
        <ele>13.6</ele>
        <time>2019-06-02T10:35:17Z</time>
      </trkpt>
      <trkpt lat="42.01205" lon="-8.64331">
        <ele>14.56</ele>
        <time>2019-06-02T10:35:27Z</time>
      </trkpt>
      <trkpt lat="42.01217" lon="-8.6434">
        <ele>16</ele>
        <time>2019-06-02T10:35:41Z</time>
      </trkpt>
      <trkpt lat="42.01222" lon="-8.64343">
        <ele>16.96</ele>
        <time>2019-06-02T10:35:46Z</time>
      </trkpt>
      <trkpt lat="42.01243" lon="-8.6434">
        <ele>18.88</ele>
        <time>2019-06-02T10:36:05Z</time>
      </trkpt>
      <trkpt lat="42.01259" lon="-8.64333">
        <ele>19.84</ele>
        <time>2019-06-02T10:36:21Z</time>
      </trkpt>
      <trkpt lat="42.01274" lon="-8.64327">
        <ele>20.81</ele>
        <time>2019-06-02T10:36:36Z</time>
      </trkpt>
      <trkpt lat="42.01277" lon="-8.64326">
        <ele>21.29</ele>
        <time>2019-06-02T10:36:39Z</time>
      </trkpt>
      <trkpt lat="42.01295" lon="-8.64331">
        <ele>22.25</ele>
        <time>2019-06-02T10:36:56Z</time>
      </trkpt>
      <trkpt lat="42.01312" lon="-8.64329">
        <ele>23.21</ele>
        <time>2019-06-02T10:37:11Z</time>
      </trkpt>
      <trkpt lat="42.01317" lon="-8.64328">
        <ele>23.69</ele>
        <time>2019-06-02T10:37:15Z</time>
      </trkpt>
      <trkpt lat="42.01327" lon="-8.64327">
        <ele>23.69</ele>
        <time>2019-06-02T10:37:30Z</time>
      </trkpt>
      <trkpt lat="42.01341" lon="-8.64328">
        <ele>23.69</ele>
        <time>2019-06-02T10:37:43Z</time>
      </trkpt>
      <trkpt lat="42.01343" lon="-8.64328">
        <ele>23.69</ele>
        <time>2019-06-02T10:37:45Z</time>
      </trkpt>
      <trkpt lat="42.01345" lon="-8.64327">
        <ele>23.69</ele>
        <time>2019-06-02T10:37:47Z</time>
      </trkpt>
      <trkpt lat="42.01364" lon="-8.64322">
        <ele>24.17</ele>
        <time>2019-06-02T10:38:05Z</time>
      </trkpt>
      <trkpt lat="42.01375" lon="-8.64318">
        <ele>24.65</ele>
        <time>2019-06-02T10:38:19Z</time>
      </trkpt>
      <trkpt lat="42.01378" lon="-8.64313">
        <ele>24.17</ele>
        <time>2019-06-02T10:38:25Z</time>
      </trkpt>
      <trkpt lat="42.0138" lon="-8.64312">
        <ele>24.17</ele>
        <time>2019-06-02T10:38:27Z</time>
      </trkpt>
      <trkpt lat="42.01398" lon="-8.64303">
        <ele>24.17</ele>
        <time>2019-06-02T10:38:43Z</time>
      </trkpt>
      <trkpt lat="42.01413" lon="-8.643">
        <ele>23.69</ele>
        <time>2019-06-02T10:38:57Z</time>
      </trkpt>
      <trkpt lat="42.01432" lon="-8.64302">
        <ele>23.69</ele>
        <time>2019-06-02T10:39:12Z</time>
      </trkpt>
      <trkpt lat="42.01442" lon="-8.64304">
        <ele>24.17</ele>
        <time>2019-06-02T10:39:21Z</time>
      </trkpt>
      <trkpt lat="42.01459" lon="-8.64309">
        <ele>24.17</ele>
        <time>2019-06-02T10:39:35Z</time>
      </trkpt>
      <trkpt lat="42.0147" lon="-8.64309">
        <ele>24.65</ele>
        <time>2019-06-02T10:39:47Z</time>
      </trkpt>
      <trkpt lat="42.01474" lon="-8.64308">
        <ele>24.65</ele>
        <time>2019-06-02T10:39:50Z</time>
      </trkpt>
      <trkpt lat="42.01484" lon="-8.64314">
        <ele>25.61</ele>
        <time>2019-06-02T10:40:02Z</time>
      </trkpt>
      <trkpt lat="42.01496" lon="-8.6433">
        <ele>25.61</ele>
        <time>2019-06-02T10:40:18Z</time>
      </trkpt>
      <trkpt lat="42.01515" lon="-8.64343">
        <ele>25.13</ele>
        <time>2019-06-02T10:40:36Z</time>
      </trkpt>
      <trkpt lat="42.01533" lon="-8.64349">
        <ele>25.61</ele>
        <time>2019-06-02T10:40:51Z</time>
      </trkpt>
      <trkpt lat="42.01552" lon="-8.64356">
        <ele>26.09</ele>
        <time>2019-06-02T10:41:06Z</time>
      </trkpt>
      <trkpt lat="42.01566" lon="-8.64359">
        <ele>25.61</ele>
        <time>2019-06-02T10:41:18Z</time>
      </trkpt>
      <trkpt lat="42.01571" lon="-8.6436">
        <ele>25.61</ele>
        <time>2019-06-02T10:41:21Z</time>
      </trkpt>
      <trkpt lat="42.01592" lon="-8.64367">
        <ele>26.09</ele>
        <time>2019-06-02T10:41:38Z</time>
      </trkpt>
      <trkpt lat="42.01609" lon="-8.64372">
        <ele>26.09</ele>
        <time>2019-06-02T10:41:52Z</time>
      </trkpt>
      <trkpt lat="42.01629" lon="-8.64373">
        <ele>26.09</ele>
        <time>2019-06-02T10:42:09Z</time>
      </trkpt>
      <trkpt lat="42.01645" lon="-8.64369">
        <ele>26.57</ele>
        <time>2019-06-02T10:42:23Z</time>
      </trkpt>
      <trkpt lat="42.01658" lon="-8.6436">
        <ele>26.09</ele>
        <time>2019-06-02T10:42:35Z</time>
      </trkpt>
      <trkpt lat="42.01661" lon="-8.64361">
        <ele>27.05</ele>
        <time>2019-06-02T10:42:47Z</time>
      </trkpt>
      <trkpt lat="42.0166" lon="-8.64358">
        <ele>26.57</ele>
        <time>2019-06-02T10:43:03Z</time>
      </trkpt>
      <trkpt lat="42.0166" lon="-8.64359">
        <ele>26.09</ele>
        <time>2019-06-02T10:43:30Z</time>
      </trkpt>
      <trkpt lat="42.0166" lon="-8.64359">
        <ele>26.57</ele>
        <time>2019-06-02T10:44:06Z</time>
      </trkpt>
      <trkpt lat="42.01661" lon="-8.64358">
        <ele>27.05</ele>
        <time>2019-06-02T10:44:27Z</time>
      </trkpt>
      <trkpt lat="42.0166" lon="-8.64361">
        <ele>27.05</ele>
        <time>2019-06-02T10:44:39Z</time>
      </trkpt>
      <trkpt lat="42.01666" lon="-8.64359">
        <ele>26.57</ele>
        <time>2019-06-02T10:44:58Z</time>
      </trkpt>
      <trkpt lat="42.01675" lon="-8.64358">
        <ele>26.57</ele>
        <time>2019-06-02T10:45:04Z</time>
      </trkpt>
      <trkpt lat="42.01694" lon="-8.64357">
        <ele>26.57</ele>
        <time>2019-06-02T10:45:19Z</time>
      </trkpt>
      <trkpt lat="42.01711" lon="-8.64357">
        <ele>27.05</ele>
        <time>2019-06-02T10:45:34Z</time>
      </trkpt>
      <trkpt lat="42.01728" lon="-8.64358">
        <ele>27.05</ele>
        <time>2019-06-02T10:45:48Z</time>
      </trkpt>
      <trkpt lat="42.01739" lon="-8.64356">
        <ele>27.05</ele>
        <time>2019-06-02T10:45:57Z</time>
      </trkpt>
      <trkpt lat="42.0176" lon="-8.64354">
        <ele>27.05</ele>
        <time>2019-06-02T10:46:14Z</time>
      </trkpt>
      <trkpt lat="42.01778" lon="-8.64354">
        <ele>27.05</ele>
        <time>2019-06-02T10:46:29Z</time>
      </trkpt>
      <trkpt lat="42.01797" lon="-8.64353">
        <ele>27.05</ele>
        <time>2019-06-02T10:46:44Z</time>
      </trkpt>
      <trkpt lat="42.01808" lon="-8.64353">
        <ele>27.05</ele>
        <time>2019-06-02T10:46:55Z</time>
      </trkpt>
      <trkpt lat="42.01827" lon="-8.64353">
        <ele>27.53</ele>
        <time>2019-06-02T10:47:11Z</time>
      </trkpt>
      <trkpt lat="42.01847" lon="-8.64353">
        <ele>27.53</ele>
        <time>2019-06-02T10:47:27Z</time>
      </trkpt>
      <trkpt lat="42.01852" lon="-8.64355">
        <ele>27.53</ele>
        <time>2019-06-02T10:47:31Z</time>
      </trkpt>
      <trkpt lat="42.0187" lon="-8.64356">
        <ele>27.53</ele>
        <time>2019-06-02T10:47:45Z</time>
      </trkpt>
      <trkpt lat="42.01885" lon="-8.64361">
        <ele>27.53</ele>
        <time>2019-06-02T10:47:58Z</time>
      </trkpt>
      <trkpt lat="42.01902" lon="-8.64364">
        <ele>28.02</ele>
        <time>2019-06-02T10:48:13Z</time>
      </trkpt>
      <trkpt lat="42.01915" lon="-8.64367">
        <ele>28.02</ele>
        <time>2019-06-02T10:48:25Z</time>
      </trkpt>
      <trkpt lat="42.01928" lon="-8.64369">
        <ele>28.02</ele>
        <time>2019-06-02T10:48:36Z</time>
      </trkpt>
      <trkpt lat="42.01948" lon="-8.64375">
        <ele>28.5</ele>
        <time>2019-06-02T10:48:53Z</time>
      </trkpt>
      <trkpt lat="42.01967" lon="-8.64382">
        <ele>28.5</ele>
        <time>2019-06-02T10:49:09Z</time>
      </trkpt>
      <trkpt lat="42.01982" lon="-8.64389">
        <ele>28.98</ele>
        <time>2019-06-02T10:49:23Z</time>
      </trkpt>
      <trkpt lat="42.01999" lon="-8.64394">
        <ele>28.98</ele>
        <time>2019-06-02T10:49:37Z</time>
      </trkpt>
      <trkpt lat="42.02019" lon="-8.64394">
        <ele>28.98</ele>
        <time>2019-06-02T10:49:53Z</time>
      </trkpt>
      <trkpt lat="42.02036" lon="-8.644">
        <ele>29.46</ele>
        <time>2019-06-02T10:50:07Z</time>
      </trkpt>
      <trkpt lat="42.02054" lon="-8.64404">
        <ele>29.94</ele>
        <time>2019-06-02T10:50:22Z</time>
      </trkpt>
      <trkpt lat="42.02057" lon="-8.64405">
        <ele>29.46</ele>
        <time>2019-06-02T10:50:24Z</time>
      </trkpt>
      <trkpt lat="42.02062" lon="-8.64407">
        <ele>29.94</ele>
        <time>2019-06-02T10:50:29Z</time>
      </trkpt>
      <trkpt lat="42.02075" lon="-8.6441">
        <ele>29.94</ele>
        <time>2019-06-02T10:50:45Z</time>
      </trkpt>
      <trkpt lat="42.02079" lon="-8.64413">
        <ele>29.94</ele>
        <time>2019-06-02T10:50:55Z</time>
      </trkpt>
      <trkpt lat="42.02099" lon="-8.64424">
        <ele>30.9</ele>
        <time>2019-06-02T10:51:15Z</time>
      </trkpt>
      <trkpt lat="42.02118" lon="-8.64424">
        <ele>31.86</ele>
        <time>2019-06-02T10:51:30Z</time>
      </trkpt>
      <trkpt lat="42.02127" lon="-8.64417">
        <ele>31.86</ele>
        <time>2019-06-02T10:51:39Z</time>
      </trkpt>
      <trkpt lat="42.02129" lon="-8.64414">
        <ele>31.38</ele>
        <time>2019-06-02T10:51:41Z</time>
      </trkpt>
      <trkpt lat="42.02129" lon="-8.6441">
        <ele>32.34</ele>
        <time>2019-06-02T10:51:44Z</time>
      </trkpt>
      <trkpt lat="42.02131" lon="-8.64407">
        <ele>32.34</ele>
        <time>2019-06-02T10:51:46Z</time>
      </trkpt>
      <trkpt lat="42.02134" lon="-8.64396">
        <ele>32.82</ele>
        <time>2019-06-02T10:51:55Z</time>
      </trkpt>
      <trkpt lat="42.02137" lon="-8.64381">
        <ele>32.82</ele>
        <time>2019-06-02T10:52:07Z</time>
      </trkpt>
      <trkpt lat="42.02141" lon="-8.64369">
        <ele>32.82</ele>
        <time>2019-06-02T10:52:18Z</time>
      </trkpt>
      <trkpt lat="42.02146" lon="-8.64351">
        <ele>32.82</ele>
        <time>2019-06-02T10:52:31Z</time>
      </trkpt>
      <trkpt lat="42.02149" lon="-8.64334">
        <ele>32.82</ele>
        <time>2019-06-02T10:52:43Z</time>
      </trkpt>
      <trkpt lat="42.02156" lon="-8.64319">
        <ele>33.3</ele>
        <time>2019-06-02T10:52:55Z</time>
      </trkpt>
      <trkpt lat="42.02162" lon="-8.64312">
        <ele>33.3</ele>
        <time>2019-06-02T10:53:01Z</time>
      </trkpt>
      <trkpt lat="42.02171" lon="-8.64302">
        <ele>33.3</ele>
        <time>2019-06-02T10:53:11Z</time>
      </trkpt>
      <trkpt lat="42.02175" lon="-8.64298">
        <ele>33.78</ele>
        <time>2019-06-02T10:53:13Z</time>
      </trkpt>
      <trkpt lat="42.02177" lon="-8.64296">
        <ele>33.78</ele>
        <time>2019-06-02T10:53:15Z</time>
      </trkpt>
      <trkpt lat="42.0218" lon="-8.6429">
        <ele>33.78</ele>
        <time>2019-06-02T10:53:19Z</time>
      </trkpt>
      <trkpt lat="42.02181" lon="-8.64286">
        <ele>34.26</ele>
        <time>2019-06-02T10:53:22Z</time>
      </trkpt>
      <trkpt lat="42.02183" lon="-8.64283">
        <ele>33.78</ele>
        <time>2019-06-02T10:53:24Z</time>
      </trkpt>
      <trkpt lat="42.02188" lon="-8.64274">
        <ele>34.26</ele>
        <time>2019-06-02T10:53:32Z</time>
      </trkpt>
      <trkpt lat="42.02192" lon="-8.64267">
        <ele>34.26</ele>
        <time>2019-06-02T10:53:37Z</time>
      </trkpt>
      <trkpt lat="42.02198" lon="-8.6426">
        <ele>34.26</ele>
        <time>2019-06-02T10:53:42Z</time>
      </trkpt>
      <trkpt lat="42.02204" lon="-8.64249">
        <ele>34.74</ele>
        <time>2019-06-02T10:53:51Z</time>
      </trkpt>
      <trkpt lat="42.02207" lon="-8.64243">
        <ele>34.74</ele>
        <time>2019-06-02T10:53:55Z</time>
      </trkpt>
      <trkpt lat="42.02214" lon="-8.64229">
        <ele>34.74</ele>
        <time>2019-06-02T10:54:07Z</time>
      </trkpt>
      <trkpt lat="42.02219" lon="-8.64221">
        <ele>34.74</ele>
        <time>2019-06-02T10:54:14Z</time>
      </trkpt>
      <trkpt lat="42.02229" lon="-8.64208">
        <ele>35.23</ele>
        <time>2019-06-02T10:54:27Z</time>
      </trkpt>
      <trkpt lat="42.02235" lon="-8.64204">
        <ele>34.74</ele>
        <time>2019-06-02T10:54:32Z</time>
      </trkpt>
      <trkpt lat="42.0225" lon="-8.64185">
        <ele>35.23</ele>
        <time>2019-06-02T10:54:47Z</time>
      </trkpt>
      <trkpt lat="42.02259" lon="-8.6417">
        <ele>35.23</ele>
        <time>2019-06-02T10:54:58Z</time>
      </trkpt>
      <trkpt lat="42.02266" lon="-8.64159">
        <ele>35.23</ele>
        <time>2019-06-02T10:55:08Z</time>
      </trkpt>
      <trkpt lat="42.02275" lon="-8.64135">
        <ele>35.23</ele>
        <time>2019-06-02T10:55:23Z</time>
      </trkpt>
      <trkpt lat="42.02276" lon="-8.64122">
        <ele>34.74</ele>
        <time>2019-06-02T10:55:32Z</time>
      </trkpt>
      <trkpt lat="42.02274" lon="-8.64112">
        <ele>35.23</ele>
        <time>2019-06-02T10:55:40Z</time>
      </trkpt>
      <trkpt lat="42.02283" lon="-8.641">
        <ele>35.23</ele>
        <time>2019-06-02T10:55:53Z</time>
      </trkpt>
      <trkpt lat="42.02293" lon="-8.64096">
        <ele>36.19</ele>
        <time>2019-06-02T10:56:07Z</time>
      </trkpt>
      <trkpt lat="42.02299" lon="-8.64097">
        <ele>36.67</ele>
        <time>2019-06-02T10:56:20Z</time>
      </trkpt>
      <trkpt lat="42.02315" lon="-8.64097">
        <ele>38.11</ele>
        <time>2019-06-02T10:56:35Z</time>
      </trkpt>
      <trkpt lat="42.0233" lon="-8.64102">
        <ele>38.11</ele>
        <time>2019-06-02T10:56:49Z</time>
      </trkpt>
      <trkpt lat="42.02337" lon="-8.64104">
        <ele>39.07</ele>
        <time>2019-06-02T10:56:55Z</time>
      </trkpt>
      <trkpt lat="42.02354" lon="-8.64109">
        <ele>39.55</ele>
        <time>2019-06-02T10:57:11Z</time>
      </trkpt>
      <trkpt lat="42.02355" lon="-8.6411">
        <ele>40.03</ele>
        <time>2019-06-02T10:57:12Z</time>
      </trkpt>
      <trkpt lat="42.0236" lon="-8.64113">
        <ele>40.03</ele>
        <time>2019-06-02T10:57:17Z</time>
      </trkpt>
      <trkpt lat="42.02367" lon="-8.64114">
        <ele>40.51</ele>
        <time>2019-06-02T10:57:24Z</time>
      </trkpt>
      <trkpt lat="42.02378" lon="-8.64121">
        <ele>40.99</ele>
        <time>2019-06-02T10:57:36Z</time>
      </trkpt>
      <trkpt lat="42.02385" lon="-8.64125">
        <ele>41.47</ele>
        <time>2019-06-02T10:57:49Z</time>
      </trkpt>
      <trkpt lat="42.02393" lon="-8.64125">
        <ele>41.95</ele>
        <time>2019-06-02T10:58:00Z</time>
      </trkpt>
      <trkpt lat="42.02399" lon="-8.64127">
        <ele>41.95</ele>
        <time>2019-06-02T10:58:12Z</time>
      </trkpt>
      <trkpt lat="42.02408" lon="-8.64131">
        <ele>41.95</ele>
        <time>2019-06-02T10:58:23Z</time>
      </trkpt>
      <trkpt lat="42.0241" lon="-8.64132">
        <ele>42.44</ele>
        <time>2019-06-02T10:58:25Z</time>
      </trkpt>
      <trkpt lat="42.02412" lon="-8.64133">
        <ele>42.44</ele>
        <time>2019-06-02T10:58:26Z</time>
      </trkpt>
      <trkpt lat="42.02436" lon="-8.64138">
        <ele>42.92</ele>
        <time>2019-06-02T10:58:35Z</time>
      </trkpt>
      <trkpt lat="42.0245" lon="-8.64145">
        <ele>43.4</ele>
        <time>2019-06-02T10:58:47Z</time>
      </trkpt>
      <trkpt lat="42.02461" lon="-8.64148">
        <ele>42.92</ele>
        <time>2019-06-02T10:58:58Z</time>
      </trkpt>
      <trkpt lat="42.02481" lon="-8.64162">
        <ele>42.92</ele>
        <time>2019-06-02T10:59:12Z</time>
      </trkpt>
      <trkpt lat="42.02493" lon="-8.6416">
        <ele>43.4</ele>
        <time>2019-06-02T10:59:22Z</time>
      </trkpt>
      <trkpt lat="42.02502" lon="-8.64165">
        <ele>44.36</ele>
        <time>2019-06-02T10:59:34Z</time>
      </trkpt>
      <trkpt lat="42.0251" lon="-8.64165">
        <ele>43.4</ele>
        <time>2019-06-02T10:59:40Z</time>
      </trkpt>
      <trkpt lat="42.02517" lon="-8.64169">
        <ele>43.88</ele>
        <time>2019-06-02T10:59:47Z</time>
      </trkpt>
      <trkpt lat="42.0253" lon="-8.64171">
        <ele>44.36</ele>
        <time>2019-06-02T11:00:00Z</time>
      </trkpt>
      <trkpt lat="42.02543" lon="-8.64176">
        <ele>45.32</ele>
        <time>2019-06-02T11:00:14Z</time>
      </trkpt>
      <trkpt lat="42.02544" lon="-8.64177">
        <ele>44.84</ele>
        <time>2019-06-02T11:00:15Z</time>
      </trkpt>
      <trkpt lat="42.02557" lon="-8.64183">
        <ele>45.32</ele>
        <time>2019-06-02T11:00:29Z</time>
      </trkpt>
      <trkpt lat="42.02578" lon="-8.64188">
        <ele>45.8</ele>
        <time>2019-06-02T11:00:43Z</time>
      </trkpt>
      <trkpt lat="42.02591" lon="-8.64193">
        <ele>45.8</ele>
        <time>2019-06-02T11:00:55Z</time>
      </trkpt>
      <trkpt lat="42.02599" lon="-8.64201">
        <ele>46.76</ele>
        <time>2019-06-02T11:01:07Z</time>
      </trkpt>
      <trkpt lat="42.02614" lon="-8.64206">
        <ele>47.24</ele>
        <time>2019-06-02T11:01:19Z</time>
      </trkpt>
      <trkpt lat="42.02624" lon="-8.64204">
        <ele>47.72</ele>
        <time>2019-06-02T11:01:30Z</time>
      </trkpt>
      <trkpt lat="42.02642" lon="-8.64192">
        <ele>48.2</ele>
        <time>2019-06-02T11:01:43Z</time>
      </trkpt>
      <trkpt lat="42.02648" lon="-8.6419">
        <ele>47.72</ele>
        <time>2019-06-02T11:01:47Z</time>
      </trkpt>
      <trkpt lat="42.02653" lon="-8.64188">
        <ele>48.2</ele>
        <time>2019-06-02T11:01:51Z</time>
      </trkpt>
      <trkpt lat="42.02656" lon="-8.64188">
        <ele>48.68</ele>
        <time>2019-06-02T11:01:53Z</time>
      </trkpt>
      <trkpt lat="42.02659" lon="-8.64189">
        <ele>48.68</ele>
        <time>2019-06-02T11:01:55Z</time>
      </trkpt>
      <trkpt lat="42.02667" lon="-8.64185">
        <ele>49.65</ele>
        <time>2019-06-02T11:02:07Z</time>
      </trkpt>
      <trkpt lat="42.02671" lon="-8.64182">
        <ele>50.13</ele>
        <time>2019-06-02T11:02:12Z</time>
      </trkpt>
      <trkpt lat="42.02674" lon="-8.64178">
        <ele>50.13</ele>
        <time>2019-06-02T11:02:16Z</time>
      </trkpt>
      <trkpt lat="42.02681" lon="-8.64168">
        <ele>49.65</ele>
        <time>2019-06-02T11:02:27Z</time>
      </trkpt>
      <trkpt lat="42.02693" lon="-8.64175">
        <ele>49.65</ele>
        <time>2019-06-02T11:02:38Z</time>
      </trkpt>
      <trkpt lat="42.02702" lon="-8.64197">
        <ele>50.13</ele>
        <time>2019-06-02T11:02:55Z</time>
      </trkpt>
      <trkpt lat="42.02704" lon="-8.64198">
        <ele>50.13</ele>
        <time>2019-06-02T11:02:57Z</time>
      </trkpt>
      <trkpt lat="42.02714" lon="-8.64203">
        <ele>50.13</ele>
        <time>2019-06-02T11:03:12Z</time>
      </trkpt>
      <trkpt lat="42.02718" lon="-8.64205">
        <ele>50.13</ele>
        <time>2019-06-02T11:03:27Z</time>
      </trkpt>
      <trkpt lat="42.02722" lon="-8.64213">
        <ele>50.13</ele>
        <time>2019-06-02T11:03:34Z</time>
      </trkpt>
      <trkpt lat="42.02726" lon="-8.64223">
        <ele>50.61</ele>
        <time>2019-06-02T11:03:44Z</time>
      </trkpt>
      <trkpt lat="42.02743" lon="-8.64234">
        <ele>51.09</ele>
        <time>2019-06-02T11:04:00Z</time>
      </trkpt>
      <trkpt lat="42.02758" lon="-8.64246">
        <ele>52.53</ele>
        <time>2019-06-02T11:04:17Z</time>
      </trkpt>
      <trkpt lat="42.02765" lon="-8.64253">
        <ele>53.97</ele>
        <time>2019-06-02T11:04:30Z</time>
      </trkpt>
      <trkpt lat="42.02778" lon="-8.64261">
        <ele>54.93</ele>
        <time>2019-06-02T11:04:45Z</time>
      </trkpt>
      <trkpt lat="42.02795" lon="-8.64273">
        <ele>55.89</ele>
        <time>2019-06-02T11:05:02Z</time>
      </trkpt>
      <trkpt lat="42.0281" lon="-8.64286">
        <ele>56.37</ele>
        <time>2019-06-02T11:05:18Z</time>
      </trkpt>
      <trkpt lat="42.0282" lon="-8.64296">
        <ele>57.82</ele>
        <time>2019-06-02T11:05:31Z</time>
      </trkpt>
      <trkpt lat="42.02827" lon="-8.64306">
        <ele>58.78</ele>
        <time>2019-06-02T11:05:41Z</time>
      </trkpt>
      <trkpt lat="42.02837" lon="-8.64313">
        <ele>58.78</ele>
        <time>2019-06-02T11:05:51Z</time>
      </trkpt>
      <trkpt lat="42.02852" lon="-8.64324">
        <ele>59.74</ele>
        <time>2019-06-02T11:06:05Z</time>
      </trkpt>
      <trkpt lat="42.02857" lon="-8.6433">
        <ele>60.7</ele>
        <time>2019-06-02T11:06:21Z</time>
      </trkpt>
      <trkpt lat="42.0286" lon="-8.64331">
        <ele>60.22</ele>
        <time>2019-06-02T11:06:30Z</time>
      </trkpt>
      <trkpt lat="42.02873" lon="-8.64338">
        <ele>61.18</ele>
        <time>2019-06-02T11:06:45Z</time>
      </trkpt>
      <trkpt lat="42.02884" lon="-8.64344">
        <ele>61.66</ele>
        <time>2019-06-02T11:06:57Z</time>
      </trkpt>
      <trkpt lat="42.02891" lon="-8.64349">
        <ele>62.14</ele>
        <time>2019-06-02T11:07:04Z</time>
      </trkpt>
      <trkpt lat="42.02903" lon="-8.64359">
        <ele>63.58</ele>
        <time>2019-06-02T11:07:17Z</time>
      </trkpt>
      <trkpt lat="42.02915" lon="-8.64369">
        <ele>64.07</ele>
        <time>2019-06-02T11:07:32Z</time>
      </trkpt>
      <trkpt lat="42.02932" lon="-8.6438">
        <ele>65.03</ele>
        <time>2019-06-02T11:07:46Z</time>
      </trkpt>
      <trkpt lat="42.02947" lon="-8.64386">
        <ele>65.03</ele>
        <time>2019-06-02T11:08:00Z</time>
      </trkpt>
      <trkpt lat="42.02949" lon="-8.64386">
        <ele>64.55</ele>
        <time>2019-06-02T11:08:05Z</time>
      </trkpt>
      <trkpt lat="42.02954" lon="-8.64386">
        <ele>64.55</ele>
        <time>2019-06-02T11:08:09Z</time>
      </trkpt>
      <trkpt lat="42.02963" lon="-8.64388">
        <ele>64.55</ele>
        <time>2019-06-02T11:08:17Z</time>
      </trkpt>
      <trkpt lat="42.02974" lon="-8.64394">
        <ele>63.58</ele>
        <time>2019-06-02T11:08:29Z</time>
      </trkpt>
      <trkpt lat="42.02975" lon="-8.64393">
        <ele>63.58</ele>
        <time>2019-06-02T11:08:30Z</time>
      </trkpt>
      <trkpt lat="42.02987" lon="-8.64386">
        <ele>62.14</ele>
        <time>2019-06-02T11:08:43Z</time>
      </trkpt>
      <trkpt lat="42.02999" lon="-8.64383">
        <ele>61.66</ele>
        <time>2019-06-02T11:08:57Z</time>
      </trkpt>
      <trkpt lat="42.03005" lon="-8.64402">
        <ele>65.03</ele>
        <time>2019-06-02T11:09:10Z</time>
      </trkpt>
      <trkpt lat="42.03012" lon="-8.64409">
        <ele>65.03</ele>
        <time>2019-06-02T11:09:13Z</time>
      </trkpt>
      <trkpt lat="42.03021" lon="-8.64417">
        <ele>65.51</ele>
        <time>2019-06-02T11:09:27Z</time>
      </trkpt>
      <trkpt lat="42.03025" lon="-8.64428">
        <ele>67.43</ele>
        <time>2019-06-02T11:09:41Z</time>
      </trkpt>
      <trkpt lat="42.03031" lon="-8.64443">
        <ele>68.39</ele>
        <time>2019-06-02T11:09:57Z</time>
      </trkpt>
      <trkpt lat="42.03035" lon="-8.64468">
        <ele>67.91</ele>
        <time>2019-06-02T11:10:14Z</time>
      </trkpt>
      <trkpt lat="42.03037" lon="-8.64469">
        <ele>67.91</ele>
        <time>2019-06-02T11:10:21Z</time>
      </trkpt>
      <trkpt lat="42.03043" lon="-8.6447">
        <ele>67.91</ele>
        <time>2019-06-02T11:10:32Z</time>
      </trkpt>
      <trkpt lat="42.0306" lon="-8.64476">
        <ele>67.43</ele>
        <time>2019-06-02T11:10:45Z</time>
      </trkpt>
      <trkpt lat="42.03065" lon="-8.64484">
        <ele>67.91</ele>
        <time>2019-06-02T11:10:55Z</time>
      </trkpt>
      <trkpt lat="42.03074" lon="-8.64494">
        <ele>68.39</ele>
        <time>2019-06-02T11:11:09Z</time>
      </trkpt>
      <trkpt lat="42.03075" lon="-8.64498">
        <ele>67.91</ele>
        <time>2019-06-02T11:11:29Z</time>
      </trkpt>
      <trkpt lat="42.03079" lon="-8.64498">
        <ele>68.39</ele>
        <time>2019-06-02T11:11:42Z</time>
      </trkpt>
      <trkpt lat="42.03091" lon="-8.64507">
        <ele>67.91</ele>
        <time>2019-06-02T11:11:56Z</time>
      </trkpt>
      <trkpt lat="42.03106" lon="-8.64506">
        <ele>67.43</ele>
        <time>2019-06-02T11:12:11Z</time>
      </trkpt>
      <trkpt lat="42.03116" lon="-8.64509">
        <ele>66.95</ele>
        <time>2019-06-02T11:12:23Z</time>
      </trkpt>
      <trkpt lat="42.03128" lon="-8.64513">
        <ele>66.95</ele>
        <time>2019-06-02T11:12:39Z</time>
      </trkpt>
      <trkpt lat="42.03148" lon="-8.64516">
        <ele>66.95</ele>
        <time>2019-06-02T11:12:52Z</time>
      </trkpt>
      <trkpt lat="42.03156" lon="-8.64519">
        <ele>66.95</ele>
        <time>2019-06-02T11:13:08Z</time>
      </trkpt>
      <trkpt lat="42.03164" lon="-8.64522">
        <ele>66.95</ele>
        <time>2019-06-02T11:13:25Z</time>
      </trkpt>
      <trkpt lat="42.03172" lon="-8.64523">
        <ele>66.95</ele>
        <time>2019-06-02T11:13:39Z</time>
      </trkpt>
      <trkpt lat="42.03183" lon="-8.64529">
        <ele>67.43</ele>
        <time>2019-06-02T11:13:54Z</time>
      </trkpt>
      <trkpt lat="42.03198" lon="-8.64535">
        <ele>68.39</ele>
        <time>2019-06-02T11:14:08Z</time>
      </trkpt>
      <trkpt lat="42.03203" lon="-8.64537">
        <ele>67.91</ele>
        <time>2019-06-02T11:14:26Z</time>
      </trkpt>
      <trkpt lat="42.03207" lon="-8.64537">
        <ele>67.91</ele>
        <time>2019-06-02T11:14:38Z</time>
      </trkpt>
      <trkpt lat="42.03208" lon="-8.64537">
        <ele>67.91</ele>
        <time>2019-06-02T11:14:39Z</time>
      </trkpt>
      <trkpt lat="42.03223" lon="-8.64548">
        <ele>68.39</ele>
        <time>2019-06-02T11:14:54Z</time>
      </trkpt>
      <trkpt lat="42.03229" lon="-8.64552">
        <ele>68.87</ele>
        <time>2019-06-02T11:15:03Z</time>
      </trkpt>
      <trkpt lat="42.03242" lon="-8.64555">
        <ele>68.87</ele>
        <time>2019-06-02T11:15:17Z</time>
      </trkpt>
      <trkpt lat="42.03248" lon="-8.64558">
        <ele>68.87</ele>
        <time>2019-06-02T11:15:24Z</time>
      </trkpt>
      <trkpt lat="42.03257" lon="-8.64561">
        <ele>68.39</ele>
        <time>2019-06-02T11:15:36Z</time>
      </trkpt>
      <trkpt lat="42.03265" lon="-8.64569">
        <ele>66.95</ele>
        <time>2019-06-02T11:15:46Z</time>
      </trkpt>
      <trkpt lat="42.03286" lon="-8.64571">
        <ele>65.03</ele>
        <time>2019-06-02T11:16:01Z</time>
      </trkpt>
      <trkpt lat="42.03288" lon="-8.6457">
        <ele>65.51</ele>
        <time>2019-06-02T11:16:27Z</time>
      </trkpt>
      <trkpt lat="42.0329" lon="-8.64563">
        <ele>64.55</ele>
        <time>2019-06-02T11:16:38Z</time>
      </trkpt>
      <trkpt lat="42.03293" lon="-8.64556">
        <ele>63.58</ele>
        <time>2019-06-02T11:16:45Z</time>
      </trkpt>
      <trkpt lat="42.03291" lon="-8.64544">
        <ele>62.14</ele>
        <time>2019-06-02T11:16:55Z</time>
      </trkpt>
      <trkpt lat="42.0329" lon="-8.64522">
        <ele>60.7</ele>
        <time>2019-06-02T11:17:08Z</time>
      </trkpt>
      <trkpt lat="42.03303" lon="-8.6451">
        <ele>59.74</ele>
        <time>2019-06-02T11:17:19Z</time>
      </trkpt>
      <trkpt lat="42.03314" lon="-8.64516">
        <ele>57.34</ele>
        <time>2019-06-02T11:17:33Z</time>
      </trkpt>
      <trkpt lat="42.03321" lon="-8.6452">
        <ele>53.49</ele>
        <time>2019-06-02T11:17:53Z</time>
      </trkpt>
      <trkpt lat="42.03322" lon="-8.6452">
        <ele>52.05</ele>
        <time>2019-06-02T11:17:59Z</time>
      </trkpt>
      <trkpt lat="42.03326" lon="-8.6452">
        <ele>49.65</ele>
        <time>2019-06-02T11:18:15Z</time>
      </trkpt>
      <trkpt lat="42.03345" lon="-8.64442">
        <ele>49.16</ele>
        <time>2019-06-02T11:18:22Z</time>
      </trkpt>
      <trkpt lat="42.03317" lon="-8.64488">
        <ele>49.16</ele>
        <time>2019-06-02T11:18:32Z</time>
      </trkpt>
      <trkpt lat="42.03315" lon="-8.64487">
        <ele>49.16</ele>
        <time>2019-06-02T11:18:34Z</time>
      </trkpt>
      <trkpt lat="42.03316" lon="-8.64481">
        <ele>47.72</ele>
        <time>2019-06-02T11:18:44Z</time>
      </trkpt>
      <trkpt lat="42.03328" lon="-8.64485">
        <ele>47.24</ele>
        <time>2019-06-02T11:18:52Z</time>
      </trkpt>
      <trkpt lat="42.03331" lon="-8.64486">
        <ele>47.24</ele>
        <time>2019-06-02T11:18:54Z</time>
      </trkpt>
      <trkpt lat="42.03347" lon="-8.64496">
        <ele>45.8</ele>
        <time>2019-06-02T11:19:08Z</time>
      </trkpt>
      <trkpt lat="42.03353" lon="-8.64497">
        <ele>45.8</ele>
        <time>2019-06-02T11:19:20Z</time>
      </trkpt>
      <trkpt lat="42.03356" lon="-8.64493">
        <ele>45.32</ele>
        <time>2019-06-02T11:19:24Z</time>
      </trkpt>
      <trkpt lat="42.03365" lon="-8.64479">
        <ele>43.4</ele>
        <time>2019-06-02T11:19:37Z</time>
      </trkpt>
      <trkpt lat="42.03371" lon="-8.64472">
        <ele>40.99</ele>
        <time>2019-06-02T11:19:51Z</time>
      </trkpt>
      <trkpt lat="42.0338" lon="-8.64467">
        <ele>38.59</ele>
        <time>2019-06-02T11:20:02Z</time>
      </trkpt>
      <trkpt lat="42.03393" lon="-8.64455">
        <ele>36.19</ele>
        <time>2019-06-02T11:20:18Z</time>
      </trkpt>
      <trkpt lat="42.03394" lon="-8.64453">
        <ele>35.23</ele>
        <time>2019-06-02T11:20:20Z</time>
      </trkpt>
      <trkpt lat="42.03398" lon="-8.6445">
        <ele>34.26</ele>
        <time>2019-06-02T11:20:32Z</time>
      </trkpt>
      <trkpt lat="42.03401" lon="-8.64443">
        <ele>33.3</ele>
        <time>2019-06-02T11:20:43Z</time>
      </trkpt>
      <trkpt lat="42.03406" lon="-8.64438">
        <ele>31.86</ele>
        <time>2019-06-02T11:20:55Z</time>
      </trkpt>
      <trkpt lat="42.03408" lon="-8.64438">
        <ele>31.86</ele>
        <time>2019-06-02T11:21:07Z</time>
      </trkpt>
      <trkpt lat="42.03409" lon="-8.64431">
        <ele>31.86</ele>
        <time>2019-06-02T11:21:20Z</time>
      </trkpt>
      <trkpt lat="42.03408" lon="-8.64428">
        <ele>30.42</ele>
        <time>2019-06-02T11:21:34Z</time>
      </trkpt>
      <trkpt lat="42.03406" lon="-8.64427">
        <ele>30.42</ele>
        <time>2019-06-02T11:22:10Z</time>
      </trkpt>
      <trkpt lat="42.03406" lon="-8.64424">
        <ele>30.9</ele>
        <time>2019-06-02T11:22:46Z</time>
      </trkpt>
      <trkpt lat="42.03406" lon="-8.64422">
        <ele>30.9</ele>
        <time>2019-06-02T11:23:24Z</time>
      </trkpt>
      <trkpt lat="42.03406" lon="-8.64422">
        <ele>30.42</ele>
        <time>2019-06-02T11:23:59Z</time>
      </trkpt>
      <trkpt lat="42.03408" lon="-8.64423">
        <ele>30.9</ele>
        <time>2019-06-02T11:24:34Z</time>
      </trkpt>
      <trkpt lat="42.03407" lon="-8.64421">
        <ele>30.9</ele>
        <time>2019-06-02T11:25:12Z</time>
      </trkpt>
      <trkpt lat="42.03405" lon="-8.64424">
        <ele>30.9</ele>
        <time>2019-06-02T11:25:54Z</time>
      </trkpt>
      <trkpt lat="42.03404" lon="-8.64423">
        <ele>30.9</ele>
        <time>2019-06-02T11:26:29Z</time>
      </trkpt>
      <trkpt lat="42.03405" lon="-8.64423">
        <ele>31.38</ele>
        <time>2019-06-02T11:27:01Z</time>
      </trkpt>
      <trkpt lat="42.03405" lon="-8.64423">
        <ele>30.9</ele>
        <time>2019-06-02T11:27:48Z</time>
      </trkpt>
      <trkpt lat="42.03404" lon="-8.64419">
        <ele>31.38</ele>
        <time>2019-06-02T11:28:19Z</time>
      </trkpt>
      <trkpt lat="42.03405" lon="-8.64425">
        <ele>30.9</ele>
        <time>2019-06-02T11:28:57Z</time>
      </trkpt>
      <trkpt lat="42.03403" lon="-8.64429">
        <ele>30.9</ele>
        <time>2019-06-02T11:29:40Z</time>
      </trkpt>
      <trkpt lat="42.03403" lon="-8.64433">
        <ele>30.9</ele>
        <time>2019-06-02T11:30:19Z</time>
      </trkpt>
      <trkpt lat="42.03402" lon="-8.64428">
        <ele>31.38</ele>
        <time>2019-06-02T11:31:02Z</time>
      </trkpt>
      <trkpt lat="42.03403" lon="-8.64427">
        <ele>31.38</ele>
        <time>2019-06-02T11:31:47Z</time>
      </trkpt>
      <trkpt lat="42.03403" lon="-8.64417">
        <ele>31.38</ele>
        <time>2019-06-02T11:32:26Z</time>
      </trkpt>
      <trkpt lat="42.03402" lon="-8.6442">
        <ele>31.38</ele>
        <time>2019-06-02T11:33:04Z</time>
      </trkpt>
      <trkpt lat="42.03406" lon="-8.64421">
        <ele>31.86</ele>
        <time>2019-06-02T11:33:49Z</time>
      </trkpt>
      <trkpt lat="42.03408" lon="-8.64422">
        <ele>32.34</ele>
        <time>2019-06-02T11:34:33Z</time>
      </trkpt>
      <trkpt lat="42.03406" lon="-8.64421">
        <ele>32.34</ele>
        <time>2019-06-02T11:35:11Z</time>
      </trkpt>
      <trkpt lat="42.03405" lon="-8.64415">
        <ele>32.34</ele>
        <time>2019-06-02T11:35:46Z</time>
      </trkpt>
      <trkpt lat="42.03403" lon="-8.64418">
        <ele>32.82</ele>
        <time>2019-06-02T11:36:31Z</time>
      </trkpt>
      <trkpt lat="42.034" lon="-8.64421">
        <ele>33.3</ele>
        <time>2019-06-02T11:37:09Z</time>
      </trkpt>
      <trkpt lat="42.03405" lon="-8.64425">
        <ele>32.82</ele>
        <time>2019-06-02T11:37:43Z</time>
      </trkpt>
      <trkpt lat="42.03411" lon="-8.64426">
        <ele>32.82</ele>
        <time>2019-06-02T11:38:12Z</time>
      </trkpt>
      <trkpt lat="42.03411" lon="-8.64424">
        <ele>33.3</ele>
        <time>2019-06-02T11:38:40Z</time>
      </trkpt>
      <trkpt lat="42.03407" lon="-8.64424">
        <ele>32.82</ele>
        <time>2019-06-02T11:39:10Z</time>
      </trkpt>
      <trkpt lat="42.03406" lon="-8.64424">
        <ele>33.3</ele>
        <time>2019-06-02T11:39:42Z</time>
      </trkpt>
      <trkpt lat="42.03407" lon="-8.64424">
        <ele>33.78</ele>
        <time>2019-06-02T11:40:20Z</time>
      </trkpt>
      <trkpt lat="42.0341" lon="-8.64424">
        <ele>33.78</ele>
        <time>2019-06-02T11:41:01Z</time>
      </trkpt>
      <trkpt lat="42.03412" lon="-8.64425">
        <ele>34.26</ele>
        <time>2019-06-02T11:41:41Z</time>
      </trkpt>
      <trkpt lat="42.03412" lon="-8.64428">
        <ele>34.26</ele>
        <time>2019-06-02T11:42:11Z</time>
      </trkpt>
      <trkpt lat="42.0341" lon="-8.64424">
        <ele>35.23</ele>
        <time>2019-06-02T11:42:37Z</time>
      </trkpt>
      <trkpt lat="42.0341" lon="-8.64427">
        <ele>36.19</ele>
        <time>2019-06-02T11:42:50Z</time>
      </trkpt>
      <trkpt lat="42.03408" lon="-8.6443">
        <ele>35.71</ele>
        <time>2019-06-02T11:43:08Z</time>
      </trkpt>
      <trkpt lat="42.03413" lon="-8.64436">
        <ele>34.26</ele>
        <time>2019-06-02T11:43:22Z</time>
      </trkpt>
      <trkpt lat="42.03417" lon="-8.64433">
        <ele>33.3</ele>
        <time>2019-06-02T11:43:28Z</time>
      </trkpt>
      <trkpt lat="42.03424" lon="-8.64442">
        <ele>33.3</ele>
        <time>2019-06-02T11:43:39Z</time>
      </trkpt>
      <trkpt lat="42.03432" lon="-8.64456">
        <ele>32.34</ele>
        <time>2019-06-02T11:43:51Z</time>
      </trkpt>
      <trkpt lat="42.03437" lon="-8.64467">
        <ele>31.86</ele>
        <time>2019-06-02T11:44:04Z</time>
      </trkpt>
      <trkpt lat="42.03444" lon="-8.64481">
        <ele>29.94</ele>
        <time>2019-06-02T11:44:17Z</time>
      </trkpt>
      <trkpt lat="42.03454" lon="-8.64488">
        <ele>29.94</ele>
        <time>2019-06-02T11:44:27Z</time>
      </trkpt>
      <trkpt lat="42.03458" lon="-8.64495">
        <ele>28.98</ele>
        <time>2019-06-02T11:44:34Z</time>
      </trkpt>
      <trkpt lat="42.03468" lon="-8.64509">
        <ele>28.02</ele>
        <time>2019-06-02T11:44:45Z</time>
      </trkpt>
      <trkpt lat="42.0348" lon="-8.64518">
        <ele>27.05</ele>
        <time>2019-06-02T11:44:55Z</time>
      </trkpt>
      <trkpt lat="42.03495" lon="-8.64533">
        <ele>26.57</ele>
        <time>2019-06-02T11:45:09Z</time>
      </trkpt>
      <trkpt lat="42.03498" lon="-8.64535">
        <ele>26.57</ele>
        <time>2019-06-02T11:45:18Z</time>
      </trkpt>
      <trkpt lat="42.03506" lon="-8.64534">
        <ele>26.09</ele>
        <time>2019-06-02T11:45:33Z</time>
      </trkpt>
      <trkpt lat="42.03507" lon="-8.64534">
        <ele>26.57</ele>
        <time>2019-06-02T11:45:35Z</time>
      </trkpt>
      <trkpt lat="42.03514" lon="-8.64541">
        <ele>26.57</ele>
        <time>2019-06-02T11:45:47Z</time>
      </trkpt>
      <trkpt lat="42.03507" lon="-8.64538">
        <ele>26.09</ele>
        <time>2019-06-02T11:46:06Z</time>
      </trkpt>
      <trkpt lat="42.03513" lon="-8.6454">
        <ele>26.57</ele>
        <time>2019-06-02T11:46:23Z</time>
      </trkpt>
      <trkpt lat="42.03513" lon="-8.64542">
        <ele>26.09</ele>
        <time>2019-06-02T11:46:36Z</time>
      </trkpt>
      <trkpt lat="42.03518" lon="-8.64547">
        <ele>25.61</ele>
        <time>2019-06-02T11:46:53Z</time>
      </trkpt>
      <trkpt lat="42.03521" lon="-8.64556">
        <ele>26.09</ele>
        <time>2019-06-02T11:47:03Z</time>
      </trkpt>
      <trkpt lat="42.03516" lon="-8.64553">
        <ele>26.09</ele>
        <time>2019-06-02T11:47:18Z</time>
      </trkpt>
      <trkpt lat="42.03515" lon="-8.64551">
        <ele>26.57</ele>
        <time>2019-06-02T11:47:20Z</time>
      </trkpt>
      <trkpt lat="42.03516" lon="-8.64541">
        <ele>26.09</ele>
        <time>2019-06-02T11:47:34Z</time>
      </trkpt>
      <trkpt lat="42.0352" lon="-8.64536">
        <ele>25.61</ele>
        <time>2019-06-02T11:47:47Z</time>
      </trkpt>
      <trkpt lat="42.03529" lon="-8.64541">
        <ele>26.09</ele>
        <time>2019-06-02T11:47:58Z</time>
      </trkpt>
      <trkpt lat="42.03534" lon="-8.64545">
        <ele>25.61</ele>
        <time>2019-06-02T11:48:06Z</time>
      </trkpt>
      <trkpt lat="42.03543" lon="-8.64554">
        <ele>25.61</ele>
        <time>2019-06-02T11:48:19Z</time>
      </trkpt>
      <trkpt lat="42.03548" lon="-8.64561">
        <ele>26.09</ele>
        <time>2019-06-02T11:48:32Z</time>
      </trkpt>
      <trkpt lat="42.03549" lon="-8.64565">
        <ele>25.13</ele>
        <time>2019-06-02T11:48:46Z</time>
      </trkpt>
      <trkpt lat="42.03554" lon="-8.64567">
        <ele>24.65</ele>
        <time>2019-06-02T11:48:58Z</time>
      </trkpt>
      <trkpt lat="42.03562" lon="-8.64573">
        <ele>25.13</ele>
        <time>2019-06-02T11:49:08Z</time>
      </trkpt>
      <trkpt lat="42.03567" lon="-8.64582">
        <ele>25.13</ele>
        <time>2019-06-02T11:49:18Z</time>
      </trkpt>
      <trkpt lat="42.03577" lon="-8.64591">
        <ele>24.65</ele>
        <time>2019-06-02T11:49:30Z</time>
      </trkpt>
      <trkpt lat="42.03588" lon="-8.64603">
        <ele>24.17</ele>
        <time>2019-06-02T11:49:45Z</time>
      </trkpt>
      <trkpt lat="42.03599" lon="-8.64613">
        <ele>24.65</ele>
        <time>2019-06-02T11:49:57Z</time>
      </trkpt>
      <trkpt lat="42.036" lon="-8.64614">
        <ele>23.69</ele>
        <time>2019-06-02T11:49:58Z</time>
      </trkpt>
      <trkpt lat="42.03605" lon="-8.64617">
        <ele>23.69</ele>
        <time>2019-06-02T11:50:05Z</time>
      </trkpt>
      <trkpt lat="42.03607" lon="-8.64629">
        <ele>23.21</ele>
        <time>2019-06-02T11:50:12Z</time>
      </trkpt>
      <trkpt lat="42.03608" lon="-8.6464">
        <ele>23.21</ele>
        <time>2019-06-02T11:50:26Z</time>
      </trkpt>
      <trkpt lat="42.0361" lon="-8.64642">
        <ele>22.73</ele>
        <time>2019-06-02T11:50:46Z</time>
      </trkpt>
      <trkpt lat="42.03614" lon="-8.64647">
        <ele>21.77</ele>
        <time>2019-06-02T11:50:52Z</time>
      </trkpt>
      <trkpt lat="42.03625" lon="-8.64661">
        <ele>22.73</ele>
        <time>2019-06-02T11:51:06Z</time>
      </trkpt>
      <trkpt lat="42.0363" lon="-8.64665">
        <ele>22.73</ele>
        <time>2019-06-02T11:51:24Z</time>
      </trkpt>
      <trkpt lat="42.03643" lon="-8.64684">
        <ele>21.77</ele>
        <time>2019-06-02T11:51:40Z</time>
      </trkpt>
      <trkpt lat="42.03651" lon="-8.6469">
        <ele>21.77</ele>
        <time>2019-06-02T11:51:58Z</time>
      </trkpt>
      <trkpt lat="42.03657" lon="-8.64698">
        <ele>21.29</ele>
        <time>2019-06-02T11:52:10Z</time>
      </trkpt>
      <trkpt lat="42.03667" lon="-8.64711">
        <ele>21.29</ele>
        <time>2019-06-02T11:52:23Z</time>
      </trkpt>
      <trkpt lat="42.03678" lon="-8.64723">
        <ele>20.81</ele>
        <time>2019-06-02T11:52:37Z</time>
      </trkpt>
      <trkpt lat="42.03689" lon="-8.64736">
        <ele>20.32</ele>
        <time>2019-06-02T11:52:49Z</time>
      </trkpt>
      <trkpt lat="42.03695" lon="-8.6474">
        <ele>20.81</ele>
        <time>2019-06-02T11:52:56Z</time>
      </trkpt>
      <trkpt lat="42.03697" lon="-8.64744">
        <ele>20.32</ele>
        <time>2019-06-02T11:52:59Z</time>
      </trkpt>
      <trkpt lat="42.03708" lon="-8.64758">
        <ele>20.32</ele>
        <time>2019-06-02T11:53:11Z</time>
      </trkpt>
      <trkpt lat="42.03719" lon="-8.64772">
        <ele>19.36</ele>
        <time>2019-06-02T11:53:23Z</time>
      </trkpt>
      <trkpt lat="42.0373" lon="-8.64786">
        <ele>19.36</ele>
        <time>2019-06-02T11:53:35Z</time>
      </trkpt>
      <trkpt lat="42.03737" lon="-8.64794">
        <ele>19.36</ele>
        <time>2019-06-02T11:53:47Z</time>
      </trkpt>
      <trkpt lat="42.03743" lon="-8.64806">
        <ele>18.88</ele>
        <time>2019-06-02T11:53:58Z</time>
      </trkpt>
      <trkpt lat="42.03746" lon="-8.64809">
        <ele>18.88</ele>
        <time>2019-06-02T11:54:01Z</time>
      </trkpt>
      <trkpt lat="42.03764" lon="-8.6481">
        <ele>18.4</ele>
        <time>2019-06-02T11:54:17Z</time>
      </trkpt>
      <trkpt lat="42.0377" lon="-8.64809">
        <ele>18.4</ele>
        <time>2019-06-02T11:54:28Z</time>
      </trkpt>
      <trkpt lat="42.03772" lon="-8.64811">
        <ele>17.92</ele>
        <time>2019-06-02T11:54:49Z</time>
      </trkpt>
      <trkpt lat="42.03778" lon="-8.64806">
        <ele>17.92</ele>
        <time>2019-06-02T11:54:58Z</time>
      </trkpt>
      <trkpt lat="42.03791" lon="-8.64799">
        <ele>17.92</ele>
        <time>2019-06-02T11:55:11Z</time>
      </trkpt>
      <trkpt lat="42.03799" lon="-8.64797">
        <ele>17.44</ele>
        <time>2019-06-02T11:55:30Z</time>
      </trkpt>
      <trkpt lat="42.03804" lon="-8.64799">
        <ele>17.44</ele>
        <time>2019-06-02T11:55:48Z</time>
      </trkpt>
      <trkpt lat="42.03815" lon="-8.6479">
        <ele>16.96</ele>
        <time>2019-06-02T11:56:01Z</time>
      </trkpt>
      <trkpt lat="42.03818" lon="-8.64789">
        <ele>17.44</ele>
        <time>2019-06-02T11:56:07Z</time>
      </trkpt>
      <trkpt lat="42.0383" lon="-8.64785">
        <ele>16.96</ele>
        <time>2019-06-02T11:56:22Z</time>
      </trkpt>
      <trkpt lat="42.03835" lon="-8.64784">
        <ele>16.96</ele>
        <time>2019-06-02T11:56:38Z</time>
      </trkpt>
      <trkpt lat="42.0384" lon="-8.64783">
        <ele>16.96</ele>
        <time>2019-06-02T11:56:51Z</time>
      </trkpt>
      <trkpt lat="42.03847" lon="-8.64781">
        <ele>17.44</ele>
        <time>2019-06-02T11:57:11Z</time>
      </trkpt>
      <trkpt lat="42.03851" lon="-8.64782">
        <ele>16.48</ele>
        <time>2019-06-02T11:57:23Z</time>
      </trkpt>
      <trkpt lat="42.03863" lon="-8.64781">
        <ele>16.96</ele>
        <time>2019-06-02T11:57:37Z</time>
      </trkpt>
      <trkpt lat="42.03874" lon="-8.64785">
        <ele>16.96</ele>
        <time>2019-06-02T11:57:52Z</time>
      </trkpt>
      <trkpt lat="42.03883" lon="-8.64787">
        <ele>16.96</ele>
        <time>2019-06-02T11:58:03Z</time>
      </trkpt>
      <trkpt lat="42.03887" lon="-8.64788">
        <ele>16.96</ele>
        <time>2019-06-02T11:58:08Z</time>
      </trkpt>
      <trkpt lat="42.03899" lon="-8.64787">
        <ele>17.92</ele>
        <time>2019-06-02T11:58:20Z</time>
      </trkpt>
      <trkpt lat="42.03913" lon="-8.64786">
        <ele>17.44</ele>
        <time>2019-06-02T11:58:34Z</time>
      </trkpt>
      <trkpt lat="42.03919" lon="-8.64788">
        <ele>17.44</ele>
        <time>2019-06-02T11:58:41Z</time>
      </trkpt>
      <trkpt lat="42.03922" lon="-8.64789">
        <ele>17.44</ele>
        <time>2019-06-02T11:58:44Z</time>
      </trkpt>
      <trkpt lat="42.0394" lon="-8.64792">
        <ele>17.44</ele>
        <time>2019-06-02T11:58:59Z</time>
      </trkpt>
      <trkpt lat="42.03952" lon="-8.64796">
        <ele>17.44</ele>
        <time>2019-06-02T11:59:13Z</time>
      </trkpt>
      <trkpt lat="42.03968" lon="-8.64798">
        <ele>16.96</ele>
        <time>2019-06-02T11:59:26Z</time>
      </trkpt>
      <trkpt lat="42.03984" lon="-8.64794">
        <ele>17.92</ele>
        <time>2019-06-02T11:59:36Z</time>
      </trkpt>
      <trkpt lat="42.03997" lon="-8.64794">
        <ele>17.92</ele>
        <time>2019-06-02T11:59:47Z</time>
      </trkpt>
      <trkpt lat="42.04007" lon="-8.64795">
        <ele>18.4</ele>
        <time>2019-06-02T11:59:58Z</time>
      </trkpt>
      <trkpt lat="42.04022" lon="-8.648">
        <ele>18.4</ele>
        <time>2019-06-02T12:00:13Z</time>
      </trkpt>
      <trkpt lat="42.04032" lon="-8.64803">
        <ele>18.4</ele>
        <time>2019-06-02T12:00:24Z</time>
      </trkpt>
      <trkpt lat="42.04044" lon="-8.64801">
        <ele>18.88</ele>
        <time>2019-06-02T12:00:35Z</time>
      </trkpt>
      <trkpt lat="42.0406" lon="-8.64801">
        <ele>18.4</ele>
        <time>2019-06-02T12:00:48Z</time>
      </trkpt>
      <trkpt lat="42.04075" lon="-8.64797">
        <ele>18.4</ele>
        <time>2019-06-02T12:00:59Z</time>
      </trkpt>
      <trkpt lat="42.04083" lon="-8.64783">
        <ele>17.92</ele>
        <time>2019-06-02T12:01:08Z</time>
      </trkpt>
      <trkpt lat="42.04086" lon="-8.64769">
        <ele>17.44</ele>
        <time>2019-06-02T12:01:19Z</time>
      </trkpt>
      <trkpt lat="42.04088" lon="-8.64765">
        <ele>17.44</ele>
        <time>2019-06-02T12:01:34Z</time>
      </trkpt>
      <trkpt lat="42.0409" lon="-8.64766">
        <ele>16.96</ele>
        <time>2019-06-02T12:01:40Z</time>
      </trkpt>
      <trkpt lat="42.04094" lon="-8.64764">
        <ele>16.96</ele>
        <time>2019-06-02T12:02:02Z</time>
      </trkpt>
      <trkpt lat="42.04091" lon="-8.64762">
        <ele>17.44</ele>
        <time>2019-06-02T12:02:26Z</time>
      </trkpt>
      <trkpt lat="42.04092" lon="-8.64763">
        <ele>18.4</ele>
        <time>2019-06-02T12:02:30Z</time>
      </trkpt>
      <trkpt lat="42.04089" lon="-8.64752">
        <ele>17.44</ele>
        <time>2019-06-02T12:02:42Z</time>
      </trkpt>
      <trkpt lat="42.0408" lon="-8.64734">
        <ele>17.44</ele>
        <time>2019-06-02T12:02:57Z</time>
      </trkpt>
      <trkpt lat="42.04072" lon="-8.64717">
        <ele>17.44</ele>
        <time>2019-06-02T12:03:11Z</time>
      </trkpt>
      <trkpt lat="42.04063" lon="-8.64697">
        <ele>18.4</ele>
        <time>2019-06-02T12:03:26Z</time>
      </trkpt>
      <trkpt lat="42.04054" lon="-8.64683">
        <ele>19.84</ele>
        <time>2019-06-02T12:03:38Z</time>
      </trkpt>
      <trkpt lat="42.04052" lon="-8.6468">
        <ele>20.81</ele>
        <time>2019-06-02T12:03:41Z</time>
      </trkpt>
      <trkpt lat="42.0405" lon="-8.64676">
        <ele>19.84</ele>
        <time>2019-06-02T12:03:44Z</time>
      </trkpt>
      <trkpt lat="42.04042" lon="-8.64657">
        <ele>20.32</ele>
        <time>2019-06-02T12:03:58Z</time>
      </trkpt>
      <trkpt lat="42.0404" lon="-8.64645">
        <ele>20.32</ele>
        <time>2019-06-02T12:04:09Z</time>
      </trkpt>
      <trkpt lat="42.04037" lon="-8.64632">
        <ele>21.29</ele>
        <time>2019-06-02T12:04:18Z</time>
      </trkpt>
      <trkpt lat="42.04038" lon="-8.64625">
        <ele>20.32</ele>
        <time>2019-06-02T12:04:22Z</time>
      </trkpt>
      <trkpt lat="42.04039" lon="-8.64616">
        <ele>19.84</ele>
        <time>2019-06-02T12:04:27Z</time>
      </trkpt>
      <trkpt lat="42.04041" lon="-8.64592">
        <ele>17.92</ele>
        <time>2019-06-02T12:04:43Z</time>
      </trkpt>
      <trkpt lat="42.04044" lon="-8.64578">
        <ele>16.48</ele>
        <time>2019-06-02T12:04:53Z</time>
      </trkpt>
      <trkpt lat="42.0405" lon="-8.64564">
        <ele>14.08</ele>
        <time>2019-06-02T12:05:07Z</time>
      </trkpt>
      <trkpt lat="42.04054" lon="-8.64547">
        <ele>10.71</ele>
        <time>2019-06-02T12:05:20Z</time>
      </trkpt>
      <trkpt lat="42.0405" lon="-8.64531">
        <ele>10.71</ele>
        <time>2019-06-02T12:05:30Z</time>
      </trkpt>
      <trkpt lat="42.04047" lon="-8.64524">
        <ele>11.19</ele>
        <time>2019-06-02T12:05:35Z</time>
      </trkpt>
      <trkpt lat="42.04042" lon="-8.64509">
        <ele>11.19</ele>
        <time>2019-06-02T12:05:49Z</time>
      </trkpt>
      <trkpt lat="42.04034" lon="-8.64495">
        <ele>10.23</ele>
        <time>2019-06-02T12:06:03Z</time>
      </trkpt>
      <trkpt lat="42.0403" lon="-8.64486">
        <ele>8.79</ele>
        <time>2019-06-02T12:06:10Z</time>
      </trkpt>
      <trkpt lat="42.04027" lon="-8.6447">
        <ele>7.35</ele>
        <time>2019-06-02T12:06:22Z</time>
      </trkpt>
      <trkpt lat="42.04037" lon="-8.64459">
        <ele>8.79</ele>
        <time>2019-06-02T12:06:34Z</time>
      </trkpt>
      <trkpt lat="42.04042" lon="-8.64455">
        <ele>8.79</ele>
        <time>2019-06-02T12:06:49Z</time>
      </trkpt>
      <trkpt lat="42.04044" lon="-8.64453">
        <ele>9.27</ele>
        <time>2019-06-02T12:06:53Z</time>
      </trkpt>
      <trkpt lat="42.04056" lon="-8.64449">
        <ele>10.71</ele>
        <time>2019-06-02T12:07:06Z</time>
      </trkpt>
      <trkpt lat="42.04076" lon="-8.64445">
        <ele>10.23</ele>
        <time>2019-06-02T12:07:22Z</time>
      </trkpt>
      <trkpt lat="42.04091" lon="-8.64449">
        <ele>10.71</ele>
        <time>2019-06-02T12:07:36Z</time>
      </trkpt>
      <trkpt lat="42.04099" lon="-8.64456">
        <ele>11.67</ele>
        <time>2019-06-02T12:07:43Z</time>
      </trkpt>
      <trkpt lat="42.04113" lon="-8.64469">
        <ele>11.67</ele>
        <time>2019-06-02T12:07:57Z</time>
      </trkpt>
      <trkpt lat="42.04117" lon="-8.64472">
        <ele>11.67</ele>
        <time>2019-06-02T12:08:02Z</time>
      </trkpt>
      <trkpt lat="42.04124" lon="-8.64479">
        <ele>12.63</ele>
        <time>2019-06-02T12:08:11Z</time>
      </trkpt>
      <trkpt lat="42.04136" lon="-8.64494">
        <ele>13.12</ele>
        <time>2019-06-02T12:08:27Z</time>
      </trkpt>
      <trkpt lat="42.04143" lon="-8.64512">
        <ele>14.08</ele>
        <time>2019-06-02T12:08:40Z</time>
      </trkpt>
      <trkpt lat="42.04148" lon="-8.64532">
        <ele>14.56</ele>
        <time>2019-06-02T12:08:52Z</time>
      </trkpt>
      <trkpt lat="42.0415" lon="-8.64539">
        <ele>15.04</ele>
        <time>2019-06-02T12:08:58Z</time>
      </trkpt>
      <trkpt lat="42.04157" lon="-8.64556">
        <ele>14.08</ele>
        <time>2019-06-02T12:09:11Z</time>
      </trkpt>
      <trkpt lat="42.04164" lon="-8.64573">
        <ele>14.08</ele>
        <time>2019-06-02T12:09:24Z</time>
      </trkpt>
      <trkpt lat="42.04167" lon="-8.64584">
        <ele>14.56</ele>
        <time>2019-06-02T12:09:32Z</time>
      </trkpt>
      <trkpt lat="42.04165" lon="-8.64614">
        <ele>13.12</ele>
        <time>2019-06-02T12:09:50Z</time>
      </trkpt>
      <trkpt lat="42.04166" lon="-8.64627">
        <ele>12.15</ele>
        <time>2019-06-02T12:09:59Z</time>
      </trkpt>
      <trkpt lat="42.04173" lon="-8.64649">
        <ele>10.71</ele>
        <time>2019-06-02T12:10:14Z</time>
      </trkpt>
      <trkpt lat="42.04176" lon="-8.64656">
        <ele>10.71</ele>
        <time>2019-06-02T12:10:19Z</time>
      </trkpt>
      <trkpt lat="42.04186" lon="-8.64668">
        <ele>10.23</ele>
        <time>2019-06-02T12:10:32Z</time>
      </trkpt>
      <trkpt lat="42.04204" lon="-8.6468">
        <ele>10.23</ele>
        <time>2019-06-02T12:10:48Z</time>
      </trkpt>
      <trkpt lat="42.04214" lon="-8.64681">
        <ele>10.23</ele>
        <time>2019-06-02T12:11:01Z</time>
      </trkpt>
      <trkpt lat="42.04227" lon="-8.64678">
        <ele>9.27</ele>
        <time>2019-06-02T12:11:11Z</time>
      </trkpt>
      <trkpt lat="42.04243" lon="-8.64671">
        <ele>8.79</ele>
        <time>2019-06-02T12:11:24Z</time>
      </trkpt>
      <trkpt lat="42.04259" lon="-8.64667">
        <ele>9.27</ele>
        <time>2019-06-02T12:11:39Z</time>
      </trkpt>
      <trkpt lat="42.04261" lon="-8.64666">
        <ele>9.27</ele>
        <time>2019-06-02T12:11:41Z</time>
      </trkpt>
      <trkpt lat="42.04277" lon="-8.64662">
        <ele>9.27</ele>
        <time>2019-06-02T12:11:56Z</time>
      </trkpt>
      <trkpt lat="42.0428" lon="-8.6466">
        <ele>8.79</ele>
        <time>2019-06-02T12:11:58Z</time>
      </trkpt>
      <trkpt lat="42.04282" lon="-8.64658">
        <ele>8.79</ele>
        <time>2019-06-02T12:12:00Z</time>
      </trkpt>
      <trkpt lat="42.04295" lon="-8.64646">
        <ele>8.79</ele>
        <time>2019-06-02T12:12:12Z</time>
      </trkpt>
      <trkpt lat="42.04303" lon="-8.64629">
        <ele>8.31</ele>
        <time>2019-06-02T12:12:25Z</time>
      </trkpt>
      <trkpt lat="42.04311" lon="-8.64612">
        <ele>7.83</ele>
        <time>2019-06-02T12:12:37Z</time>
      </trkpt>
      <trkpt lat="42.04318" lon="-8.64597">
        <ele>7.35</ele>
        <time>2019-06-02T12:12:48Z</time>
      </trkpt>
      <trkpt lat="42.0433" lon="-8.6458">
        <ele>8.31</ele>
        <time>2019-06-02T12:13:02Z</time>
      </trkpt>
      <trkpt lat="42.0433" lon="-8.64579">
        <ele>8.31</ele>
        <time>2019-06-02T12:13:03Z</time>
      </trkpt>
      <trkpt lat="42.04342" lon="-8.64567">
        <ele>8.79</ele>
        <time>2019-06-02T12:13:16Z</time>
      </trkpt>
      <trkpt lat="42.04354" lon="-8.64567">
        <ele>8.31</ele>
        <time>2019-06-02T12:13:29Z</time>
      </trkpt>
      <trkpt lat="42.04359" lon="-8.64565">
        <ele>7.83</ele>
        <time>2019-06-02T12:13:35Z</time>
      </trkpt>
      <trkpt lat="42.04365" lon="-8.64551">
        <ele>9.27</ele>
        <time>2019-06-02T12:13:48Z</time>
      </trkpt>
      <trkpt lat="42.04375" lon="-8.64528">
        <ele>11.67</ele>
        <time>2019-06-02T12:14:06Z</time>
      </trkpt>
      <trkpt lat="42.04381" lon="-8.64525">
        <ele>12.15</ele>
        <time>2019-06-02T12:14:20Z</time>
      </trkpt>
      <trkpt lat="42.04394" lon="-8.64535">
        <ele>14.08</ele>
        <time>2019-06-02T12:14:38Z</time>
      </trkpt>
      <trkpt lat="42.04403" lon="-8.64536">
        <ele>13.6</ele>
        <time>2019-06-02T12:14:52Z</time>
      </trkpt>
      <trkpt lat="42.0442" lon="-8.64541">
        <ele>14.08</ele>
        <time>2019-06-02T12:15:07Z</time>
      </trkpt>
      <trkpt lat="42.04434" lon="-8.6455">
        <ele>15.52</ele>
        <time>2019-06-02T12:15:22Z</time>
      </trkpt>
      <trkpt lat="42.04444" lon="-8.64551">
        <ele>15.04</ele>
        <time>2019-06-02T12:15:41Z</time>
      </trkpt>
      <trkpt lat="42.04449" lon="-8.64557">
        <ele>15.52</ele>
        <time>2019-06-02T12:15:47Z</time>
      </trkpt>
      <trkpt lat="42.04456" lon="-8.64566">
        <ele>17.44</ele>
        <time>2019-06-02T12:15:58Z</time>
      </trkpt>
      <trkpt lat="42.0447" lon="-8.64573">
        <ele>18.4</ele>
        <time>2019-06-02T12:16:14Z</time>
      </trkpt>
      <trkpt lat="42.04477" lon="-8.64571">
        <ele>18.88</ele>
        <time>2019-06-02T12:16:25Z</time>
      </trkpt>
      <trkpt lat="42.04486" lon="-8.6456">
        <ele>20.81</ele>
        <time>2019-06-02T12:16:39Z</time>
      </trkpt>
      <trkpt lat="42.04493" lon="-8.64554">
        <ele>22.25</ele>
        <time>2019-06-02T12:16:52Z</time>
      </trkpt>
      <trkpt lat="42.04509" lon="-8.64555">
        <ele>24.17</ele>
        <time>2019-06-02T12:17:07Z</time>
      </trkpt>
      <trkpt lat="42.04512" lon="-8.64542">
        <ele>26.09</ele>
        <time>2019-06-02T12:17:21Z</time>
      </trkpt>
      <trkpt lat="42.04507" lon="-8.64529">
        <ele>27.05</ele>
        <time>2019-06-02T12:17:31Z</time>
      </trkpt>
      <trkpt lat="42.04499" lon="-8.64511">
        <ele>28.5</ele>
        <time>2019-06-02T12:17:46Z</time>
      </trkpt>
      <trkpt lat="42.04489" lon="-8.6449">
        <ele>29.46</ele>
        <time>2019-06-02T12:18:03Z</time>
      </trkpt>
      <trkpt lat="42.04485" lon="-8.6447">
        <ele>30.9</ele>
        <time>2019-06-02T12:18:20Z</time>
      </trkpt>
      <trkpt lat="42.04489" lon="-8.64463">
        <ele>32.34</ele>
        <time>2019-06-02T12:18:32Z</time>
      </trkpt>
      <trkpt lat="42.04502" lon="-8.64473">
        <ele>34.26</ele>
        <time>2019-06-02T12:18:50Z</time>
      </trkpt>
      <trkpt lat="42.04507" lon="-8.6448">
        <ele>35.23</ele>
        <time>2019-06-02T12:18:58Z</time>
      </trkpt>
      <trkpt lat="42.04518" lon="-8.6449">
        <ele>37.15</ele>
        <time>2019-06-02T12:19:14Z</time>
      </trkpt>
      <trkpt lat="42.04532" lon="-8.64501">
        <ele>39.07</ele>
        <time>2019-06-02T12:19:34Z</time>
      </trkpt>
      <trkpt lat="42.04546" lon="-8.6451">
        <ele>39.55</ele>
        <time>2019-06-02T12:19:50Z</time>
      </trkpt>
      <trkpt lat="42.0456" lon="-8.64521">
        <ele>41.95</ele>
        <time>2019-06-02T12:20:09Z</time>
      </trkpt>
      <trkpt lat="42.04578" lon="-8.64527">
        <ele>42.92</ele>
        <time>2019-06-02T12:20:25Z</time>
      </trkpt>
      <trkpt lat="42.04586" lon="-8.64533">
        <ele>44.84</ele>
        <time>2019-06-02T12:20:38Z</time>
      </trkpt>
      <trkpt lat="42.04601" lon="-8.64539">
        <ele>45.8</ele>
        <time>2019-06-02T12:20:52Z</time>
      </trkpt>
      <trkpt lat="42.0461" lon="-8.64535">
        <ele>47.24</ele>
        <time>2019-06-02T12:21:05Z</time>
      </trkpt>
      <trkpt lat="42.04613" lon="-8.64516">
        <ele>48.68</ele>
        <time>2019-06-02T12:21:22Z</time>
      </trkpt>
      <trkpt lat="42.04621" lon="-8.64508">
        <ele>50.13</ele>
        <time>2019-06-02T12:21:35Z</time>
      </trkpt>
      <trkpt lat="42.04626" lon="-8.64503">
        <ele>50.61</ele>
        <time>2019-06-02T12:21:48Z</time>
      </trkpt>
      <trkpt lat="42.04623" lon="-8.64497">
        <ele>51.09</ele>
        <time>2019-06-02T12:22:01Z</time>
      </trkpt>
      <trkpt lat="42.04623" lon="-8.64489">
        <ele>52.05</ele>
        <time>2019-06-02T12:22:10Z</time>
      </trkpt>
      <trkpt lat="42.04624" lon="-8.64484">
        <ele>52.05</ele>
        <time>2019-06-02T12:22:12Z</time>
      </trkpt>
      <trkpt lat="42.04632" lon="-8.64462">
        <ele>53.01</ele>
        <time>2019-06-02T12:22:24Z</time>
      </trkpt>
      <trkpt lat="42.04633" lon="-8.64461">
        <ele>53.01</ele>
        <time>2019-06-02T12:22:25Z</time>
      </trkpt>
      <trkpt lat="42.04634" lon="-8.64463">
        <ele>52.05</ele>
        <time>2019-06-02T12:22:40Z</time>
      </trkpt>
      <trkpt lat="42.04634" lon="-8.64466">
        <ele>52.05</ele>
        <time>2019-06-02T12:22:42Z</time>
      </trkpt>
      <trkpt lat="42.04631" lon="-8.64473">
        <ele>52.53</ele>
        <time>2019-06-02T12:22:49Z</time>
      </trkpt>
      <trkpt lat="42.04632" lon="-8.64479">
        <ele>51.57</ele>
        <time>2019-06-02T12:23:01Z</time>
      </trkpt>
      <trkpt lat="42.04636" lon="-8.64481">
        <ele>51.09</ele>
        <time>2019-06-02T12:27:15Z</time>
      </trkpt>
      <trkpt lat="42.04626" lon="-8.6448">
        <ele>52.53</ele>
        <time>2019-06-02T12:27:29Z</time>
      </trkpt>
      <trkpt lat="42.04632" lon="-8.64468">
        <ele>53.49</ele>
        <time>2019-06-02T12:27:35Z</time>
      </trkpt>
      <trkpt lat="42.04635" lon="-8.64456">
        <ele>53.01</ele>
        <time>2019-06-02T12:27:49Z</time>
      </trkpt>
      <trkpt lat="42.04638" lon="-8.64448">
        <ele>53.01</ele>
        <time>2019-06-02T12:28:01Z</time>
      </trkpt>
      <trkpt lat="42.04632" lon="-8.64436">
        <ele>52.53</ele>
        <time>2019-06-02T12:28:16Z</time>
      </trkpt>
      <trkpt lat="42.04627" lon="-8.64419">
        <ele>51.57</ele>
        <time>2019-06-02T12:28:30Z</time>
      </trkpt>
      <trkpt lat="42.04626" lon="-8.64413">
        <ele>50.13</ele>
        <time>2019-06-02T12:28:35Z</time>
      </trkpt>
      <trkpt lat="42.04619" lon="-8.64398">
        <ele>47.24</ele>
        <time>2019-06-02T12:28:50Z</time>
      </trkpt>
      <trkpt lat="42.04613" lon="-8.64385">
        <ele>45.32</ele>
        <time>2019-06-02T12:29:04Z</time>
      </trkpt>
      <trkpt lat="42.04618" lon="-8.64386">
        <ele>45.32</ele>
        <time>2019-06-02T12:29:20Z</time>
      </trkpt>
      <trkpt lat="42.04618" lon="-8.64387">
        <ele>44.84</ele>
        <time>2019-06-02T12:29:43Z</time>
      </trkpt>
      <trkpt lat="42.04618" lon="-8.64391">
        <ele>42.92</ele>
        <time>2019-06-02T12:30:06Z</time>
      </trkpt>
      <trkpt lat="42.04612" lon="-8.64393">
        <ele>44.36</ele>
        <time>2019-06-02T12:30:34Z</time>
      </trkpt>
      <trkpt lat="42.04613" lon="-8.64395">
        <ele>43.4</ele>
        <time>2019-06-02T12:31:11Z</time>
      </trkpt>
      <trkpt lat="42.04615" lon="-8.64386">
        <ele>43.4</ele>
        <time>2019-06-02T12:31:39Z</time>
      </trkpt>
      <trkpt lat="42.04613" lon="-8.64383">
        <ele>42.92</ele>
        <time>2019-06-02T12:32:09Z</time>
      </trkpt>
      <trkpt lat="42.04606" lon="-8.6438">
        <ele>43.4</ele>
        <time>2019-06-02T12:32:36Z</time>
      </trkpt>
      <trkpt lat="42.04613" lon="-8.64381">
        <ele>42.92</ele>
        <time>2019-06-02T12:32:52Z</time>
      </trkpt>
      <trkpt lat="42.04616" lon="-8.64376">
        <ele>42.44</ele>
        <time>2019-06-02T12:33:09Z</time>
      </trkpt>
      <trkpt lat="42.04614" lon="-8.64366">
        <ele>39.07</ele>
        <time>2019-06-02T12:33:20Z</time>
      </trkpt>
      <trkpt lat="42.04614" lon="-8.64351">
        <ele>36.67</ele>
        <time>2019-06-02T12:33:34Z</time>
      </trkpt>
      <trkpt lat="42.04614" lon="-8.64344">
        <ele>36.67</ele>
        <time>2019-06-02T12:33:49Z</time>
      </trkpt>
      <trkpt lat="42.04613" lon="-8.64351">
        <ele>36.67</ele>
        <time>2019-06-02T12:34:08Z</time>
      </trkpt>
      <trkpt lat="42.04615" lon="-8.64344">
        <ele>36.67</ele>
        <time>2019-06-02T12:34:36Z</time>
      </trkpt>
      <trkpt lat="42.04616" lon="-8.64352">
        <ele>36.67</ele>
        <time>2019-06-02T12:35:04Z</time>
      </trkpt>
      <trkpt lat="42.04611" lon="-8.64353">
        <ele>37.15</ele>
        <time>2019-06-02T12:35:24Z</time>
      </trkpt>
      <trkpt lat="42.04608" lon="-8.64358">
        <ele>37.15</ele>
        <time>2019-06-02T12:35:29Z</time>
      </trkpt>
      <trkpt lat="42.04602" lon="-8.6436">
        <ele>37.63</ele>
        <time>2019-06-02T12:35:40Z</time>
      </trkpt>
      <trkpt lat="42.04601" lon="-8.6436">
        <ele>38.11</ele>
        <time>2019-06-02T12:35:54Z</time>
      </trkpt>
      <trkpt lat="42.04601" lon="-8.64353">
        <ele>37.63</ele>
        <time>2019-06-02T12:36:22Z</time>
      </trkpt>
      <trkpt lat="42.046" lon="-8.64359">
        <ele>37.15</ele>
        <time>2019-06-02T12:36:53Z</time>
      </trkpt>
      <trkpt lat="42.04601" lon="-8.64356">
        <ele>37.15</ele>
        <time>2019-06-02T12:37:22Z</time>
      </trkpt>
      <trkpt lat="42.04598" lon="-8.64352">
        <ele>37.15</ele>
        <time>2019-06-02T12:37:57Z</time>
      </trkpt>
      <trkpt lat="42.04587" lon="-8.64346">
        <ele>37.63</ele>
        <time>2019-06-02T12:38:34Z</time>
      </trkpt>
      <trkpt lat="42.04598" lon="-8.64351">
        <ele>38.11</ele>
        <time>2019-06-02T12:39:09Z</time>
      </trkpt>
      <trkpt lat="42.04581" lon="-8.64343">
        <ele>38.11</ele>
        <time>2019-06-02T12:39:43Z</time>
      </trkpt>
      <trkpt lat="42.0459" lon="-8.64329">
        <ele>38.11</ele>
        <time>2019-06-02T12:40:12Z</time>
      </trkpt>
      <trkpt lat="42.04592" lon="-8.64332">
        <ele>41.47</ele>
        <time>2019-06-02T12:40:49Z</time>
      </trkpt>
      <trkpt lat="42.04588" lon="-8.64337">
        <ele>40.03</ele>
        <time>2019-06-02T12:41:31Z</time>
      </trkpt>
      <trkpt lat="42.04594" lon="-8.64342">
        <ele>41.47</ele>
        <time>2019-06-02T12:42:06Z</time>
      </trkpt>
      <trkpt lat="42.04594" lon="-8.64343">
        <ele>40.99</ele>
        <time>2019-06-02T12:42:07Z</time>
      </trkpt>
      <trkpt lat="42.04595" lon="-8.64347">
        <ele>40.99</ele>
        <time>2019-06-02T12:42:32Z</time>
      </trkpt>
      <trkpt lat="42.04603" lon="-8.64369">
        <ele>41.47</ele>
        <time>2019-06-02T12:43:04Z</time>
      </trkpt>
      <trkpt lat="42.04602" lon="-8.6436">
        <ele>40.99</ele>
        <time>2019-06-02T12:43:34Z</time>
      </trkpt>
      <trkpt lat="42.04598" lon="-8.64352">
        <ele>40.51</ele>
        <time>2019-06-02T12:44:14Z</time>
      </trkpt>
      <trkpt lat="42.046" lon="-8.64347">
        <ele>40.03</ele>
        <time>2019-06-02T12:44:55Z</time>
      </trkpt>
      <trkpt lat="42.04599" lon="-8.64366">
        <ele>40.51</ele>
        <time>2019-06-02T12:45:26Z</time>
      </trkpt>
      <trkpt lat="42.04587" lon="-8.64366">
        <ele>40.03</ele>
        <time>2019-06-02T12:45:42Z</time>
      </trkpt>
      <trkpt lat="42.04582" lon="-8.64376">
        <ele>40.99</ele>
        <time>2019-06-02T12:45:57Z</time>
      </trkpt>
      <trkpt lat="42.04583" lon="-8.64382">
        <ele>40.99</ele>
        <time>2019-06-02T12:46:04Z</time>
      </trkpt>
      <trkpt lat="42.04596" lon="-8.64428">
        <ele>41.47</ele>
        <time>2019-06-02T12:46:21Z</time>
      </trkpt>
      <trkpt lat="42.04591" lon="-8.64449">
        <ele>40.99</ele>
        <time>2019-06-02T12:46:36Z</time>
      </trkpt>
      <trkpt lat="42.04587" lon="-8.64394">
        <ele>37.15</ele>
        <time>2019-06-02T12:46:43Z</time>
      </trkpt>
      <trkpt lat="42.04587" lon="-8.64387">
        <ele>41.47</ele>
        <time>2019-06-02T12:46:44Z</time>
      </trkpt>
      <trkpt lat="42.04579" lon="-8.64376">
        <ele>40.03</ele>
        <time>2019-06-02T12:47:03Z</time>
      </trkpt>
      <trkpt lat="42.0458" lon="-8.64367">
        <ele>40.03</ele>
        <time>2019-06-02T12:47:31Z</time>
      </trkpt>
      <trkpt lat="42.04578" lon="-8.6436">
        <ele>40.51</ele>
        <time>2019-06-02T12:48:11Z</time>
      </trkpt>
      <trkpt lat="42.04575" lon="-8.64358">
        <ele>40.51</ele>
        <time>2019-06-02T12:48:45Z</time>
      </trkpt>
      <trkpt lat="42.04582" lon="-8.64354">
        <ele>40.51</ele>
        <time>2019-06-02T12:49:14Z</time>
      </trkpt>
      <trkpt lat="42.0458" lon="-8.64363">
        <ele>40.99</ele>
        <time>2019-06-02T12:49:42Z</time>
      </trkpt>
      <trkpt lat="42.04585" lon="-8.64368">
        <ele>40.51</ele>
        <time>2019-06-02T12:50:09Z</time>
      </trkpt>
      <trkpt lat="42.04587" lon="-8.64366">
        <ele>40.99</ele>
        <time>2019-06-02T12:50:38Z</time>
      </trkpt>
      <trkpt lat="42.04583" lon="-8.64364">
        <ele>40.99</ele>
        <time>2019-06-02T12:51:00Z</time>
      </trkpt>
      <trkpt lat="42.04581" lon="-8.64368">
        <ele>40.51</ele>
        <time>2019-06-02T12:51:27Z</time>
      </trkpt>
      <trkpt lat="42.04576" lon="-8.64371">
        <ele>40.99</ele>
        <time>2019-06-02T12:51:57Z</time>
      </trkpt>
      <trkpt lat="42.04573" lon="-8.64375">
        <ele>41.47</ele>
        <time>2019-06-02T12:52:02Z</time>
      </trkpt>
      <trkpt lat="42.04562" lon="-8.64395">
        <ele>42.44</ele>
        <time>2019-06-02T12:52:17Z</time>
      </trkpt>
      <trkpt lat="42.04564" lon="-8.64396">
        <ele>42.92</ele>
        <time>2019-06-02T12:52:28Z</time>
      </trkpt>
      <trkpt lat="42.04559" lon="-8.64394">
        <ele>42.92</ele>
        <time>2019-06-02T12:52:31Z</time>
      </trkpt>
      <trkpt lat="42.04554" lon="-8.64398">
        <ele>41.95</ele>
        <time>2019-06-02T12:52:45Z</time>
      </trkpt>
      <trkpt lat="42.0455" lon="-8.64397">
        <ele>41.47</ele>
        <time>2019-06-02T12:52:55Z</time>
      </trkpt>
      <trkpt lat="42.04549" lon="-8.64399">
        <ele>40.99</ele>
        <time>2019-06-02T12:52:59Z</time>
      </trkpt>
      <trkpt lat="42.04543" lon="-8.64405">
        <ele>40.03</ele>
        <time>2019-06-02T12:53:05Z</time>
      </trkpt>
      <trkpt lat="42.04537" lon="-8.64409">
        <ele>39.07</ele>
        <time>2019-06-02T12:53:11Z</time>
      </trkpt>
      <trkpt lat="42.04536" lon="-8.6441">
        <ele>40.03</ele>
        <time>2019-06-02T12:53:14Z</time>
      </trkpt>
      <trkpt lat="42.0453" lon="-8.64416">
        <ele>40.99</ele>
        <time>2019-06-02T12:53:28Z</time>
      </trkpt>
    </trkseg>
  </trk>
</gpx>